<?xml version="1.0" encoding="UTF-8" standalone="no" ?>
<gpx xmlns="http://www.topografix.com/GPX/1/1" creator="CompeGPS" version="1.1" xmlns:xsi="http://www.w3.org/2001/XMLSchema-instance" xsi:schemaLocation="http://www.topografix.com/GPX/1/1 http://www.topografix.com/GPX/1/1/gpx.xsd http://www.garmin.com/xmlschemas/GpxExtensions/v3 http://www.garmin.com/xmlschemas/GpxExtensionsv3.xsd http://www.garmin.com/xmlschemas/TrackPointExtension/v1 http://www.garmin.com/xmlschemas/TrackPointExtensionv1.xsd" xmlns:gpxtpx="http://www.garmin.com/xmlschemas/TrackPointExtension/v1">
  <metadata>
    <link href="http://www.compegps.com">
      <text>CompeGPS TEAM, SL</text>
    </link>
    <time>2013-09-01T11:55:56Z</time>
    <bounds maxlat="42.713820" maxlon="-0.033352" minlat="42.676712" minlon="-0.082583"/>
  </metadata>
  <wpt lat="42.713820" lon="-0.051402">
  <ele>2208</ele>
  <name>Col des Tentes</name>
</wpt>
<wpt lat="42.703805" lon="-0.063959">
  <ele>2270</ele>
  <name>Port de Boucharo</name>
</wpt>
<wpt lat="42.695921" lon="-0.033352">
  <ele>2587</ele>
  <name>Refuge des Sarradets</name>
</wpt>
<wpt lat="42.693695" lon="-0.051205">
  <ele>3144</ele>
  <name>Taillon</name>
</wpt>
<wpt lat="42.690890" lon="-0.054269">
  <ele>3051</ele>
  <name>Breche 3051m</name>
</wpt>
<wpt lat="42.694584" lon="-0.062098">
  <ele>3031</ele>
  <name>Gabieto Nord</name>
</wpt>
<wpt lat="42.692933" lon="-0.065250">
  <ele>3035</ele>
  <name>Gabieto Sud</name>
</wpt>
<wpt lat="42.683313" lon="-0.066029">
  <ele>2425</ele>
  <name>Plana Catuarta</name>
</wpt>
<wpt lat="42.679162" lon="-0.080288">
  <ele>2728</ele>
  <name>Col Escuzana</name>
</wpt>
<wpt lat="42.691407" lon="-0.080108">
  <ele>2516</ele>
  <name>Forqueta de Gabieto</name>
</wpt>
<trk>
    <name>Taillon - Gabietous - Escuzana</name>
    <trkseg>
      <trkpt lat="42.713820" lon="-0.051402">
        <ele>2210.5</ele>
        <time>2013-08-31T04:11:37Z</time>
      </trkpt>
      <trkpt lat="42.713808" lon="-0.051390">
        <ele>2209.2</ele>
        <time>2013-08-31T04:15:04Z</time>
      </trkpt>
      <trkpt lat="42.713721" lon="-0.051308">
        <ele>2210.2</ele>
        <time>2013-08-31T04:15:24Z</time>
      </trkpt>
      <trkpt lat="42.713658" lon="-0.051199">
        <ele>2210.6</ele>
        <time>2013-08-31T04:15:35Z</time>
      </trkpt>
      <trkpt lat="42.713608" lon="-0.051097">
        <ele>2210.7</ele>
        <time>2013-08-31T04:15:45Z</time>
      </trkpt>
      <trkpt lat="42.713543" lon="-0.051013">
        <ele>2210.5</ele>
        <time>2013-08-31T04:15:55Z</time>
      </trkpt>
      <trkpt lat="42.713460" lon="-0.050966">
        <ele>2210.2</ele>
        <time>2013-08-31T04:16:05Z</time>
      </trkpt>
      <trkpt lat="42.713363" lon="-0.051004">
        <ele>2210.0</ele>
        <time>2013-08-31T04:16:15Z</time>
      </trkpt>
      <trkpt lat="42.713275" lon="-0.051052">
        <ele>2210.1</ele>
        <time>2013-08-31T04:16:24Z</time>
      </trkpt>
      <trkpt lat="42.713207" lon="-0.051146">
        <ele>2210.3</ele>
        <time>2013-08-31T04:16:34Z</time>
      </trkpt>
      <trkpt lat="42.713168" lon="-0.051280">
        <ele>2210.7</ele>
        <time>2013-08-31T04:16:44Z</time>
      </trkpt>
      <trkpt lat="42.713127" lon="-0.051405">
        <ele>2210.4</ele>
        <time>2013-08-31T04:16:53Z</time>
      </trkpt>
      <trkpt lat="42.713075" lon="-0.051517">
        <ele>2210.4</ele>
        <time>2013-08-31T04:17:02Z</time>
      </trkpt>
      <trkpt lat="42.713036" lon="-0.051642">
        <ele>2210.3</ele>
        <time>2013-08-31T04:17:11Z</time>
      </trkpt>
      <trkpt lat="42.712995" lon="-0.051754">
        <ele>2210.4</ele>
        <time>2013-08-31T04:17:19Z</time>
      </trkpt>
      <trkpt lat="42.712951" lon="-0.051878">
        <ele>2210.6</ele>
        <time>2013-08-31T04:17:28Z</time>
      </trkpt>
      <trkpt lat="42.712915" lon="-0.052017">
        <ele>2210.4</ele>
        <time>2013-08-31T04:17:37Z</time>
      </trkpt>
      <trkpt lat="42.712874" lon="-0.052152">
        <ele>2210.4</ele>
        <time>2013-08-31T04:17:45Z</time>
      </trkpt>
      <trkpt lat="42.712849" lon="-0.052277">
        <ele>2210.2</ele>
        <time>2013-08-31T04:17:52Z</time>
      </trkpt>
      <trkpt lat="42.712819" lon="-0.052399">
        <ele>2210.0</ele>
        <time>2013-08-31T04:18:00Z</time>
      </trkpt>
      <trkpt lat="42.712803" lon="-0.052520">
        <ele>2210.0</ele>
        <time>2013-08-31T04:18:08Z</time>
      </trkpt>
      <trkpt lat="42.712783" lon="-0.052649">
        <ele>2209.9</ele>
        <time>2013-08-31T04:18:16Z</time>
      </trkpt>
      <trkpt lat="42.712774" lon="-0.052774">
        <ele>2209.8</ele>
        <time>2013-08-31T04:18:24Z</time>
      </trkpt>
      <trkpt lat="42.712754" lon="-0.052908">
        <ele>2209.7</ele>
        <time>2013-08-31T04:18:32Z</time>
      </trkpt>
      <trkpt lat="42.712729" lon="-0.053039">
        <ele>2209.5</ele>
        <time>2013-08-31T04:18:41Z</time>
      </trkpt>
      <trkpt lat="42.712703" lon="-0.053168">
        <ele>2209.5</ele>
        <time>2013-08-31T04:18:50Z</time>
      </trkpt>
      <trkpt lat="42.712675" lon="-0.053298">
        <ele>2209.3</ele>
        <time>2013-08-31T04:18:59Z</time>
      </trkpt>
      <trkpt lat="42.712627" lon="-0.053424">
        <ele>2209.1</ele>
        <time>2013-08-31T04:19:07Z</time>
      </trkpt>
      <trkpt lat="42.712588" lon="-0.053548">
        <ele>2209.1</ele>
        <time>2013-08-31T04:19:15Z</time>
      </trkpt>
      <trkpt lat="42.712534" lon="-0.053663">
        <ele>2209.1</ele>
        <time>2013-08-31T04:19:24Z</time>
      </trkpt>
      <trkpt lat="42.712493" lon="-0.053798">
        <ele>2208.9</ele>
        <time>2013-08-31T04:19:33Z</time>
      </trkpt>
      <trkpt lat="42.712454" lon="-0.053929">
        <ele>2209.1</ele>
        <time>2013-08-31T04:19:42Z</time>
      </trkpt>
      <trkpt lat="42.712412" lon="-0.054045">
        <ele>2209.1</ele>
        <time>2013-08-31T04:19:50Z</time>
      </trkpt>
      <trkpt lat="42.712378" lon="-0.054174">
        <ele>2208.9</ele>
        <time>2013-08-31T04:19:58Z</time>
      </trkpt>
      <trkpt lat="42.712351" lon="-0.054302">
        <ele>2209.1</ele>
        <time>2013-08-31T04:20:06Z</time>
      </trkpt>
      <trkpt lat="42.712312" lon="-0.054422">
        <ele>2209.0</ele>
        <time>2013-08-31T04:20:14Z</time>
      </trkpt>
      <trkpt lat="42.712289" lon="-0.054556">
        <ele>2209.0</ele>
        <time>2013-08-31T04:20:22Z</time>
      </trkpt>
      <trkpt lat="42.712269" lon="-0.054671">
        <ele>2208.8</ele>
        <time>2013-08-31T04:20:29Z</time>
      </trkpt>
      <trkpt lat="42.712252" lon="-0.054788">
        <ele>2208.7</ele>
        <time>2013-08-31T04:20:36Z</time>
      </trkpt>
      <trkpt lat="42.712241" lon="-0.054920">
        <ele>2208.7</ele>
        <time>2013-08-31T04:20:44Z</time>
      </trkpt>
      <trkpt lat="42.712231" lon="-0.055038">
        <ele>2208.7</ele>
        <time>2013-08-31T04:20:51Z</time>
      </trkpt>
      <trkpt lat="42.712196" lon="-0.055166">
        <ele>2208.4</ele>
        <time>2013-08-31T04:20:59Z</time>
      </trkpt>
      <trkpt lat="42.712170" lon="-0.055290">
        <ele>2208.3</ele>
        <time>2013-08-31T04:21:07Z</time>
      </trkpt>
      <trkpt lat="42.712146" lon="-0.055406">
        <ele>2208.5</ele>
        <time>2013-08-31T04:21:14Z</time>
      </trkpt>
      <trkpt lat="42.712111" lon="-0.055534">
        <ele>2208.5</ele>
        <time>2013-08-31T04:21:22Z</time>
      </trkpt>
      <trkpt lat="42.712068" lon="-0.055643">
        <ele>2208.6</ele>
        <time>2013-08-31T04:21:29Z</time>
      </trkpt>
      <trkpt lat="42.712026" lon="-0.055757">
        <ele>2208.3</ele>
        <time>2013-08-31T04:21:37Z</time>
      </trkpt>
      <trkpt lat="42.711966" lon="-0.055872">
        <ele>2208.1</ele>
        <time>2013-08-31T04:21:45Z</time>
      </trkpt>
      <trkpt lat="42.711911" lon="-0.055972">
        <ele>2208.0</ele>
        <time>2013-08-31T04:21:53Z</time>
      </trkpt>
      <trkpt lat="42.711841" lon="-0.056071">
        <ele>2208.1</ele>
        <time>2013-08-31T04:22:01Z</time>
      </trkpt>
      <trkpt lat="42.711778" lon="-0.056165">
        <ele>2208.1</ele>
        <time>2013-08-31T04:22:08Z</time>
      </trkpt>
      <trkpt lat="42.711697" lon="-0.056262">
        <ele>2208.1</ele>
        <time>2013-08-31T04:22:17Z</time>
      </trkpt>
      <trkpt lat="42.711626" lon="-0.056355">
        <ele>2208.4</ele>
        <time>2013-08-31T04:22:25Z</time>
      </trkpt>
      <trkpt lat="42.711549" lon="-0.056445">
        <ele>2208.7</ele>
        <time>2013-08-31T04:22:32Z</time>
      </trkpt>
      <trkpt lat="42.711475" lon="-0.056517">
        <ele>2208.6</ele>
        <time>2013-08-31T04:22:39Z</time>
      </trkpt>
      <trkpt lat="42.711388" lon="-0.056584">
        <ele>2208.6</ele>
        <time>2013-08-31T04:22:47Z</time>
      </trkpt>
      <trkpt lat="42.711283" lon="-0.056642">
        <ele>2208.5</ele>
        <time>2013-08-31T04:22:56Z</time>
      </trkpt>
      <trkpt lat="42.711181" lon="-0.056689">
        <ele>2208.7</ele>
        <time>2013-08-31T04:23:04Z</time>
      </trkpt>
      <trkpt lat="42.711088" lon="-0.056770">
        <ele>2208.8</ele>
        <time>2013-08-31T04:23:12Z</time>
      </trkpt>
      <trkpt lat="42.711003" lon="-0.056847">
        <ele>2209.0</ele>
        <time>2013-08-31T04:23:19Z</time>
      </trkpt>
      <trkpt lat="42.710919" lon="-0.056924">
        <ele>2209.1</ele>
        <time>2013-08-31T04:23:26Z</time>
      </trkpt>
      <trkpt lat="42.710855" lon="-0.057017">
        <ele>2209.1</ele>
        <time>2013-08-31T04:23:33Z</time>
      </trkpt>
      <trkpt lat="42.710780" lon="-0.057109">
        <ele>2209.1</ele>
        <time>2013-08-31T04:23:40Z</time>
      </trkpt>
      <trkpt lat="42.710712" lon="-0.057203">
        <ele>2209.1</ele>
        <time>2013-08-31T04:23:48Z</time>
      </trkpt>
      <trkpt lat="42.710645" lon="-0.057294">
        <ele>2208.9</ele>
        <time>2013-08-31T04:23:55Z</time>
      </trkpt>
      <trkpt lat="42.710575" lon="-0.057383">
        <ele>2209.2</ele>
        <time>2013-08-31T04:24:02Z</time>
      </trkpt>
      <trkpt lat="42.710494" lon="-0.057475">
        <ele>2209.1</ele>
        <time>2013-08-31T04:24:09Z</time>
      </trkpt>
      <trkpt lat="42.710428" lon="-0.057569">
        <ele>2209.0</ele>
        <time>2013-08-31T04:24:16Z</time>
      </trkpt>
      <trkpt lat="42.710367" lon="-0.057670">
        <ele>2209.2</ele>
        <time>2013-08-31T04:24:23Z</time>
      </trkpt>
      <trkpt lat="42.710323" lon="-0.057777">
        <ele>2209.4</ele>
        <time>2013-08-31T04:24:30Z</time>
      </trkpt>
      <trkpt lat="42.710274" lon="-0.057891">
        <ele>2209.4</ele>
        <time>2013-08-31T04:24:37Z</time>
      </trkpt>
      <trkpt lat="42.710212" lon="-0.058005">
        <ele>2209.4</ele>
        <time>2013-08-31T04:24:45Z</time>
      </trkpt>
      <trkpt lat="42.710154" lon="-0.058107">
        <ele>2209.3</ele>
        <time>2013-08-31T04:24:52Z</time>
      </trkpt>
      <trkpt lat="42.710091" lon="-0.058232">
        <ele>2209.4</ele>
        <time>2013-08-31T04:25:00Z</time>
      </trkpt>
      <trkpt lat="42.710022" lon="-0.058337">
        <ele>2209.4</ele>
        <time>2013-08-31T04:25:07Z</time>
      </trkpt>
      <trkpt lat="42.709956" lon="-0.058432">
        <ele>2209.4</ele>
        <time>2013-08-31T04:25:14Z</time>
      </trkpt>
      <trkpt lat="42.709894" lon="-0.058532">
        <ele>2209.5</ele>
        <time>2013-08-31T04:25:21Z</time>
      </trkpt>
      <trkpt lat="42.709822" lon="-0.058627">
        <ele>2209.5</ele>
        <time>2013-08-31T04:25:28Z</time>
      </trkpt>
      <trkpt lat="42.709748" lon="-0.058713">
        <ele>2209.3</ele>
        <time>2013-08-31T04:25:35Z</time>
      </trkpt>
      <trkpt lat="42.709662" lon="-0.058790">
        <ele>2209.2</ele>
        <time>2013-08-31T04:25:43Z</time>
      </trkpt>
      <trkpt lat="42.709572" lon="-0.058858">
        <ele>2209.3</ele>
        <time>2013-08-31T04:25:51Z</time>
      </trkpt>
      <trkpt lat="42.709475" lon="-0.058916">
        <ele>2209.2</ele>
        <time>2013-08-31T04:25:58Z</time>
      </trkpt>
      <trkpt lat="42.709403" lon="-0.058989">
        <ele>2209.3</ele>
        <time>2013-08-31T04:26:04Z</time>
      </trkpt>
      <trkpt lat="42.709325" lon="-0.059067">
        <ele>2209.7</ele>
        <time>2013-08-31T04:26:11Z</time>
      </trkpt>
      <trkpt lat="42.709233" lon="-0.059125">
        <ele>2209.9</ele>
        <time>2013-08-31T04:26:18Z</time>
      </trkpt>
      <trkpt lat="42.709160" lon="-0.059182">
        <ele>2210.0</ele>
        <time>2013-08-31T04:26:25Z</time>
      </trkpt>
      <trkpt lat="42.709086" lon="-0.059280">
        <ele>2210.8</ele>
        <time>2013-08-31T04:26:34Z</time>
      </trkpt>
      <trkpt lat="42.709012" lon="-0.059371">
        <ele>2212.0</ele>
        <time>2013-08-31T04:26:51Z</time>
      </trkpt>
      <trkpt lat="42.708922" lon="-0.059445">
        <ele>2212.1</ele>
        <time>2013-08-31T04:26:59Z</time>
      </trkpt>
      <trkpt lat="42.708840" lon="-0.059521">
        <ele>2212.6</ele>
        <time>2013-08-31T04:27:08Z</time>
      </trkpt>
      <trkpt lat="42.708794" lon="-0.059627">
        <ele>2213.2</ele>
        <time>2013-08-31T04:27:16Z</time>
      </trkpt>
      <trkpt lat="42.708711" lon="-0.059709">
        <ele>2213.8</ele>
        <time>2013-08-31T04:27:24Z</time>
      </trkpt>
      <trkpt lat="42.708631" lon="-0.059810">
        <ele>2214.8</ele>
        <time>2013-08-31T04:27:33Z</time>
      </trkpt>
      <trkpt lat="42.708543" lon="-0.059905">
        <ele>2215.5</ele>
        <time>2013-08-31T04:27:41Z</time>
      </trkpt>
      <trkpt lat="42.708449" lon="-0.059968">
        <ele>2216.1</ele>
        <time>2013-08-31T04:27:49Z</time>
      </trkpt>
      <trkpt lat="42.708371" lon="-0.060049">
        <ele>2217.4</ele>
        <time>2013-08-31T04:28:01Z</time>
      </trkpt>
      <trkpt lat="42.708284" lon="-0.060095">
        <ele>2218.6</ele>
        <time>2013-08-31T04:28:10Z</time>
      </trkpt>
      <trkpt lat="42.708201" lon="-0.060180">
        <ele>2218.9</ele>
        <time>2013-08-31T04:28:18Z</time>
      </trkpt>
      <trkpt lat="42.708124" lon="-0.060257">
        <ele>2219.9</ele>
        <time>2013-08-31T04:28:27Z</time>
      </trkpt>
      <trkpt lat="42.708057" lon="-0.060355">
        <ele>2221.0</ele>
        <time>2013-08-31T04:28:36Z</time>
      </trkpt>
      <trkpt lat="42.707987" lon="-0.060448">
        <ele>2222.2</ele>
        <time>2013-08-31T04:28:45Z</time>
      </trkpt>
      <trkpt lat="42.707913" lon="-0.060544">
        <ele>2223.3</ele>
        <time>2013-08-31T04:28:54Z</time>
      </trkpt>
      <trkpt lat="42.707832" lon="-0.060611">
        <ele>2223.9</ele>
        <time>2013-08-31T04:29:02Z</time>
      </trkpt>
      <trkpt lat="42.707743" lon="-0.060693">
        <ele>2225.1</ele>
        <time>2013-08-31T04:29:10Z</time>
      </trkpt>
      <trkpt lat="42.707666" lon="-0.060765">
        <ele>2226.1</ele>
        <time>2013-08-31T04:29:18Z</time>
      </trkpt>
      <trkpt lat="42.707582" lon="-0.060839">
        <ele>2227.1</ele>
        <time>2013-08-31T04:29:27Z</time>
      </trkpt>
      <trkpt lat="42.707526" lon="-0.060939">
        <ele>2228.5</ele>
        <time>2013-08-31T04:29:35Z</time>
      </trkpt>
      <trkpt lat="42.707443" lon="-0.061022">
        <ele>2229.1</ele>
        <time>2013-08-31T04:29:43Z</time>
      </trkpt>
      <trkpt lat="42.707381" lon="-0.061109">
        <ele>2229.8</ele>
        <time>2013-08-31T04:29:51Z</time>
      </trkpt>
      <trkpt lat="42.707331" lon="-0.061209">
        <ele>2230.6</ele>
        <time>2013-08-31T04:29:59Z</time>
      </trkpt>
      <trkpt lat="42.707288" lon="-0.061333">
        <ele>2231.4</ele>
        <time>2013-08-31T04:30:07Z</time>
      </trkpt>
      <trkpt lat="42.707256" lon="-0.061440">
        <ele>2231.9</ele>
        <time>2013-08-31T04:30:15Z</time>
      </trkpt>
      <trkpt lat="42.707232" lon="-0.061563">
        <ele>2232.9</ele>
        <time>2013-08-31T04:30:23Z</time>
      </trkpt>
      <trkpt lat="42.707188" lon="-0.061694">
        <ele>2234.0</ele>
        <time>2013-08-31T04:30:32Z</time>
      </trkpt>
      <trkpt lat="42.707149" lon="-0.061828">
        <ele>2235.1</ele>
        <time>2013-08-31T04:30:42Z</time>
      </trkpt>
      <trkpt lat="42.707098" lon="-0.061932">
        <ele>2235.7</ele>
        <time>2013-08-31T04:30:51Z</time>
      </trkpt>
      <trkpt lat="42.707017" lon="-0.062001">
        <ele>2237.0</ele>
        <time>2013-08-31T04:31:02Z</time>
      </trkpt>
      <trkpt lat="42.706942" lon="-0.062102">
        <ele>2237.9</ele>
        <time>2013-08-31T04:31:18Z</time>
      </trkpt>
      <trkpt lat="42.706872" lon="-0.062220">
        <ele>2238.9</ele>
        <time>2013-08-31T04:31:29Z</time>
      </trkpt>
      <trkpt lat="42.706786" lon="-0.062307">
        <ele>2239.7</ele>
        <time>2013-08-31T04:31:40Z</time>
      </trkpt>
      <trkpt lat="42.706689" lon="-0.062350">
        <ele>2240.8</ele>
        <time>2013-08-31T04:31:50Z</time>
      </trkpt>
      <trkpt lat="42.706597" lon="-0.062402">
        <ele>2241.8</ele>
        <time>2013-08-31T04:32:01Z</time>
      </trkpt>
      <trkpt lat="42.706509" lon="-0.062476">
        <ele>2242.8</ele>
        <time>2013-08-31T04:32:12Z</time>
      </trkpt>
      <trkpt lat="42.706424" lon="-0.062546">
        <ele>2244.4</ele>
        <time>2013-08-31T04:32:30Z</time>
      </trkpt>
      <trkpt lat="42.706342" lon="-0.062638">
        <ele>2245.0</ele>
        <time>2013-08-31T04:32:42Z</time>
      </trkpt>
      <trkpt lat="42.706249" lon="-0.062750">
        <ele>2246.3</ele>
        <time>2013-08-31T04:32:53Z</time>
      </trkpt>
      <trkpt lat="42.706148" lon="-0.062833">
        <ele>2247.5</ele>
        <time>2013-08-31T04:33:04Z</time>
      </trkpt>
      <trkpt lat="42.706047" lon="-0.062879">
        <ele>2248.6</ele>
        <time>2013-08-31T04:33:15Z</time>
      </trkpt>
      <trkpt lat="42.705932" lon="-0.062936">
        <ele>2250.1</ele>
        <time>2013-08-31T04:33:27Z</time>
      </trkpt>
      <trkpt lat="42.705832" lon="-0.062983">
        <ele>2250.9</ele>
        <time>2013-08-31T04:33:37Z</time>
      </trkpt>
      <trkpt lat="42.705730" lon="-0.063059">
        <ele>2252.1</ele>
        <time>2013-08-31T04:33:48Z</time>
      </trkpt>
      <trkpt lat="42.705652" lon="-0.063138">
        <ele>2253.2</ele>
        <time>2013-08-31T04:33:58Z</time>
      </trkpt>
      <trkpt lat="42.705559" lon="-0.063161">
        <ele>2254.5</ele>
        <time>2013-08-31T04:34:08Z</time>
      </trkpt>
      <trkpt lat="42.705469" lon="-0.063205">
        <ele>2255.6</ele>
        <time>2013-08-31T04:34:17Z</time>
      </trkpt>
      <trkpt lat="42.705356" lon="-0.063237">
        <ele>2256.5</ele>
        <time>2013-08-31T04:34:25Z</time>
      </trkpt>
      <trkpt lat="42.705261" lon="-0.063281">
        <ele>2257.4</ele>
        <time>2013-08-31T04:34:34Z</time>
      </trkpt>
      <trkpt lat="42.705171" lon="-0.063323">
        <ele>2258.4</ele>
        <time>2013-08-31T04:34:44Z</time>
      </trkpt>
      <trkpt lat="42.705035" lon="-0.063371">
        <ele>2259.4</ele>
        <time>2013-08-31T04:34:54Z</time>
      </trkpt>
      <trkpt lat="42.704945" lon="-0.063393">
        <ele>2260.5</ele>
        <time>2013-08-31T04:35:03Z</time>
      </trkpt>
      <trkpt lat="42.704859" lon="-0.063416">
        <ele>2261.3</ele>
        <time>2013-08-31T04:35:12Z</time>
      </trkpt>
      <trkpt lat="42.704750" lon="-0.063450">
        <ele>2262.2</ele>
        <time>2013-08-31T04:35:21Z</time>
      </trkpt>
      <trkpt lat="42.704638" lon="-0.063488">
        <ele>2263.6</ele>
        <time>2013-08-31T04:35:32Z</time>
      </trkpt>
      <trkpt lat="42.704548" lon="-0.063529">
        <ele>2264.8</ele>
        <time>2013-08-31T04:35:44Z</time>
      </trkpt>
      <trkpt lat="42.704460" lon="-0.063541">
        <ele>2265.4</ele>
        <time>2013-08-31T04:35:54Z</time>
      </trkpt>
      <trkpt lat="42.704369" lon="-0.063540">
        <ele>2266.3</ele>
        <time>2013-08-31T04:36:03Z</time>
      </trkpt>
      <trkpt lat="42.704271" lon="-0.063571">
        <ele>2267.3</ele>
        <time>2013-08-31T04:36:12Z</time>
      </trkpt>
      <trkpt lat="42.704185" lon="-0.063634">
        <ele>2268.7</ele>
        <time>2013-08-31T04:36:21Z</time>
      </trkpt>
      <trkpt lat="42.704114" lon="-0.063699">
        <ele>2269.5</ele>
        <time>2013-08-31T04:36:30Z</time>
      </trkpt>
      <trkpt lat="42.704044" lon="-0.063765">
        <ele>2270.5</ele>
        <time>2013-08-31T04:36:39Z</time>
      </trkpt>
      <trkpt lat="42.703949" lon="-0.063800">
        <ele>2271.6</ele>
        <time>2013-08-31T04:36:47Z</time>
      </trkpt>
      <trkpt lat="42.703876" lon="-0.063870">
        <ele>2273.2</ele>
        <time>2013-08-31T04:36:58Z</time>
      </trkpt>
      <trkpt lat="42.703805" lon="-0.063959">
        <ele>2275.6</ele>
        <time>2013-08-31T04:37:12Z</time>
        <name>Port de Boucharo</name>
      </trkpt>
      <trkpt lat="42.703752" lon="-0.063964">
        <ele>2277.7</ele>
        <time>2013-08-31T04:38:29Z</time>
      </trkpt>
      <trkpt lat="42.703677" lon="-0.063887">
        <ele>2280.3</ele>
        <time>2013-08-31T04:38:46Z</time>
      </trkpt>
      <trkpt lat="42.703646" lon="-0.063747">
        <ele>2283.2</ele>
        <time>2013-08-31T04:38:58Z</time>
      </trkpt>
      <trkpt lat="42.703609" lon="-0.063606">
        <ele>2285.3</ele>
        <time>2013-08-31T04:39:09Z</time>
      </trkpt>
      <trkpt lat="42.703546" lon="-0.063492">
        <ele>2287.9</ele>
        <time>2013-08-31T04:39:24Z</time>
      </trkpt>
      <trkpt lat="42.703603" lon="-0.063483">
        <ele>2288.5</ele>
        <time>2013-08-31T04:40:59Z</time>
      </trkpt>
      <trkpt lat="42.703566" lon="-0.063441">
        <ele>2289.0</ele>
        <time>2013-08-31T04:41:31Z</time>
      </trkpt>
      <trkpt lat="42.703523" lon="-0.063325">
        <ele>2291.1</ele>
        <time>2013-08-31T04:41:59Z</time>
      </trkpt>
      <trkpt lat="42.703498" lon="-0.063177">
        <ele>2292.9</ele>
        <time>2013-08-31T04:42:16Z</time>
      </trkpt>
      <trkpt lat="42.703504" lon="-0.063012">
        <ele>2294.2</ele>
        <time>2013-08-31T04:42:30Z</time>
      </trkpt>
      <trkpt lat="42.703512" lon="-0.062875">
        <ele>2296.9</ele>
        <time>2013-08-31T04:42:45Z</time>
      </trkpt>
      <trkpt lat="42.703506" lon="-0.062741">
        <ele>2298.7</ele>
        <time>2013-08-31T04:42:59Z</time>
      </trkpt>
      <trkpt lat="42.703479" lon="-0.062609">
        <ele>2301.4</ele>
        <time>2013-08-31T04:43:11Z</time>
      </trkpt>
      <trkpt lat="42.703478" lon="-0.062468">
        <ele>2303.4</ele>
        <time>2013-08-31T04:43:24Z</time>
      </trkpt>
      <trkpt lat="42.703460" lon="-0.062337">
        <ele>2305.6</ele>
        <time>2013-08-31T04:43:35Z</time>
      </trkpt>
      <trkpt lat="42.703450" lon="-0.062203">
        <ele>2307.5</ele>
        <time>2013-08-31T04:43:47Z</time>
      </trkpt>
      <trkpt lat="42.703429" lon="-0.062064">
        <ele>2308.3</ele>
        <time>2013-08-31T04:43:57Z</time>
      </trkpt>
      <trkpt lat="42.703411" lon="-0.061945">
        <ele>2308.7</ele>
        <time>2013-08-31T04:44:07Z</time>
      </trkpt>
      <trkpt lat="42.703313" lon="-0.061877">
        <ele>2310.5</ele>
        <time>2013-08-31T04:44:22Z</time>
      </trkpt>
      <trkpt lat="42.703290" lon="-0.061743">
        <ele>2312.6</ele>
        <time>2013-08-31T04:44:34Z</time>
      </trkpt>
      <trkpt lat="42.703293" lon="-0.061602">
        <ele>2314.3</ele>
        <time>2013-08-31T04:44:44Z</time>
      </trkpt>
      <trkpt lat="42.703272" lon="-0.061457">
        <ele>2316.0</ele>
        <time>2013-08-31T04:44:55Z</time>
      </trkpt>
      <trkpt lat="42.703259" lon="-0.061317">
        <ele>2317.8</ele>
        <time>2013-08-31T04:45:08Z</time>
      </trkpt>
      <trkpt lat="42.703254" lon="-0.061191">
        <ele>2319.4</ele>
        <time>2013-08-31T04:45:21Z</time>
      </trkpt>
      <trkpt lat="42.703243" lon="-0.061044">
        <ele>2320.5</ele>
        <time>2013-08-31T04:45:32Z</time>
      </trkpt>
      <trkpt lat="42.703259" lon="-0.060914">
        <ele>2321.1</ele>
        <time>2013-08-31T04:45:42Z</time>
      </trkpt>
      <trkpt lat="42.703234" lon="-0.060798">
        <ele>2321.9</ele>
        <time>2013-08-31T04:45:52Z</time>
      </trkpt>
      <trkpt lat="42.703214" lon="-0.060659">
        <ele>2322.5</ele>
        <time>2013-08-31T04:46:03Z</time>
      </trkpt>
      <trkpt lat="42.703192" lon="-0.060532">
        <ele>2322.7</ele>
        <time>2013-08-31T04:46:13Z</time>
      </trkpt>
      <trkpt lat="42.703168" lon="-0.060397">
        <ele>2323.1</ele>
        <time>2013-08-31T04:46:23Z</time>
      </trkpt>
      <trkpt lat="42.703185" lon="-0.060236">
        <ele>2324.4</ele>
        <time>2013-08-31T04:46:35Z</time>
      </trkpt>
      <trkpt lat="42.703180" lon="-0.060102">
        <ele>2325.4</ele>
        <time>2013-08-31T04:46:44Z</time>
      </trkpt>
      <trkpt lat="42.703172" lon="-0.059982">
        <ele>2325.7</ele>
        <time>2013-08-31T04:46:52Z</time>
      </trkpt>
      <trkpt lat="42.703132" lon="-0.059852">
        <ele>2325.4</ele>
        <time>2013-08-31T04:47:00Z</time>
      </trkpt>
      <trkpt lat="42.703108" lon="-0.059723">
        <ele>2325.3</ele>
        <time>2013-08-31T04:47:08Z</time>
      </trkpt>
      <trkpt lat="42.703081" lon="-0.059597">
        <ele>2325.4</ele>
        <time>2013-08-31T04:47:17Z</time>
      </trkpt>
      <trkpt lat="42.703058" lon="-0.059467">
        <ele>2325.2</ele>
        <time>2013-08-31T04:47:26Z</time>
      </trkpt>
      <trkpt lat="42.703005" lon="-0.059343">
        <ele>2324.8</ele>
        <time>2013-08-31T04:47:34Z</time>
      </trkpt>
      <trkpt lat="42.702985" lon="-0.059213">
        <ele>2324.3</ele>
        <time>2013-08-31T04:47:42Z</time>
      </trkpt>
      <trkpt lat="42.702962" lon="-0.059085">
        <ele>2323.7</ele>
        <time>2013-08-31T04:47:50Z</time>
      </trkpt>
      <trkpt lat="42.702912" lon="-0.058966">
        <ele>2323.6</ele>
        <time>2013-08-31T04:47:59Z</time>
      </trkpt>
      <trkpt lat="42.702848" lon="-0.058862">
        <ele>2322.9</ele>
        <time>2013-08-31T04:48:07Z</time>
      </trkpt>
      <trkpt lat="42.702830" lon="-0.058737">
        <ele>2322.1</ele>
        <time>2013-08-31T04:48:16Z</time>
      </trkpt>
      <trkpt lat="42.702839" lon="-0.058615">
        <ele>2321.6</ele>
        <time>2013-08-31T04:48:23Z</time>
      </trkpt>
      <trkpt lat="42.702824" lon="-0.058485">
        <ele>2321.4</ele>
        <time>2013-08-31T04:48:32Z</time>
      </trkpt>
      <trkpt lat="42.702832" lon="-0.058342">
        <ele>2321.5</ele>
        <time>2013-08-31T04:48:40Z</time>
      </trkpt>
      <trkpt lat="42.702806" lon="-0.058214">
        <ele>2321.2</ele>
        <time>2013-08-31T04:48:47Z</time>
      </trkpt>
      <trkpt lat="42.702772" lon="-0.058100">
        <ele>2320.9</ele>
        <time>2013-08-31T04:48:54Z</time>
      </trkpt>
      <trkpt lat="42.702776" lon="-0.057971">
        <ele>2320.7</ele>
        <time>2013-08-31T04:49:02Z</time>
      </trkpt>
      <trkpt lat="42.702762" lon="-0.057845">
        <ele>2320.1</ele>
        <time>2013-08-31T04:49:11Z</time>
      </trkpt>
      <trkpt lat="42.702748" lon="-0.057711">
        <ele>2319.3</ele>
        <time>2013-08-31T04:49:22Z</time>
      </trkpt>
      <trkpt lat="42.702719" lon="-0.057594">
        <ele>2318.4</ele>
        <time>2013-08-31T04:49:31Z</time>
      </trkpt>
      <trkpt lat="42.702693" lon="-0.057466">
        <ele>2317.5</ele>
        <time>2013-08-31T04:49:40Z</time>
      </trkpt>
      <trkpt lat="42.702668" lon="-0.057330">
        <ele>2317.2</ele>
        <time>2013-08-31T04:49:49Z</time>
      </trkpt>
      <trkpt lat="42.702637" lon="-0.057188">
        <ele>2316.8</ele>
        <time>2013-08-31T04:49:58Z</time>
      </trkpt>
      <trkpt lat="42.702667" lon="-0.057054">
        <ele>2316.3</ele>
        <time>2013-08-31T04:50:07Z</time>
      </trkpt>
      <trkpt lat="42.702650" lon="-0.056934">
        <ele>2316.9</ele>
        <time>2013-08-31T04:50:16Z</time>
      </trkpt>
      <trkpt lat="42.702604" lon="-0.056820">
        <ele>2317.1</ele>
        <time>2013-08-31T04:50:25Z</time>
      </trkpt>
      <trkpt lat="42.702563" lon="-0.056705">
        <ele>2316.6</ele>
        <time>2013-08-31T04:50:33Z</time>
      </trkpt>
      <trkpt lat="42.702541" lon="-0.056580">
        <ele>2316.3</ele>
        <time>2013-08-31T04:50:41Z</time>
      </trkpt>
      <trkpt lat="42.702555" lon="-0.056450">
        <ele>2316.5</ele>
        <time>2013-08-31T04:50:50Z</time>
      </trkpt>
      <trkpt lat="42.702568" lon="-0.056019">
        <ele>2317.1</ele>
        <time>2013-08-31T04:51:15Z</time>
      </trkpt>
      <trkpt lat="42.702459" lon="-0.056002">
        <ele>2317.0</ele>
        <time>2013-08-31T04:51:23Z</time>
      </trkpt>
      <trkpt lat="42.702373" lon="-0.055960">
        <ele>2316.9</ele>
        <time>2013-08-31T04:51:33Z</time>
      </trkpt>
      <trkpt lat="42.702319" lon="-0.055851">
        <ele>2317.5</ele>
        <time>2013-08-31T04:51:43Z</time>
      </trkpt>
      <trkpt lat="42.702276" lon="-0.055761">
        <ele>2318.2</ele>
        <time>2013-08-31T04:56:07Z</time>
      </trkpt>
      <trkpt lat="42.702256" lon="-0.055829">
        <ele>2311.0</ele>
      </trkpt>
      <trkpt lat="42.702214" lon="-0.055731">
        <ele>2310.0</ele>
      </trkpt>
      <trkpt lat="42.702189" lon="-0.055549">
        <ele>2309.0</ele>
      </trkpt>
      <trkpt lat="42.702254" lon="-0.055410">
        <ele>2311.0</ele>
      </trkpt>
      <trkpt lat="42.702250" lon="-0.055255">
        <ele>2312.0</ele>
      </trkpt>
      <trkpt lat="42.702253" lon="-0.055061">
        <ele>2313.0</ele>
      </trkpt>
      <trkpt lat="42.702297" lon="-0.054993">
        <ele>2316.0</ele>
      </trkpt>
      <trkpt lat="42.702280" lon="-0.054896">
        <ele>2316.0</ele>
      </trkpt>
      <trkpt lat="42.702267" lon="-0.054840">
        <ele>2317.0</ele>
      </trkpt>
      <trkpt lat="42.702248" lon="-0.054728">
        <ele>2317.0</ele>
      </trkpt>
      <trkpt lat="42.702196" lon="-0.054644">
        <ele>2314.0</ele>
      </trkpt>
      <trkpt lat="42.702223" lon="-0.054496">
        <ele>2314.0</ele>
      </trkpt>
      <trkpt lat="42.702269" lon="-0.054446">
        <ele>2315.0</ele>
      </trkpt>
      <trkpt lat="42.702273" lon="-0.054406">
        <ele>2315.0</ele>
      </trkpt>
      <trkpt lat="42.702328" lon="-0.054255">
        <ele>2318.0</ele>
      </trkpt>
      <trkpt lat="42.702345" lon="-0.054225">
        <ele>2318.0</ele>
      </trkpt>
      <trkpt lat="42.702428" lon="-0.054046">
        <ele>2322.0</ele>
      </trkpt>
      <trkpt lat="42.702433" lon="-0.054029">
        <ele>2323.0</ele>
      </trkpt>
      <trkpt lat="42.702473" lon="-0.053790">
        <ele>2324.0</ele>
      </trkpt>
      <trkpt lat="42.702446" lon="-0.053627">
        <ele>2322.0</ele>
      </trkpt>
      <trkpt lat="42.702455" lon="-0.053510">
        <ele>2321.0</ele>
      </trkpt>
      <trkpt lat="42.702413" lon="-0.053405">
        <ele>2318.0</ele>
      </trkpt>
      <trkpt lat="42.702348" lon="-0.053161">
        <ele>2314.0</ele>
      </trkpt>
      <trkpt lat="42.702415" lon="-0.052885">
        <ele>2313.0</ele>
      </trkpt>
      <trkpt lat="42.702419" lon="-0.052851">
        <ele>2313.0</ele>
      </trkpt>
      <trkpt lat="42.702426" lon="-0.052654">
        <ele>2314.0</ele>
      </trkpt>
      <trkpt lat="42.702435" lon="-0.052558">
        <ele>2315.0</ele>
      </trkpt>
      <trkpt lat="42.702438" lon="-0.052364">
        <ele>2316.0</ele>
      </trkpt>
      <trkpt lat="42.702468" lon="-0.052105">
        <ele>2315.0</ele>
      </trkpt>
      <trkpt lat="42.702461" lon="-0.051817">
        <ele>2317.0</ele>
      </trkpt>
      <trkpt lat="42.702381" lon="-0.051588">
        <ele>2319.0</ele>
      </trkpt>
      <trkpt lat="42.702280" lon="-0.051442">
        <ele>2319.0</ele>
      </trkpt>
      <trkpt lat="42.702286" lon="-0.051353">
        <ele>2319.0</ele>
      </trkpt>
      <trkpt lat="42.702281" lon="-0.051246">
        <ele>2321.0</ele>
      </trkpt>
      <trkpt lat="42.702264" lon="-0.051171">
        <ele>2322.0</ele>
      </trkpt>
      <trkpt lat="42.702239" lon="-0.051008">
        <ele>2322.0</ele>
      </trkpt>
      <trkpt lat="42.702261" lon="-0.050878">
        <ele>2323.0</ele>
      </trkpt>
      <trkpt lat="42.702273" lon="-0.050826">
        <ele>2323.0</ele>
      </trkpt>
      <trkpt lat="42.702217" lon="-0.050591">
        <ele>2323.0</ele>
      </trkpt>
      <trkpt lat="42.702160" lon="-0.050416">
        <ele>2324.0</ele>
      </trkpt>
      <trkpt lat="42.702113" lon="-0.050304">
        <ele>2324.0</ele>
      </trkpt>
      <trkpt lat="42.702075" lon="-0.050251">
        <ele>2323.0</ele>
      </trkpt>
      <trkpt lat="42.701976" lon="-0.049974">
        <ele>2323.0</ele>
      </trkpt>
      <trkpt lat="42.701979" lon="-0.049897">
        <ele>2323.0</ele>
      </trkpt>
      <trkpt lat="42.701990" lon="-0.049840">
        <ele>2324.0</ele>
      </trkpt>
      <trkpt lat="42.702057" lon="-0.049673">
        <ele>2325.0</ele>
      </trkpt>
      <trkpt lat="42.702053" lon="-0.049608">
        <ele>2326.0</ele>
      </trkpt>
      <trkpt lat="42.702029" lon="-0.049548">
        <ele>2326.0</ele>
      </trkpt>
      <trkpt lat="42.701974" lon="-0.049435">
        <ele>2327.0</ele>
      </trkpt>
      <trkpt lat="42.701961" lon="-0.049333">
        <ele>2328.0</ele>
      </trkpt>
      <trkpt lat="42.701967" lon="-0.049275">
        <ele>2329.0</ele>
      </trkpt>
      <trkpt lat="42.701995" lon="-0.049117">
        <ele>2331.0</ele>
      </trkpt>
      <trkpt lat="42.701965" lon="-0.049031">
        <ele>2332.0</ele>
      </trkpt>
      <trkpt lat="42.701963" lon="-0.048893">
        <ele>2334.0</ele>
      </trkpt>
      <trkpt lat="42.701972" lon="-0.048796">
        <ele>2334.0</ele>
      </trkpt>
      <trkpt lat="42.701982" lon="-0.048611">
        <ele>2337.0</ele>
      </trkpt>
      <trkpt lat="42.701946" lon="-0.048554">
        <ele>2338.0</ele>
      </trkpt>
      <trkpt lat="42.701956" lon="-0.048468">
        <ele>2340.0</ele>
      </trkpt>
      <trkpt lat="42.701992" lon="-0.048389">
        <ele>2342.0</ele>
      </trkpt>
      <trkpt lat="42.702030" lon="-0.048160">
        <ele>2343.0</ele>
      </trkpt>
      <trkpt lat="42.702042" lon="-0.047952">
        <ele>2346.0</ele>
      </trkpt>
      <trkpt lat="42.702041" lon="-0.047688">
        <ele>2349.0</ele>
      </trkpt>
      <trkpt lat="42.702039" lon="-0.047698">
        <ele>2348.0</ele>
      </trkpt>
      <trkpt lat="42.701942" lon="-0.047598">
        <ele>2349.0</ele>
      </trkpt>
      <trkpt lat="42.701783" lon="-0.047569">
        <ele>2349.0</ele>
      </trkpt>
      <trkpt lat="42.701758" lon="-0.047537">
        <ele>2349.0</ele>
      </trkpt>
      <trkpt lat="42.701715" lon="-0.047427">
        <ele>2351.0</ele>
      </trkpt>
      <trkpt lat="42.701720" lon="-0.047433">
        <ele>2353.0</ele>
      </trkpt>
      <trkpt lat="42.701667" lon="-0.047258">
        <ele>2354.0</ele>
      </trkpt>
      <trkpt lat="42.701576" lon="-0.047096">
        <ele>2353.0</ele>
      </trkpt>
      <trkpt lat="42.701533" lon="-0.046858">
        <ele>2353.0</ele>
      </trkpt>
      <trkpt lat="42.701466" lon="-0.046691">
        <ele>2354.0</ele>
      </trkpt>
      <trkpt lat="42.701413" lon="-0.046517">
        <ele>2355.0</ele>
      </trkpt>
      <trkpt lat="42.701413" lon="-0.046335">
        <ele>2356.0</ele>
      </trkpt>
      <trkpt lat="42.701394" lon="-0.046168">
        <ele>2359.0</ele>
      </trkpt>
      <trkpt lat="42.701401" lon="-0.046008">
        <ele>2361.0</ele>
      </trkpt>
      <trkpt lat="42.701426" lon="-0.045850">
        <ele>2364.0</ele>
      </trkpt>
      <trkpt lat="42.701425" lon="-0.045835">
        <ele>2363.0</ele>
      </trkpt>
      <trkpt lat="42.701453" lon="-0.045742">
        <ele>2365.0</ele>
      </trkpt>
      <trkpt lat="42.701444" lon="-0.045728">
        <ele>2365.0</ele>
      </trkpt>
      <trkpt lat="42.701391" lon="-0.045639">
        <ele>2365.0</ele>
      </trkpt>
      <trkpt lat="42.701320" lon="-0.045395">
        <ele>2367.0</ele>
      </trkpt>
      <trkpt lat="42.701285" lon="-0.045223">
        <ele>2368.0</ele>
      </trkpt>
      <trkpt lat="42.701280" lon="-0.045076">
        <ele>2369.0</ele>
      </trkpt>
      <trkpt lat="42.701274" lon="-0.045007">
        <ele>2369.0</ele>
      </trkpt>
      <trkpt lat="42.701289" lon="-0.044858">
        <ele>2369.0</ele>
      </trkpt>
      <trkpt lat="42.701295" lon="-0.044768">
        <ele>2369.0</ele>
      </trkpt>
      <trkpt lat="42.701297" lon="-0.044658">
        <ele>2369.0</ele>
      </trkpt>
      <trkpt lat="42.701263" lon="-0.044539">
        <ele>2370.0</ele>
      </trkpt>
      <trkpt lat="42.701245" lon="-0.044441">
        <ele>2371.0</ele>
      </trkpt>
      <trkpt lat="42.701197" lon="-0.044234">
        <ele>2372.0</ele>
      </trkpt>
      <trkpt lat="42.701190" lon="-0.044097">
        <ele>2372.0</ele>
      </trkpt>
      <trkpt lat="42.701115" lon="-0.043925">
        <ele>2373.0</ele>
      </trkpt>
      <trkpt lat="42.701030" lon="-0.043772">
        <ele>2374.0</ele>
      </trkpt>
      <trkpt lat="42.700982" lon="-0.043607">
        <ele>2376.0</ele>
      </trkpt>
      <trkpt lat="42.701015" lon="-0.043422">
        <ele>2380.0</ele>
      </trkpt>
      <trkpt lat="42.701003" lon="-0.043329">
        <ele>2380.0</ele>
      </trkpt>
      <trkpt lat="42.700968" lon="-0.043245">
        <ele>2381.0</ele>
      </trkpt>
      <trkpt lat="42.700964" lon="-0.043182">
        <ele>2381.0</ele>
      </trkpt>
      <trkpt lat="42.700951" lon="-0.043144">
        <ele>2382.0</ele>
      </trkpt>
      <trkpt lat="42.700933" lon="-0.043120">
        <ele>2382.0</ele>
      </trkpt>
      <trkpt lat="42.700936" lon="-0.043047">
        <ele>2382.0</ele>
      </trkpt>
      <trkpt lat="42.700934" lon="-0.042995">
        <ele>2382.0</ele>
      </trkpt>
      <trkpt lat="42.700889" lon="-0.042842">
        <ele>2381.0</ele>
      </trkpt>
      <trkpt lat="42.700858" lon="-0.042701">
        <ele>2380.0</ele>
      </trkpt>
      <trkpt lat="42.700737" lon="-0.042515">
        <ele>2376.0</ele>
      </trkpt>
      <trkpt lat="42.700733" lon="-0.042500">
        <ele>2376.0</ele>
      </trkpt>
      <trkpt lat="42.700689" lon="-0.042370">
        <ele>2375.0</ele>
      </trkpt>
      <trkpt lat="42.700662" lon="-0.042151">
        <ele>2374.0</ele>
      </trkpt>
      <trkpt lat="42.700667" lon="-0.041975">
        <ele>2375.0</ele>
      </trkpt>
      <trkpt lat="42.700650" lon="-0.041737">
        <ele>2375.0</ele>
      </trkpt>
      <trkpt lat="42.700642" lon="-0.041582">
        <ele>2376.0</ele>
      </trkpt>
      <trkpt lat="42.700685" lon="-0.041374">
        <ele>2376.0</ele>
      </trkpt>
      <trkpt lat="42.700730" lon="-0.041189">
        <ele>2374.0</ele>
      </trkpt>
      <trkpt lat="42.700759" lon="-0.040968">
        <ele>2372.0</ele>
      </trkpt>
      <trkpt lat="42.700763" lon="-0.040941">
        <ele>2372.0</ele>
      </trkpt>
      <trkpt lat="42.700764" lon="-0.040846">
        <ele>2372.0</ele>
      </trkpt>
      <trkpt lat="42.700759" lon="-0.040694">
        <ele>2369.0</ele>
      </trkpt>
      <trkpt lat="42.700771" lon="-0.040541">
        <ele>2367.0</ele>
      </trkpt>
      <trkpt lat="42.700766" lon="-0.040369">
        <ele>2368.0</ele>
      </trkpt>
      <trkpt lat="42.700718" lon="-0.040288">
        <ele>2366.0</ele>
      </trkpt>
      <trkpt lat="42.700711" lon="-0.040131">
        <ele>2365.0</ele>
      </trkpt>
      <trkpt lat="42.700670" lon="-0.039968">
        <ele>2365.0</ele>
      </trkpt>
      <trkpt lat="42.700633" lon="-0.039800">
        <ele>2366.0</ele>
      </trkpt>
      <trkpt lat="42.700628" lon="-0.039620">
        <ele>2370.0</ele>
      </trkpt>
      <trkpt lat="42.700588" lon="-0.039530">
        <ele>2371.0</ele>
      </trkpt>
      <trkpt lat="42.700571" lon="-0.039468">
        <ele>2372.0</ele>
      </trkpt>
      <trkpt lat="42.700554" lon="-0.039327">
        <ele>2374.0</ele>
      </trkpt>
      <trkpt lat="42.700537" lon="-0.039248">
        <ele>2376.0</ele>
      </trkpt>
      <trkpt lat="42.700543" lon="-0.039221">
        <ele>2376.0</ele>
      </trkpt>
      <trkpt lat="42.700526" lon="-0.039123">
        <ele>2376.0</ele>
      </trkpt>
      <trkpt lat="42.700508" lon="-0.039068">
        <ele>2376.0</ele>
      </trkpt>
      <trkpt lat="42.700556" lon="-0.038919">
        <ele>2379.0</ele>
      </trkpt>
      <trkpt lat="42.700535" lon="-0.038758">
        <ele>2383.0</ele>
      </trkpt>
      <trkpt lat="42.700498" lon="-0.038553">
        <ele>2386.0</ele>
      </trkpt>
      <trkpt lat="42.700506" lon="-0.038464">
        <ele>2391.0</ele>
      </trkpt>
      <trkpt lat="42.700496" lon="-0.038338">
        <ele>2394.0</ele>
      </trkpt>
      <trkpt lat="42.700472" lon="-0.038167">
        <ele>2396.0</ele>
      </trkpt>
      <trkpt lat="42.700419" lon="-0.038136">
        <ele>2397.0</ele>
      </trkpt>
      <trkpt lat="42.700339" lon="-0.038154">
        <ele>2399.0</ele>
      </trkpt>
      <trkpt lat="42.700245" lon="-0.038103">
        <ele>2400.0</ele>
      </trkpt>
      <trkpt lat="42.700158" lon="-0.037940">
        <ele>2403.0</ele>
      </trkpt>
      <trkpt lat="42.700131" lon="-0.037916">
        <ele>2403.0</ele>
      </trkpt>
      <trkpt lat="42.700025" lon="-0.037857">
        <ele>2405.0</ele>
      </trkpt>
      <trkpt lat="42.699893" lon="-0.037819">
        <ele>2415.0</ele>
      </trkpt>
      <trkpt lat="42.699786" lon="-0.037822">
        <ele>2417.0</ele>
      </trkpt>
      <trkpt lat="42.699753" lon="-0.037777">
        <ele>2417.0</ele>
      </trkpt>
      <trkpt lat="42.699718" lon="-0.037765">
        <ele>2417.0</ele>
      </trkpt>
      <trkpt lat="42.699720" lon="-0.037764">
        <ele>2418.0</ele>
      </trkpt>
      <trkpt lat="42.699655" lon="-0.037740">
        <ele>2427.0</ele>
      </trkpt>
      <trkpt lat="42.699589" lon="-0.037731">
        <ele>2429.0</ele>
      </trkpt>
      <trkpt lat="42.699545" lon="-0.037744">
        <ele>2430.0</ele>
      </trkpt>
      <trkpt lat="42.699490" lon="-0.037757">
        <ele>2432.0</ele>
      </trkpt>
      <trkpt lat="42.699440" lon="-0.037659">
        <ele>2434.0</ele>
      </trkpt>
      <trkpt lat="42.699418" lon="-0.037566">
        <ele>2435.0</ele>
      </trkpt>
      <trkpt lat="42.699399" lon="-0.037422">
        <ele>2439.0</ele>
      </trkpt>
      <trkpt lat="42.699327" lon="-0.037336">
        <ele>2440.0</ele>
      </trkpt>
      <trkpt lat="42.699305" lon="-0.037321">
        <ele>2442.0</ele>
      </trkpt>
      <trkpt lat="42.699258" lon="-0.037279">
        <ele>2442.0</ele>
      </trkpt>
      <trkpt lat="42.699214" lon="-0.037201">
        <ele>2443.0</ele>
      </trkpt>
      <trkpt lat="42.699199" lon="-0.037102">
        <ele>2446.0</ele>
      </trkpt>
      <trkpt lat="42.699164" lon="-0.036938">
        <ele>2451.0</ele>
      </trkpt>
      <trkpt lat="42.699166" lon="-0.036852">
        <ele>2456.0</ele>
      </trkpt>
      <trkpt lat="42.699176" lon="-0.036769">
        <ele>2457.0</ele>
      </trkpt>
      <trkpt lat="42.699174" lon="-0.036630">
        <ele>2461.0</ele>
      </trkpt>
      <trkpt lat="42.699107" lon="-0.036616">
        <ele>2466.0</ele>
      </trkpt>
      <trkpt lat="42.699030" lon="-0.036641">
        <ele>2469.0</ele>
      </trkpt>
      <trkpt lat="42.699025" lon="-0.036583">
        <ele>2473.0</ele>
      </trkpt>
      <trkpt lat="42.698948" lon="-0.036512">
        <ele>2480.0</ele>
      </trkpt>
      <trkpt lat="42.698936" lon="-0.036437">
        <ele>2481.0</ele>
      </trkpt>
      <trkpt lat="42.698925" lon="-0.036328">
        <ele>2485.0</ele>
      </trkpt>
      <trkpt lat="42.698892" lon="-0.036301">
        <ele>2488.0</ele>
      </trkpt>
      <trkpt lat="42.698821" lon="-0.036149">
        <ele>2498.0</ele>
      </trkpt>
      <trkpt lat="42.698742" lon="-0.036070">
        <ele>2505.0</ele>
      </trkpt>
      <trkpt lat="42.698680" lon="-0.035933">
        <ele>2512.0</ele>
      </trkpt>
      <trkpt lat="42.698627" lon="-0.035900">
        <ele>2515.0</ele>
      </trkpt>
      <trkpt lat="42.698592" lon="-0.035907">
        <ele>2516.0</ele>
      </trkpt>
      <trkpt lat="42.698500" lon="-0.035986">
        <ele>2519.0</ele>
      </trkpt>
      <trkpt lat="42.698445" lon="-0.035998">
        <ele>2522.0</ele>
      </trkpt>
      <trkpt lat="42.698436" lon="-0.035908">
        <ele>2525.0</ele>
      </trkpt>
      <trkpt lat="42.698440" lon="-0.035856">
        <ele>2527.0</ele>
      </trkpt>
      <trkpt lat="42.698419" lon="-0.035807">
        <ele>2529.0</ele>
      </trkpt>
      <trkpt lat="42.698364" lon="-0.035790">
        <ele>2532.0</ele>
      </trkpt>
      <trkpt lat="42.698271" lon="-0.035817">
        <ele>2533.0</ele>
      </trkpt>
      <trkpt lat="42.698263" lon="-0.035826">
        <ele>2533.0</ele>
      </trkpt>
      <trkpt lat="42.698180" lon="-0.035821">
        <ele>2538.0</ele>
      </trkpt>
      <trkpt lat="42.698107" lon="-0.035824">
        <ele>2538.0</ele>
      </trkpt>
      <trkpt lat="42.698005" lon="-0.035857">
        <ele>2538.0</ele>
      </trkpt>
      <trkpt lat="42.697855" lon="-0.035861">
        <ele>2544.0</ele>
      </trkpt>
      <trkpt lat="42.697816" lon="-0.035861">
        <ele>2546.0</ele>
      </trkpt>
      <trkpt lat="42.697705" lon="-0.035762">
        <ele>2548.0</ele>
      </trkpt>
      <trkpt lat="42.697653" lon="-0.035639">
        <ele>2546.0</ele>
      </trkpt>
      <trkpt lat="42.697600" lon="-0.035580">
        <ele>2546.0</ele>
      </trkpt>
      <trkpt lat="42.697542" lon="-0.035529">
        <ele>2547.0</ele>
      </trkpt>
      <trkpt lat="42.697485" lon="-0.035442">
        <ele>2547.0</ele>
      </trkpt>
      <trkpt lat="42.697452" lon="-0.035294">
        <ele>2548.0</ele>
      </trkpt>
      <trkpt lat="42.697524" lon="-0.035212">
        <ele>2554.0</ele>
      </trkpt>
      <trkpt lat="42.697613" lon="-0.035269">
        <ele>2556.0</ele>
      </trkpt>
      <trkpt lat="42.697703" lon="-0.035221">
        <ele>2560.0</ele>
      </trkpt>
      <trkpt lat="42.697773" lon="-0.035199">
        <ele>2566.0</ele>
      </trkpt>
      <trkpt lat="42.697768" lon="-0.035005">
        <ele>2568.0</ele>
      </trkpt>
      <trkpt lat="42.697720" lon="-0.034905">
        <ele>2570.0</ele>
      </trkpt>
      <trkpt lat="42.697634" lon="-0.034852">
        <ele>2572.0</ele>
      </trkpt>
      <trkpt lat="42.697611" lon="-0.034830">
        <ele>2572.0</ele>
      </trkpt>
      <trkpt lat="42.697506" lon="-0.034779">
        <ele>2572.0</ele>
      </trkpt>
      <trkpt lat="42.697429" lon="-0.034801">
        <ele>2575.0</ele>
      </trkpt>
      <trkpt lat="42.697323" lon="-0.034821">
        <ele>2577.0</ele>
      </trkpt>
      <trkpt lat="42.697246" lon="-0.034785">
        <ele>2579.0</ele>
      </trkpt>
      <trkpt lat="42.697144" lon="-0.034726">
        <ele>2578.0</ele>
      </trkpt>
      <trkpt lat="42.697116" lon="-0.034722">
        <ele>2579.0</ele>
      </trkpt>
      <trkpt lat="42.697046" lon="-0.034687">
        <ele>2578.0</ele>
      </trkpt>
      <trkpt lat="42.697018" lon="-0.034704">
        <ele>2578.0</ele>
      </trkpt>
      <trkpt lat="42.696947" lon="-0.034688">
        <ele>2582.0</ele>
      </trkpt>
      <trkpt lat="42.696833" lon="-0.034576">
        <ele>2586.0</ele>
      </trkpt>
      <trkpt lat="42.696780" lon="-0.034492">
        <ele>2588.0</ele>
      </trkpt>
      <trkpt lat="42.696698" lon="-0.034378">
        <ele>2588.0</ele>
      </trkpt>
      <trkpt lat="42.696690" lon="-0.034236">
        <ele>2588.0</ele>
      </trkpt>
      <trkpt lat="42.696639" lon="-0.034046">
        <ele>2586.0</ele>
      </trkpt>
      <trkpt lat="42.696524" lon="-0.033860">
        <ele>2584.0</ele>
      </trkpt>
      <trkpt lat="42.696426" lon="-0.033816">
        <ele>2583.0</ele>
      </trkpt>
      <trkpt lat="42.696329" lon="-0.033729">
        <ele>2582.0</ele>
      </trkpt>
      <trkpt lat="42.696202" lon="-0.033630">
        <ele>2582.0</ele>
      </trkpt>
      <trkpt lat="42.696098" lon="-0.033541">
        <ele>2584.0</ele>
      </trkpt>
      <trkpt lat="42.695949" lon="-0.033466">
        <ele>2585.0</ele>
      </trkpt>
      <trkpt lat="42.695921" lon="-0.033352">
        <ele>2577.8</ele>
        <time>2013-08-31T05:51:17Z</time>
        <name>Refuge des Sarradets</name>
      </trkpt>
      <trkpt lat="42.695784" lon="-0.033524">
        <ele>2578.2</ele>
        <time>2013-08-31T05:55:11Z</time>
      </trkpt>
      <trkpt lat="42.695696" lon="-0.033613">
        <ele>2579.0</ele>
        <time>2013-08-31T05:55:23Z</time>
      </trkpt>
      <trkpt lat="42.695599" lon="-0.033673">
        <ele>2581.9</ele>
        <time>2013-08-31T05:55:43Z</time>
      </trkpt>
      <trkpt lat="42.695540" lon="-0.033573">
        <ele>2582.6</ele>
        <time>2013-08-31T05:55:59Z</time>
      </trkpt>
      <trkpt lat="42.695445" lon="-0.033535">
        <ele>2582.6</ele>
        <time>2013-08-31T05:56:12Z</time>
      </trkpt>
      <trkpt lat="42.695347" lon="-0.033501">
        <ele>2585.3</ele>
        <time>2013-08-31T05:56:27Z</time>
      </trkpt>
      <trkpt lat="42.695243" lon="-0.033459">
        <ele>2587.3</ele>
        <time>2013-08-31T05:56:40Z</time>
      </trkpt>
      <trkpt lat="42.695163" lon="-0.033462">
        <ele>2589.6</ele>
        <time>2013-08-31T05:56:56Z</time>
      </trkpt>
      <trkpt lat="42.695066" lon="-0.033477">
        <ele>2592.9</ele>
        <time>2013-08-31T05:57:13Z</time>
      </trkpt>
      <trkpt lat="42.694970" lon="-0.033528">
        <ele>2596.3</ele>
        <time>2013-08-31T05:57:29Z</time>
      </trkpt>
      <trkpt lat="42.694901" lon="-0.033577">
        <ele>2600.0</ele>
        <time>2013-08-31T05:57:48Z</time>
      </trkpt>
      <trkpt lat="42.694834" lon="-0.033618">
        <ele>2603.2</ele>
        <time>2013-08-31T05:58:09Z</time>
      </trkpt>
      <trkpt lat="42.694769" lon="-0.033676">
        <ele>2607.7</ele>
        <time>2013-08-31T05:58:29Z</time>
      </trkpt>
      <trkpt lat="42.694705" lon="-0.033725">
        <ele>2611.5</ele>
        <time>2013-08-31T05:58:50Z</time>
      </trkpt>
      <trkpt lat="42.694651" lon="-0.033753">
        <ele>2615.1</ele>
        <time>2013-08-31T05:59:09Z</time>
      </trkpt>
      <trkpt lat="42.694587" lon="-0.033798">
        <ele>2618.7</ele>
        <time>2013-08-31T05:59:30Z</time>
      </trkpt>
      <trkpt lat="42.694485" lon="-0.033815">
        <ele>2621.9</ele>
        <time>2013-08-31T05:59:47Z</time>
      </trkpt>
      <trkpt lat="42.694388" lon="-0.033863">
        <ele>2626.0</ele>
        <time>2013-08-31T06:00:09Z</time>
      </trkpt>
      <trkpt lat="42.694314" lon="-0.033910">
        <ele>2629.4</ele>
        <time>2013-08-31T06:00:28Z</time>
      </trkpt>
      <trkpt lat="42.694254" lon="-0.033996">
        <ele>2632.9</ele>
        <time>2013-08-31T06:00:48Z</time>
      </trkpt>
      <trkpt lat="42.694163" lon="-0.034045">
        <ele>2636.6</ele>
        <time>2013-08-31T06:01:08Z</time>
      </trkpt>
      <trkpt lat="42.694101" lon="-0.034108">
        <ele>2640.9</ele>
        <time>2013-08-31T06:01:29Z</time>
      </trkpt>
      <trkpt lat="42.694046" lon="-0.034203">
        <ele>2644.9</ele>
        <time>2013-08-31T06:01:51Z</time>
      </trkpt>
      <trkpt lat="42.693984" lon="-0.034264">
        <ele>2648.5</ele>
        <time>2013-08-31T06:02:09Z</time>
      </trkpt>
      <trkpt lat="42.693947" lon="-0.034366">
        <ele>2652.5</ele>
        <time>2013-08-31T06:02:31Z</time>
      </trkpt>
      <trkpt lat="42.693887" lon="-0.034481">
        <ele>2656.4</ele>
        <time>2013-08-31T06:02:52Z</time>
      </trkpt>
      <trkpt lat="42.693855" lon="-0.034596">
        <ele>2659.8</ele>
        <time>2013-08-31T06:03:11Z</time>
      </trkpt>
      <trkpt lat="42.693807" lon="-0.034706">
        <ele>2663.6</ele>
        <time>2013-08-31T06:03:30Z</time>
      </trkpt>
      <trkpt lat="42.693796" lon="-0.034830">
        <ele>2667.7</ele>
        <time>2013-08-31T06:03:52Z</time>
      </trkpt>
      <trkpt lat="42.693767" lon="-0.034938">
        <ele>2671.2</ele>
        <time>2013-08-31T06:04:13Z</time>
      </trkpt>
      <trkpt lat="42.693716" lon="-0.034875">
        <ele>2674.4</ele>
        <time>2013-08-31T06:04:30Z</time>
      </trkpt>
      <trkpt lat="42.693650" lon="-0.034804">
        <ele>2677.8</ele>
        <time>2013-08-31T06:04:47Z</time>
      </trkpt>
      <trkpt lat="42.693562" lon="-0.034715">
        <ele>2682.1</ele>
        <time>2013-08-31T06:05:09Z</time>
      </trkpt>
      <trkpt lat="42.693503" lon="-0.034635">
        <ele>2686.1</ele>
        <time>2013-08-31T06:05:31Z</time>
      </trkpt>
      <trkpt lat="42.693461" lon="-0.034548">
        <ele>2690.1</ele>
        <time>2013-08-31T06:05:49Z</time>
      </trkpt>
      <trkpt lat="42.693397" lon="-0.034460">
        <ele>2694.8</ele>
        <time>2013-08-31T06:06:11Z</time>
      </trkpt>
      <trkpt lat="42.693316" lon="-0.034360">
        <ele>2697.8</ele>
        <time>2013-08-31T06:06:27Z</time>
      </trkpt>
      <trkpt lat="42.693238" lon="-0.034262">
        <ele>2701.7</ele>
        <time>2013-08-31T06:06:48Z</time>
      </trkpt>
      <trkpt lat="42.693172" lon="-0.034181">
        <ele>2705.2</ele>
        <time>2013-08-31T06:07:05Z</time>
      </trkpt>
      <trkpt lat="42.693079" lon="-0.034145">
        <ele>2708.9</ele>
        <time>2013-08-31T06:07:23Z</time>
      </trkpt>
      <trkpt lat="42.693017" lon="-0.034218">
        <ele>2712.5</ele>
        <time>2013-08-31T06:07:43Z</time>
      </trkpt>
      <trkpt lat="42.692925" lon="-0.034274">
        <ele>2716.1</ele>
        <time>2013-08-31T06:08:04Z</time>
      </trkpt>
      <trkpt lat="42.692914" lon="-0.034386">
        <ele>2717.1</ele>
        <time>2013-08-31T06:08:54Z</time>
      </trkpt>
      <trkpt lat="42.692825" lon="-0.034381">
        <ele>2718.6</ele>
        <time>2013-08-31T06:09:07Z</time>
      </trkpt>
      <trkpt lat="42.692738" lon="-0.034456">
        <ele>2720.5</ele>
        <time>2013-08-31T06:09:19Z</time>
      </trkpt>
      <trkpt lat="42.692663" lon="-0.034546">
        <ele>2721.9</ele>
        <time>2013-08-31T06:09:31Z</time>
      </trkpt>
      <trkpt lat="42.692556" lon="-0.034631">
        <ele>2722.6</ele>
        <time>2013-08-31T06:09:42Z</time>
      </trkpt>
      <trkpt lat="42.692452" lon="-0.034694">
        <ele>2721.9</ele>
        <time>2013-08-31T06:09:53Z</time>
      </trkpt>
      <trkpt lat="42.692369" lon="-0.034755">
        <ele>2721.0</ele>
        <time>2013-08-31T06:10:03Z</time>
      </trkpt>
      <trkpt lat="42.692283" lon="-0.034782">
        <ele>2720.4</ele>
        <time>2013-08-31T06:10:13Z</time>
      </trkpt>
      <trkpt lat="42.692186" lon="-0.034791">
        <ele>2721.7</ele>
        <time>2013-08-31T06:10:32Z</time>
      </trkpt>
      <trkpt lat="42.692075" lon="-0.034772">
        <ele>2724.5</ele>
        <time>2013-08-31T06:10:49Z</time>
      </trkpt>
      <trkpt lat="42.691955" lon="-0.034784">
        <ele>2727.2</ele>
        <time>2013-08-31T06:11:07Z</time>
      </trkpt>
      <trkpt lat="42.691825" lon="-0.034837">
        <ele>2730.2</ele>
        <time>2013-08-31T06:11:27Z</time>
      </trkpt>
      <trkpt lat="42.691764" lon="-0.034830">
        <ele>2733.1</ele>
        <time>2013-08-31T06:11:46Z</time>
      </trkpt>
      <trkpt lat="42.691696" lon="-0.034849">
        <ele>2734.9</ele>
        <time>2013-08-31T06:12:07Z</time>
      </trkpt>
      <trkpt lat="42.691604" lon="-0.034804">
        <ele>2738.1</ele>
        <time>2013-08-31T06:12:28Z</time>
      </trkpt>
      <trkpt lat="42.691493" lon="-0.034791">
        <ele>2741.5</ele>
        <time>2013-08-31T06:12:53Z</time>
      </trkpt>
      <trkpt lat="42.691471" lon="-0.034777">
        <ele>2745.3</ele>
        <time>2013-08-31T06:13:20Z</time>
      </trkpt>
      <trkpt lat="42.691480" lon="-0.034625">
        <ele>2747.4</ele>
        <time>2013-08-31T06:13:39Z</time>
      </trkpt>
      <trkpt lat="42.691473" lon="-0.034480">
        <ele>2748.4</ele>
        <time>2013-08-31T06:13:53Z</time>
      </trkpt>
      <trkpt lat="42.691430" lon="-0.034348">
        <ele>2751.8</ele>
        <time>2013-08-31T06:14:07Z</time>
      </trkpt>
      <trkpt lat="42.691333" lon="-0.034307">
        <ele>2756.5</ele>
        <time>2013-08-31T06:14:29Z</time>
      </trkpt>
      <trkpt lat="42.691291" lon="-0.034211">
        <ele>2760.5</ele>
        <time>2013-08-31T06:14:48Z</time>
      </trkpt>
      <trkpt lat="42.691231" lon="-0.034106">
        <ele>2764.2</ele>
        <time>2013-08-31T06:15:09Z</time>
      </trkpt>
      <trkpt lat="42.691155" lon="-0.034049">
        <ele>2768.4</ele>
        <time>2013-08-31T06:15:27Z</time>
      </trkpt>
      <trkpt lat="42.691118" lon="-0.033970">
        <ele>2774.1</ele>
        <time>2013-08-31T06:15:58Z</time>
      </trkpt>
      <trkpt lat="42.691103" lon="-0.033976">
        <ele>2776.6</ele>
        <time>2013-08-31T06:16:50Z</time>
      </trkpt>
      <trkpt lat="42.691047" lon="-0.034011">
        <ele>2781.5</ele>
        <time>2013-08-31T06:17:14Z</time>
      </trkpt>
      <trkpt lat="42.690985" lon="-0.034042">
        <ele>2787.5</ele>
        <time>2013-08-31T06:17:35Z</time>
      </trkpt>
      <trkpt lat="42.691001" lon="-0.033989">
        <ele>2793.9</ele>
        <time>2013-08-31T06:17:59Z</time>
      </trkpt>
      <trkpt lat="42.690959" lon="-0.033981">
        <ele>2791.8</ele>
        <time>2013-08-31T06:19:05Z</time>
      </trkpt>
      <trkpt lat="42.690973" lon="-0.033990">
        <ele>2792.2</ele>
        <time>2013-08-31T06:21:22Z</time>
      </trkpt>
      <trkpt lat="42.690902" lon="-0.034063">
        <ele>2788.6</ele>
        <time>2013-08-31T06:21:45Z</time>
      </trkpt>
      <trkpt lat="42.690886" lon="-0.034195">
        <ele>2788.0</ele>
        <time>2013-08-31T06:22:01Z</time>
      </trkpt>
      <trkpt lat="42.690901" lon="-0.034305">
        <ele>2789.8</ele>
        <time>2013-08-31T06:22:30Z</time>
      </trkpt>
      <trkpt lat="42.690892" lon="-0.034413">
        <ele>2789.3</ele>
        <time>2013-08-31T06:22:55Z</time>
      </trkpt>
      <trkpt lat="42.690861" lon="-0.034548">
        <ele>2788.4</ele>
        <time>2013-08-31T06:23:05Z</time>
      </trkpt>
      <trkpt lat="42.690845" lon="-0.034682">
        <ele>2789.7</ele>
        <time>2013-08-31T06:23:20Z</time>
      </trkpt>
      <trkpt lat="42.690824" lon="-0.034812">
        <ele>2788.7</ele>
        <time>2013-08-31T06:23:36Z</time>
      </trkpt>
      <trkpt lat="42.690786" lon="-0.034935">
        <ele>2788.3</ele>
        <time>2013-08-31T06:23:46Z</time>
      </trkpt>
      <trkpt lat="42.690746" lon="-0.035060">
        <ele>2788.0</ele>
        <time>2013-08-31T06:23:56Z</time>
      </trkpt>
      <trkpt lat="42.690724" lon="-0.035196">
        <ele>2788.8</ele>
        <time>2013-08-31T06:24:07Z</time>
      </trkpt>
      <trkpt lat="42.690620" lon="-0.035294">
        <ele>2788.2</ele>
        <time>2013-08-31T06:24:18Z</time>
      </trkpt>
      <trkpt lat="42.690634" lon="-0.035476">
        <ele>2789.5</ele>
        <time>2013-08-31T06:24:31Z</time>
      </trkpt>
      <trkpt lat="42.690635" lon="-0.035627">
        <ele>2791.4</ele>
        <time>2013-08-31T06:24:42Z</time>
      </trkpt>
      <trkpt lat="42.690674" lon="-0.035746">
        <ele>2792.9</ele>
        <time>2013-08-31T06:24:58Z</time>
      </trkpt>
      <trkpt lat="42.690751" lon="-0.035862">
        <ele>2796.6</ele>
        <time>2013-08-31T06:25:17Z</time>
      </trkpt>
      <trkpt lat="42.690769" lon="-0.035883">
        <ele>2798.1</ele>
        <time>2013-08-31T06:26:08Z</time>
      </trkpt>
      <trkpt lat="42.690798" lon="-0.036021">
        <ele>2801.1</ele>
        <time>2013-08-31T06:26:21Z</time>
      </trkpt>
      <trkpt lat="42.690727" lon="-0.036074">
        <ele>2803.6</ele>
        <time>2013-08-31T06:26:44Z</time>
      </trkpt>
      <trkpt lat="42.690744" lon="-0.036115">
        <ele>2803.9</ele>
        <time>2013-08-31T06:27:01Z</time>
      </trkpt>
      <trkpt lat="42.690700" lon="-0.036245">
        <ele>2804.0</ele>
        <time>2013-08-31T06:27:09Z</time>
      </trkpt>
      <trkpt lat="42.690638" lon="-0.036348">
        <ele>2804.1</ele>
        <time>2013-08-31T06:27:21Z</time>
      </trkpt>
      <trkpt lat="42.690384" lon="-0.036481">
        <ele>2803.1</ele>
        <time>2013-08-31T06:27:38Z</time>
      </trkpt>
      <trkpt lat="42.690450" lon="-0.036642">
        <ele>2801.9</ele>
        <time>2013-08-31T06:27:50Z</time>
      </trkpt>
      <trkpt lat="42.690493" lon="-0.036785">
        <ele>2803.0</ele>
        <time>2013-08-31T06:27:58Z</time>
      </trkpt>
      <trkpt lat="42.690527" lon="-0.036913">
        <ele>2803.4</ele>
        <time>2013-08-31T06:28:07Z</time>
      </trkpt>
      <trkpt lat="42.690561" lon="-0.037009">
        <ele>2807.4</ele>
        <time>2013-08-31T06:28:19Z</time>
      </trkpt>
      <trkpt lat="42.690650" lon="-0.037094">
        <ele>2811.0</ele>
        <time>2013-08-31T06:28:38Z</time>
      </trkpt>
      <trkpt lat="42.690707" lon="-0.037209">
        <ele>2814.8</ele>
        <time>2013-08-31T06:28:59Z</time>
      </trkpt>
      <trkpt lat="42.690754" lon="-0.037308">
        <ele>2819.7</ele>
        <time>2013-08-31T06:29:23Z</time>
      </trkpt>
      <trkpt lat="42.690730" lon="-0.037455">
        <ele>2821.5</ele>
        <time>2013-08-31T06:29:37Z</time>
      </trkpt>
      <trkpt lat="42.690716" lon="-0.037613">
        <ele>2823.0</ele>
        <time>2013-08-31T06:29:55Z</time>
      </trkpt>
      <trkpt lat="42.690716" lon="-0.037741">
        <ele>2823.3</ele>
        <time>2013-08-31T06:30:06Z</time>
      </trkpt>
      <trkpt lat="42.690725" lon="-0.037871">
        <ele>2823.6</ele>
        <time>2013-08-31T06:30:18Z</time>
      </trkpt>
      <trkpt lat="42.690715" lon="-0.037972">
        <ele>2826.5</ele>
        <time>2013-08-31T06:30:34Z</time>
      </trkpt>
      <trkpt lat="42.690696" lon="-0.038079">
        <ele>2825.9</ele>
        <time>2013-08-31T06:30:53Z</time>
      </trkpt>
      <trkpt lat="42.690672" lon="-0.038225">
        <ele>2824.8</ele>
        <time>2013-08-31T06:31:04Z</time>
      </trkpt>
      <trkpt lat="42.690599" lon="-0.038349">
        <ele>2823.7</ele>
        <time>2013-08-31T06:31:13Z</time>
      </trkpt>
      <trkpt lat="42.690565" lon="-0.038472">
        <ele>2823.8</ele>
        <time>2013-08-31T06:31:22Z</time>
      </trkpt>
      <trkpt lat="42.690578" lon="-0.038615">
        <ele>2824.4</ele>
        <time>2013-08-31T06:31:33Z</time>
      </trkpt>
      <trkpt lat="42.690560" lon="-0.038751">
        <ele>2826.2</ele>
        <time>2013-08-31T06:31:43Z</time>
      </trkpt>
      <trkpt lat="42.690551" lon="-0.038895">
        <ele>2829.2</ele>
        <time>2013-08-31T06:31:53Z</time>
      </trkpt>
      <trkpt lat="42.690565" lon="-0.039024">
        <ele>2830.5</ele>
        <time>2013-08-31T06:32:04Z</time>
      </trkpt>
      <trkpt lat="42.690573" lon="-0.039159">
        <ele>2831.9</ele>
        <time>2013-08-31T06:32:16Z</time>
      </trkpt>
      <trkpt lat="42.690547" lon="-0.039289">
        <ele>2833.7</ele>
        <time>2013-08-31T06:32:27Z</time>
      </trkpt>
      <trkpt lat="42.690577" lon="-0.039428">
        <ele>2836.7</ele>
        <time>2013-08-31T06:32:42Z</time>
      </trkpt>
      <trkpt lat="42.690590" lon="-0.039593">
        <ele>2839.4</ele>
        <time>2013-08-31T06:32:59Z</time>
      </trkpt>
      <trkpt lat="42.690597" lon="-0.039731">
        <ele>2843.7</ele>
        <time>2013-08-31T06:33:17Z</time>
      </trkpt>
      <trkpt lat="42.690638" lon="-0.039819">
        <ele>2846.7</ele>
        <time>2013-08-31T06:33:36Z</time>
      </trkpt>
      <trkpt lat="42.690683" lon="-0.039937">
        <ele>2850.2</ele>
        <time>2013-08-31T06:33:56Z</time>
      </trkpt>
      <trkpt lat="42.690709" lon="-0.040039">
        <ele>2854.0</ele>
        <time>2013-08-31T06:34:17Z</time>
      </trkpt>
      <trkpt lat="42.690753" lon="-0.040165">
        <ele>2856.7</ele>
        <time>2013-08-31T06:34:33Z</time>
      </trkpt>
      <trkpt lat="42.690784" lon="-0.040158">
        <ele>2860.1</ele>
        <time>2013-08-31T06:35:10Z</time>
      </trkpt>
      <trkpt lat="42.690855" lon="-0.040200">
        <ele>2860.9</ele>
        <time>2013-08-31T06:35:30Z</time>
      </trkpt>
      <trkpt lat="42.690939" lon="-0.040311">
        <ele>2864.4</ele>
        <time>2013-08-31T06:35:44Z</time>
      </trkpt>
      <trkpt lat="42.691014" lon="-0.040403">
        <ele>2866.2</ele>
        <time>2013-08-31T06:35:57Z</time>
      </trkpt>
      <trkpt lat="42.691086" lon="-0.040497">
        <ele>2869.6</ele>
        <time>2013-08-31T06:36:13Z</time>
      </trkpt>
      <trkpt lat="42.691166" lon="-0.040587">
        <ele>2872.3</ele>
        <time>2013-08-31T06:36:31Z</time>
      </trkpt>
      <trkpt lat="42.691239" lon="-0.040667">
        <ele>2874.9</ele>
        <time>2013-08-31T06:36:47Z</time>
      </trkpt>
      <trkpt lat="42.691323" lon="-0.040738">
        <ele>2878.1</ele>
        <time>2013-08-31T06:37:11Z</time>
      </trkpt>
      <trkpt lat="42.691375" lon="-0.040888">
        <ele>2881.9</ele>
        <time>2013-08-31T06:37:28Z</time>
      </trkpt>
      <trkpt lat="42.691404" lon="-0.041012">
        <ele>2885.7</ele>
        <time>2013-08-31T06:37:42Z</time>
      </trkpt>
      <trkpt lat="42.691419" lon="-0.041140">
        <ele>2890.5</ele>
        <time>2013-08-31T06:37:56Z</time>
      </trkpt>
      <trkpt lat="42.691444" lon="-0.041258">
        <ele>2895.1</ele>
        <time>2013-08-31T06:38:11Z</time>
      </trkpt>
      <trkpt lat="42.691516" lon="-0.041326">
        <ele>2898.4</ele>
        <time>2013-08-31T06:38:26Z</time>
      </trkpt>
      <trkpt lat="42.691535" lon="-0.041449">
        <ele>2901.0</ele>
        <time>2013-08-31T06:38:38Z</time>
      </trkpt>
      <trkpt lat="42.691542" lon="-0.041589">
        <ele>2902.1</ele>
        <time>2013-08-31T06:38:51Z</time>
      </trkpt>
      <trkpt lat="42.691541" lon="-0.041710">
        <ele>2903.4</ele>
        <time>2013-08-31T06:39:37Z</time>
      </trkpt>
      <trkpt lat="42.691580" lon="-0.041821">
        <ele>2907.7</ele>
        <time>2013-08-31T06:39:51Z</time>
      </trkpt>
      <trkpt lat="42.691605" lon="-0.041970">
        <ele>2912.6</ele>
        <time>2013-08-31T06:40:04Z</time>
      </trkpt>
      <trkpt lat="42.691588" lon="-0.042087">
        <ele>2914.1</ele>
        <time>2013-08-31T06:40:23Z</time>
      </trkpt>
      <trkpt lat="42.691598" lon="-0.042218">
        <ele>2914.7</ele>
        <time>2013-08-31T06:40:37Z</time>
      </trkpt>
      <trkpt lat="42.691554" lon="-0.042331">
        <ele>2916.9</ele>
        <time>2013-08-31T06:40:57Z</time>
      </trkpt>
      <trkpt lat="42.691580" lon="-0.042425">
        <ele>2924.5</ele>
        <time>2013-08-31T06:41:40Z</time>
      </trkpt>
      <trkpt lat="42.691570" lon="-0.042499">
        <ele>2923.0</ele>
        <time>2013-08-31T06:43:23Z</time>
      </trkpt>
      <trkpt lat="42.691610" lon="-0.042583">
        <ele>2922.6</ele>
        <time>2013-08-31T06:43:59Z</time>
      </trkpt>
      <trkpt lat="42.691634" lon="-0.042701">
        <ele>2925.4</ele>
        <time>2013-08-31T06:44:15Z</time>
      </trkpt>
      <trkpt lat="42.691625" lon="-0.042823">
        <ele>2926.0</ele>
        <time>2013-08-31T06:44:36Z</time>
      </trkpt>
      <trkpt lat="42.691654" lon="-0.042930">
        <ele>2927.5</ele>
        <time>2013-08-31T06:45:02Z</time>
      </trkpt>
      <trkpt lat="42.691665" lon="-0.043053">
        <ele>2927.2</ele>
        <time>2013-08-31T06:45:31Z</time>
      </trkpt>
      <trkpt lat="42.691648" lon="-0.043188">
        <ele>2928.4</ele>
        <time>2013-08-31T06:45:40Z</time>
      </trkpt>
      <trkpt lat="42.691647" lon="-0.043300">
        <ele>2928.8</ele>
        <time>2013-08-31T06:45:51Z</time>
      </trkpt>
      <trkpt lat="42.691690" lon="-0.043422">
        <ele>2929.9</ele>
        <time>2013-08-31T06:46:07Z</time>
      </trkpt>
      <trkpt lat="42.691734" lon="-0.043522">
        <ele>2932.7</ele>
        <time>2013-08-31T06:46:27Z</time>
      </trkpt>
      <trkpt lat="42.691821" lon="-0.043581">
        <ele>2933.2</ele>
        <time>2013-08-31T06:46:41Z</time>
      </trkpt>
      <trkpt lat="42.691881" lon="-0.043698">
        <ele>2934.7</ele>
        <time>2013-08-31T06:46:52Z</time>
      </trkpt>
      <trkpt lat="42.691940" lon="-0.043795">
        <ele>2937.2</ele>
        <time>2013-08-31T06:47:02Z</time>
      </trkpt>
      <trkpt lat="42.692003" lon="-0.043893">
        <ele>2939.1</ele>
        <time>2013-08-31T06:47:14Z</time>
      </trkpt>
      <trkpt lat="42.692053" lon="-0.044022">
        <ele>2941.1</ele>
        <time>2013-08-31T06:47:27Z</time>
      </trkpt>
      <trkpt lat="42.692117" lon="-0.044128">
        <ele>2943.1</ele>
        <time>2013-08-31T06:47:40Z</time>
      </trkpt>
      <trkpt lat="42.692150" lon="-0.044246">
        <ele>2944.7</ele>
        <time>2013-08-31T06:47:49Z</time>
      </trkpt>
      <trkpt lat="42.692185" lon="-0.044361">
        <ele>2945.7</ele>
        <time>2013-08-31T06:48:01Z</time>
      </trkpt>
      <trkpt lat="42.692244" lon="-0.044475">
        <ele>2948.3</ele>
        <time>2013-08-31T06:48:15Z</time>
      </trkpt>
      <trkpt lat="42.692283" lon="-0.044589">
        <ele>2951.4</ele>
        <time>2013-08-31T06:48:33Z</time>
      </trkpt>
      <trkpt lat="42.692334" lon="-0.044696">
        <ele>2954.0</ele>
        <time>2013-08-31T06:48:49Z</time>
      </trkpt>
      <trkpt lat="42.692390" lon="-0.044806">
        <ele>2956.8</ele>
        <time>2013-08-31T06:49:04Z</time>
      </trkpt>
      <trkpt lat="42.692430" lon="-0.044933">
        <ele>2958.2</ele>
        <time>2013-08-31T06:49:17Z</time>
      </trkpt>
      <trkpt lat="42.692472" lon="-0.045044">
        <ele>2960.1</ele>
        <time>2013-08-31T06:49:29Z</time>
      </trkpt>
      <trkpt lat="42.692506" lon="-0.045171">
        <ele>2962.9</ele>
        <time>2013-08-31T06:49:41Z</time>
      </trkpt>
      <trkpt lat="42.692566" lon="-0.045277">
        <ele>2963.6</ele>
        <time>2013-08-31T06:49:56Z</time>
      </trkpt>
      <trkpt lat="42.692638" lon="-0.045370">
        <ele>2964.9</ele>
        <time>2013-08-31T06:50:09Z</time>
      </trkpt>
      <trkpt lat="42.692720" lon="-0.045437">
        <ele>2966.6</ele>
        <time>2013-08-31T06:50:20Z</time>
      </trkpt>
      <trkpt lat="42.692775" lon="-0.045537">
        <ele>2966.0</ele>
        <time>2013-08-31T06:50:32Z</time>
      </trkpt>
      <trkpt lat="42.692771" lon="-0.045654">
        <ele>2969.3</ele>
        <time>2013-08-31T06:50:45Z</time>
      </trkpt>
      <trkpt lat="42.692800" lon="-0.045768">
        <ele>2972.4</ele>
        <time>2013-08-31T06:50:58Z</time>
      </trkpt>
      <trkpt lat="42.692863" lon="-0.045812">
        <ele>2973.8</ele>
        <time>2013-08-31T06:51:14Z</time>
      </trkpt>
      <trkpt lat="42.692903" lon="-0.045914">
        <ele>2979.1</ele>
        <time>2013-08-31T06:51:33Z</time>
      </trkpt>
      <trkpt lat="42.692981" lon="-0.045971">
        <ele>2980.7</ele>
        <time>2013-08-31T06:51:48Z</time>
      </trkpt>
      <trkpt lat="42.693026" lon="-0.046072">
        <ele>2982.0</ele>
        <time>2013-08-31T06:52:06Z</time>
      </trkpt>
      <trkpt lat="42.693053" lon="-0.046138">
        <ele>2986.8</ele>
        <time>2013-08-31T06:52:27Z</time>
      </trkpt>
      <trkpt lat="42.693104" lon="-0.046223">
        <ele>2990.3</ele>
        <time>2013-08-31T06:52:44Z</time>
      </trkpt>
      <trkpt lat="42.693152" lon="-0.046323">
        <ele>2995.6</ele>
        <time>2013-08-31T06:53:07Z</time>
      </trkpt>
      <trkpt lat="42.693187" lon="-0.046438">
        <ele>2999.1</ele>
        <time>2013-08-31T06:53:28Z</time>
      </trkpt>
      <trkpt lat="42.693231" lon="-0.046539">
        <ele>3001.8</ele>
        <time>2013-08-31T06:53:48Z</time>
      </trkpt>
      <trkpt lat="42.693242" lon="-0.046646">
        <ele>3006.8</ele>
        <time>2013-08-31T06:54:09Z</time>
      </trkpt>
      <trkpt lat="42.693285" lon="-0.046758">
        <ele>3010.0</ele>
        <time>2013-08-31T06:54:29Z</time>
      </trkpt>
      <trkpt lat="42.693341" lon="-0.046879">
        <ele>3011.1</ele>
        <time>2013-08-31T06:54:43Z</time>
      </trkpt>
      <trkpt lat="42.693356" lon="-0.046987">
        <ele>3015.7</ele>
        <time>2013-08-31T06:55:02Z</time>
      </trkpt>
      <trkpt lat="42.693400" lon="-0.047053">
        <ele>3020.4</ele>
        <time>2013-08-31T06:55:21Z</time>
      </trkpt>
      <trkpt lat="42.693449" lon="-0.047146">
        <ele>3022.5</ele>
        <time>2013-08-31T06:56:36Z</time>
      </trkpt>
      <trkpt lat="42.693514" lon="-0.047221">
        <ele>3025.4</ele>
        <time>2013-08-31T06:56:56Z</time>
      </trkpt>
      <trkpt lat="42.693548" lon="-0.047317">
        <ele>3030.2</ele>
        <time>2013-08-31T06:57:13Z</time>
      </trkpt>
      <trkpt lat="42.693614" lon="-0.047390">
        <ele>3032.8</ele>
        <time>2013-08-31T06:57:31Z</time>
      </trkpt>
      <trkpt lat="42.693682" lon="-0.047481">
        <ele>3033.5</ele>
        <time>2013-08-31T06:57:51Z</time>
      </trkpt>
      <trkpt lat="42.693654" lon="-0.047555">
        <ele>3036.1</ele>
        <time>2013-08-31T06:58:13Z</time>
      </trkpt>
      <trkpt lat="42.693607" lon="-0.047657">
        <ele>3040.8</ele>
        <time>2013-08-31T06:58:31Z</time>
      </trkpt>
      <trkpt lat="42.693608" lon="-0.047744">
        <ele>3042.1</ele>
        <time>2013-08-31T06:58:49Z</time>
      </trkpt>
      <trkpt lat="42.693652" lon="-0.047801">
        <ele>3045.1</ele>
        <time>2013-08-31T06:59:15Z</time>
      </trkpt>
      <trkpt lat="42.693679" lon="-0.047885">
        <ele>3048.9</ele>
        <time>2013-08-31T06:59:35Z</time>
      </trkpt>
      <trkpt lat="42.693719" lon="-0.047956">
        <ele>3052.6</ele>
        <time>2013-08-31T06:59:59Z</time>
      </trkpt>
      <trkpt lat="42.693762" lon="-0.048047">
        <ele>3057.3</ele>
        <time>2013-08-31T07:00:23Z</time>
      </trkpt>
      <trkpt lat="42.693771" lon="-0.048169">
        <ele>3059.6</ele>
        <time>2013-08-31T07:00:42Z</time>
      </trkpt>
      <trkpt lat="42.693799" lon="-0.048269">
        <ele>3063.9</ele>
        <time>2013-08-31T07:01:05Z</time>
      </trkpt>
      <trkpt lat="42.693804" lon="-0.048403">
        <ele>3066.7</ele>
        <time>2013-08-31T07:01:23Z</time>
      </trkpt>
      <trkpt lat="42.693801" lon="-0.048522">
        <ele>3068.4</ele>
        <time>2013-08-31T07:01:43Z</time>
      </trkpt>
      <trkpt lat="42.693816" lon="-0.048670">
        <ele>3070.6</ele>
        <time>2013-08-31T07:02:01Z</time>
      </trkpt>
      <trkpt lat="42.693834" lon="-0.048799">
        <ele>3073.7</ele>
        <time>2013-08-31T07:02:18Z</time>
      </trkpt>
      <trkpt lat="42.693829" lon="-0.048944">
        <ele>3076.5</ele>
        <time>2013-08-31T07:02:48Z</time>
      </trkpt>
      <trkpt lat="42.693833" lon="-0.049071">
        <ele>3078.2</ele>
        <time>2013-08-31T07:03:05Z</time>
      </trkpt>
      <trkpt lat="42.693828" lon="-0.049191">
        <ele>3081.2</ele>
        <time>2013-08-31T07:03:28Z</time>
      </trkpt>
      <trkpt lat="42.693817" lon="-0.049322">
        <ele>3083.9</ele>
        <time>2013-08-31T07:03:46Z</time>
      </trkpt>
      <trkpt lat="42.693819" lon="-0.049439">
        <ele>3087.0</ele>
        <time>2013-08-31T07:04:03Z</time>
      </trkpt>
      <trkpt lat="42.693819" lon="-0.049573">
        <ele>3090.5</ele>
        <time>2013-08-31T07:04:21Z</time>
      </trkpt>
      <trkpt lat="42.693821" lon="-0.049692">
        <ele>3094.2</ele>
        <time>2013-08-31T07:04:39Z</time>
      </trkpt>
      <trkpt lat="42.693797" lon="-0.049824">
        <ele>3096.1</ele>
        <time>2013-08-31T07:04:54Z</time>
      </trkpt>
      <trkpt lat="42.693764" lon="-0.049962">
        <ele>3099.7</ele>
        <time>2013-08-31T07:05:12Z</time>
      </trkpt>
      <trkpt lat="42.693723" lon="-0.050088">
        <ele>3101.6</ele>
        <time>2013-08-31T07:05:26Z</time>
      </trkpt>
      <trkpt lat="42.693707" lon="-0.050217">
        <ele>3104.3</ele>
        <time>2013-08-31T07:05:42Z</time>
      </trkpt>
      <trkpt lat="42.693710" lon="-0.050345">
        <ele>3107.3</ele>
        <time>2013-08-31T07:06:01Z</time>
      </trkpt>
      <trkpt lat="42.693704" lon="-0.050460">
        <ele>3111.5</ele>
        <time>2013-08-31T07:06:22Z</time>
      </trkpt>
      <trkpt lat="42.693741" lon="-0.050540">
        <ele>3115.4</ele>
        <time>2013-08-31T07:07:08Z</time>
      </trkpt>
      <trkpt lat="42.693699" lon="-0.050665">
        <ele>3118.1</ele>
        <time>2013-08-31T07:07:27Z</time>
      </trkpt>
      <trkpt lat="42.693666" lon="-0.050803">
        <ele>3121.5</ele>
        <time>2013-08-31T07:07:44Z</time>
      </trkpt>
      <trkpt lat="42.693643" lon="-0.050921">
        <ele>3123.8</ele>
        <time>2013-08-31T07:07:57Z</time>
      </trkpt>
      <trkpt lat="42.693642" lon="-0.051052">
        <ele>3126.4</ele>
        <time>2013-08-31T07:08:14Z</time>
      </trkpt>
      <trkpt lat="42.693685" lon="-0.051137">
        <ele>3129.5</ele>
        <time>2013-08-31T07:08:33Z</time>
      </trkpt>
      <trkpt lat="42.693695" lon="-0.051205">
        <ele>3134.3</ele>
        <time>2013-08-31T07:15:15Z</time>
        <name>Taillon</name>
      </trkpt>
      <trkpt lat="42.693695" lon="-0.051216">
        <ele>3137.7</ele>
        <time>2013-08-31T07:26:38Z</time>
      </trkpt>
      <trkpt lat="42.693665" lon="-0.051287">
        <ele>3137.0</ele>
        <time>2013-08-31T07:27:47Z</time>
      </trkpt>
      <trkpt lat="42.693643" lon="-0.051390">
        <ele>3137.0</ele>
        <time>2013-08-31T07:31:16Z</time>
      </trkpt>
      <trkpt lat="42.693571" lon="-0.051475">
        <ele>3136.6</ele>
        <time>2013-08-31T07:31:27Z</time>
      </trkpt>
      <trkpt lat="42.693501" lon="-0.051568">
        <ele>3133.2</ele>
        <time>2013-08-31T07:31:40Z</time>
      </trkpt>
      <trkpt lat="42.693424" lon="-0.051622">
        <ele>3130.7</ele>
        <time>2013-08-31T07:31:57Z</time>
      </trkpt>
      <trkpt lat="42.693368" lon="-0.051732">
        <ele>3127.8</ele>
        <time>2013-08-31T07:32:09Z</time>
      </trkpt>
      <trkpt lat="42.693322" lon="-0.051842">
        <ele>3124.9</ele>
        <time>2013-08-31T07:32:19Z</time>
      </trkpt>
      <trkpt lat="42.693275" lon="-0.051941">
        <ele>3122.0</ele>
        <time>2013-08-31T07:32:32Z</time>
      </trkpt>
      <trkpt lat="42.693253" lon="-0.052066">
        <ele>3119.0</ele>
        <time>2013-08-31T07:32:45Z</time>
      </trkpt>
      <trkpt lat="42.693195" lon="-0.052186">
        <ele>3116.6</ele>
        <time>2013-08-31T07:32:55Z</time>
      </trkpt>
      <trkpt lat="42.693163" lon="-0.052307">
        <ele>3115.3</ele>
        <time>2013-08-31T07:33:05Z</time>
      </trkpt>
      <trkpt lat="42.693124" lon="-0.052379">
        <ele>3112.5</ele>
        <time>2013-08-31T07:33:19Z</time>
      </trkpt>
      <trkpt lat="42.693131" lon="-0.052493">
        <ele>3110.2</ele>
        <time>2013-08-31T07:33:28Z</time>
      </trkpt>
      <trkpt lat="42.693116" lon="-0.052613">
        <ele>3109.9</ele>
        <time>2013-08-31T07:33:51Z</time>
      </trkpt>
      <trkpt lat="42.693075" lon="-0.052731">
        <ele>3109.2</ele>
        <time>2013-08-31T07:34:03Z</time>
      </trkpt>
      <trkpt lat="42.693054" lon="-0.052861">
        <ele>3110.4</ele>
        <time>2013-08-31T07:34:13Z</time>
      </trkpt>
      <trkpt lat="42.692982" lon="-0.052885">
        <ele>3108.8</ele>
        <time>2013-08-31T07:34:40Z</time>
      </trkpt>
      <trkpt lat="42.692929" lon="-0.052982">
        <ele>3104.9</ele>
        <time>2013-08-31T07:34:57Z</time>
      </trkpt>
      <trkpt lat="42.692845" lon="-0.053043">
        <ele>3102.2</ele>
        <time>2013-08-31T07:35:23Z</time>
      </trkpt>
      <trkpt lat="42.692780" lon="-0.053098">
        <ele>3098.7</ele>
        <time>2013-08-31T07:35:40Z</time>
      </trkpt>
      <trkpt lat="42.692726" lon="-0.053198">
        <ele>3095.3</ele>
        <time>2013-08-31T07:35:53Z</time>
      </trkpt>
      <trkpt lat="42.692692" lon="-0.053295">
        <ele>3093.8</ele>
        <time>2013-08-31T07:36:08Z</time>
      </trkpt>
      <trkpt lat="42.692647" lon="-0.053410">
        <ele>3094.4</ele>
        <time>2013-08-31T07:36:18Z</time>
      </trkpt>
      <trkpt lat="42.692594" lon="-0.053516">
        <ele>3095.0</ele>
        <time>2013-08-31T07:36:28Z</time>
      </trkpt>
      <trkpt lat="42.692522" lon="-0.053609">
        <ele>3095.3</ele>
        <time>2013-08-31T07:36:40Z</time>
      </trkpt>
      <trkpt lat="42.692446" lon="-0.053677">
        <ele>3094.7</ele>
        <time>2013-08-31T07:36:52Z</time>
      </trkpt>
      <trkpt lat="42.692371" lon="-0.053780">
        <ele>3093.8</ele>
        <time>2013-08-31T07:37:03Z</time>
      </trkpt>
      <trkpt lat="42.692305" lon="-0.053874">
        <ele>3094.2</ele>
        <time>2013-08-31T07:37:14Z</time>
      </trkpt>
      <trkpt lat="42.692244" lon="-0.053973">
        <ele>3094.1</ele>
        <time>2013-08-31T07:37:52Z</time>
      </trkpt>
      <trkpt lat="42.692231" lon="-0.054033">
        <ele>3092.2</ele>
        <time>2013-08-31T07:38:35Z</time>
      </trkpt>
      <trkpt lat="42.692144" lon="-0.053970">
        <ele>3091.9</ele>
        <time>2013-08-31T07:38:45Z</time>
      </trkpt>
      <trkpt lat="42.692048" lon="-0.053964">
        <ele>3089.7</ele>
        <time>2013-08-31T07:38:55Z</time>
      </trkpt>
      <trkpt lat="42.691988" lon="-0.053893">
        <ele>3086.1</ele>
        <time>2013-08-31T07:39:05Z</time>
      </trkpt>
      <trkpt lat="42.691920" lon="-0.053852">
        <ele>3082.6</ele>
        <time>2013-08-31T07:39:16Z</time>
      </trkpt>
      <trkpt lat="42.691885" lon="-0.053857">
        <ele>3072.5</ele>
        <time>2013-08-31T07:41:18Z</time>
      </trkpt>
      <trkpt lat="42.691812" lon="-0.053922">
        <ele>3072.5</ele>
        <time>2013-08-31T07:41:41Z</time>
      </trkpt>
      <trkpt lat="42.691753" lon="-0.053998">
        <ele>3073.5</ele>
        <time>2013-08-31T07:41:51Z</time>
      </trkpt>
      <trkpt lat="42.691747" lon="-0.054001">
        <ele>3072.0</ele>
        <time>2013-08-31T07:42:45Z</time>
      </trkpt>
      <trkpt lat="42.691666" lon="-0.053959">
        <ele>3069.9</ele>
        <time>2013-08-31T07:43:08Z</time>
      </trkpt>
      <trkpt lat="42.691591" lon="-0.054008">
        <ele>3067.7</ele>
        <time>2013-08-31T07:43:23Z</time>
      </trkpt>
      <trkpt lat="42.691530" lon="-0.054041">
        <ele>3065.0</ele>
        <time>2013-08-31T07:43:37Z</time>
      </trkpt>
      <trkpt lat="42.691459" lon="-0.054128">
        <ele>3062.6</ele>
        <time>2013-08-31T07:43:47Z</time>
      </trkpt>
      <trkpt lat="42.691389" lon="-0.054164">
        <ele>3060.4</ele>
        <time>2013-08-31T07:44:17Z</time>
      </trkpt>
      <trkpt lat="42.691293" lon="-0.054194">
        <ele>3060.9</ele>
        <time>2013-08-31T07:44:30Z</time>
      </trkpt>
      <trkpt lat="42.691222" lon="-0.054255">
        <ele>3058.8</ele>
        <time>2013-08-31T07:44:43Z</time>
      </trkpt>
      <trkpt lat="42.691147" lon="-0.054185">
        <ele>3053.1</ele>
        <time>2013-08-31T07:44:56Z</time>
      </trkpt>
      <trkpt lat="42.691062" lon="-0.054190">
        <ele>3051.3</ele>
        <time>2013-08-31T07:45:09Z</time>
      </trkpt>
      <trkpt lat="42.690974" lon="-0.054259">
        <ele>3051.8</ele>
        <time>2013-08-31T07:45:24Z</time>
      </trkpt>
      <trkpt lat="42.690890" lon="-0.054269">
        <ele>3050.2</ele>
        <time>2013-08-31T07:45:36Z</time>
        <name>Breche 3051m</name>
      </trkpt>
      <trkpt lat="42.690819" lon="-0.054351">
        <ele>3049.7</ele>
        <time>2013-08-31T07:45:58Z</time>
      </trkpt>
      <trkpt lat="42.690787" lon="-0.054371">
        <ele>3049.0</ele>
        <time>2013-08-31T07:47:15Z</time>
      </trkpt>
      <trkpt lat="42.690860" lon="-0.054380">
        <ele>3045.8</ele>
        <time>2013-08-31T07:47:40Z</time>
      </trkpt>
      <trkpt lat="42.690970" lon="-0.054378">
        <ele>3043.2</ele>
        <time>2013-08-31T07:47:51Z</time>
      </trkpt>
      <trkpt lat="42.691004" lon="-0.054398">
        <ele>3038.9</ele>
        <time>2013-08-31T07:48:27Z</time>
      </trkpt>
      <trkpt lat="42.691014" lon="-0.054331">
        <ele>3039.6</ele>
        <time>2013-08-31T07:49:56Z</time>
      </trkpt>
      <trkpt lat="42.691105" lon="-0.054357">
        <ele>3037.3</ele>
        <time>2013-08-31T07:50:14Z</time>
      </trkpt>
      <trkpt lat="42.691221" lon="-0.054351">
        <ele>3036.3</ele>
        <time>2013-08-31T07:50:24Z</time>
      </trkpt>
      <trkpt lat="42.691310" lon="-0.054390">
        <ele>3036.2</ele>
        <time>2013-08-31T07:50:34Z</time>
      </trkpt>
      <trkpt lat="42.691389" lon="-0.054465">
        <ele>3035.4</ele>
        <time>2013-08-31T07:50:44Z</time>
      </trkpt>
      <trkpt lat="42.691408" lon="-0.054461">
        <ele>3037.0</ele>
        <time>2013-08-31T07:51:39Z</time>
      </trkpt>
      <trkpt lat="42.691517" lon="-0.054380">
        <ele>3033.7</ele>
        <time>2013-08-31T07:51:54Z</time>
      </trkpt>
      <trkpt lat="42.691601" lon="-0.054384">
        <ele>3033.7</ele>
        <time>2013-08-31T07:52:11Z</time>
      </trkpt>
      <trkpt lat="42.691708" lon="-0.054375">
        <ele>3032.0</ele>
        <time>2013-08-31T07:52:25Z</time>
      </trkpt>
      <trkpt lat="42.691806" lon="-0.054443">
        <ele>3032.3</ele>
        <time>2013-08-31T07:52:47Z</time>
      </trkpt>
      <trkpt lat="42.691850" lon="-0.054550">
        <ele>3029.5</ele>
        <time>2013-08-31T07:53:15Z</time>
      </trkpt>
      <trkpt lat="42.691875" lon="-0.054650">
        <ele>3026.6</ele>
        <time>2013-08-31T07:53:37Z</time>
      </trkpt>
      <trkpt lat="42.691937" lon="-0.054735">
        <ele>3026.4</ele>
        <time>2013-08-31T07:53:51Z</time>
      </trkpt>
      <trkpt lat="42.691978" lon="-0.054840">
        <ele>3024.0</ele>
        <time>2013-08-31T07:54:03Z</time>
      </trkpt>
      <trkpt lat="42.692035" lon="-0.054954">
        <ele>3022.3</ele>
        <time>2013-08-31T07:54:18Z</time>
      </trkpt>
      <trkpt lat="42.692102" lon="-0.055062">
        <ele>3022.4</ele>
        <time>2013-08-31T07:54:29Z</time>
      </trkpt>
      <trkpt lat="42.692165" lon="-0.055179">
        <ele>3018.9</ele>
        <time>2013-08-31T07:55:12Z</time>
      </trkpt>
      <trkpt lat="42.692226" lon="-0.055269">
        <ele>3016.3</ele>
        <time>2013-08-31T07:55:29Z</time>
      </trkpt>
      <trkpt lat="42.692286" lon="-0.055343">
        <ele>3011.4</ele>
        <time>2013-08-31T07:55:45Z</time>
      </trkpt>
      <trkpt lat="42.692250" lon="-0.055449">
        <ele>3008.7</ele>
        <time>2013-08-31T07:55:57Z</time>
      </trkpt>
      <trkpt lat="42.692289" lon="-0.055541">
        <ele>3004.3</ele>
        <time>2013-08-31T07:56:14Z</time>
      </trkpt>
      <trkpt lat="42.692294" lon="-0.055655">
        <ele>3001.8</ele>
        <time>2013-08-31T07:56:25Z</time>
      </trkpt>
      <trkpt lat="42.692305" lon="-0.055757">
        <ele>2997.7</ele>
        <time>2013-08-31T07:56:55Z</time>
      </trkpt>
      <trkpt lat="42.692247" lon="-0.055843">
        <ele>2994.0</ele>
        <time>2013-08-31T07:57:11Z</time>
      </trkpt>
      <trkpt lat="42.692183" lon="-0.055888">
        <ele>2990.0</ele>
        <time>2013-08-31T07:57:26Z</time>
      </trkpt>
      <trkpt lat="42.692225" lon="-0.055963">
        <ele>2984.9</ele>
        <time>2013-08-31T07:57:55Z</time>
      </trkpt>
      <trkpt lat="42.692273" lon="-0.056071">
        <ele>2981.7</ele>
        <time>2013-08-31T07:58:10Z</time>
      </trkpt>
      <trkpt lat="42.692238" lon="-0.056163">
        <ele>2978.8</ele>
        <time>2013-08-31T07:58:23Z</time>
      </trkpt>
      <trkpt lat="42.692234" lon="-0.056272">
        <ele>2974.7</ele>
        <time>2013-08-31T07:58:39Z</time>
      </trkpt>
      <trkpt lat="42.692224" lon="-0.056311">
        <ele>2972.8</ele>
        <time>2013-08-31T07:59:12Z</time>
      </trkpt>
      <trkpt lat="42.692279" lon="-0.056423">
        <ele>2970.7</ele>
        <time>2013-08-31T07:59:23Z</time>
      </trkpt>
      <trkpt lat="42.692318" lon="-0.056498">
        <ele>2970.2</ele>
        <time>2013-08-31T07:59:45Z</time>
      </trkpt>
      <trkpt lat="42.692312" lon="-0.056579">
        <ele>2965.2</ele>
        <time>2013-08-31T07:59:58Z</time>
      </trkpt>
      <trkpt lat="42.692328" lon="-0.056683">
        <ele>2960.6</ele>
        <time>2013-08-31T08:00:14Z</time>
      </trkpt>
      <trkpt lat="42.692358" lon="-0.056785">
        <ele>2956.6</ele>
        <time>2013-08-31T08:00:28Z</time>
      </trkpt>
      <trkpt lat="42.692395" lon="-0.056888">
        <ele>2953.6</ele>
        <time>2013-08-31T08:00:40Z</time>
      </trkpt>
      <trkpt lat="42.692437" lon="-0.056993">
        <ele>2950.9</ele>
        <time>2013-08-31T08:00:50Z</time>
      </trkpt>
      <trkpt lat="42.692512" lon="-0.057071">
        <ele>2949.2</ele>
        <time>2013-08-31T08:01:06Z</time>
      </trkpt>
      <trkpt lat="42.692575" lon="-0.057136">
        <ele>2951.1</ele>
        <time>2013-08-31T08:01:31Z</time>
      </trkpt>
      <trkpt lat="42.692543" lon="-0.057179">
        <ele>2947.9</ele>
        <time>2013-08-31T08:01:59Z</time>
      </trkpt>
      <trkpt lat="42.692582" lon="-0.057296">
        <ele>2943.3</ele>
        <time>2013-08-31T08:02:29Z</time>
      </trkpt>
      <trkpt lat="42.692561" lon="-0.057252">
        <ele>2945.1</ele>
        <time>2013-08-31T08:02:49Z</time>
      </trkpt>
      <trkpt lat="42.692600" lon="-0.057333">
        <ele>2945.6</ele>
        <time>2013-08-31T08:03:23Z</time>
      </trkpt>
      <trkpt lat="42.692667" lon="-0.057439">
        <ele>2945.2</ele>
        <time>2013-08-31T08:03:36Z</time>
      </trkpt>
      <trkpt lat="42.692735" lon="-0.057545">
        <ele>2944.6</ele>
        <time>2013-08-31T08:03:47Z</time>
      </trkpt>
      <trkpt lat="42.692800" lon="-0.057641">
        <ele>2943.2</ele>
        <time>2013-08-31T08:04:00Z</time>
      </trkpt>
      <trkpt lat="42.692850" lon="-0.057752">
        <ele>2941.3</ele>
        <time>2013-08-31T08:04:08Z</time>
      </trkpt>
      <trkpt lat="42.692914" lon="-0.057843">
        <ele>2939.6</ele>
        <time>2013-08-31T08:04:16Z</time>
      </trkpt>
      <trkpt lat="42.692975" lon="-0.057947">
        <ele>2939.6</ele>
        <time>2013-08-31T08:04:24Z</time>
      </trkpt>
      <trkpt lat="42.693028" lon="-0.058058">
        <ele>2941.0</ele>
        <time>2013-08-31T08:04:36Z</time>
      </trkpt>
      <trkpt lat="42.693081" lon="-0.058165">
        <ele>2942.2</ele>
        <time>2013-08-31T08:04:49Z</time>
      </trkpt>
      <trkpt lat="42.693141" lon="-0.058251">
        <ele>2942.8</ele>
        <time>2013-08-31T08:05:10Z</time>
      </trkpt>
      <trkpt lat="42.693185" lon="-0.058375">
        <ele>2947.9</ele>
        <time>2013-08-31T08:05:27Z</time>
      </trkpt>
      <trkpt lat="42.693218" lon="-0.058435">
        <ele>2949.6</ele>
        <time>2013-08-31T08:05:49Z</time>
      </trkpt>
      <trkpt lat="42.693261" lon="-0.058545">
        <ele>2949.8</ele>
        <time>2013-08-31T08:06:16Z</time>
      </trkpt>
      <trkpt lat="42.693269" lon="-0.058670">
        <ele>2943.1</ele>
        <time>2013-08-31T08:07:34Z</time>
      </trkpt>
      <trkpt lat="42.693267" lon="-0.058653">
        <ele>2943.0</ele>
        <time>2013-08-31T08:09:23Z</time>
      </trkpt>
      <trkpt lat="42.693310" lon="-0.058740">
        <ele>2939.4</ele>
        <time>2013-08-31T08:12:02Z</time>
      </trkpt>
      <trkpt lat="42.693307" lon="-0.058818">
        <ele>2937.8</ele>
        <time>2013-08-31T08:12:32Z</time>
      </trkpt>
      <trkpt lat="42.693391" lon="-0.058894">
        <ele>2939.1</ele>
        <time>2013-08-31T08:13:03Z</time>
      </trkpt>
      <trkpt lat="42.693395" lon="-0.059012">
        <ele>2939.4</ele>
        <time>2013-08-31T08:13:35Z</time>
      </trkpt>
      <trkpt lat="42.693450" lon="-0.059149">
        <ele>2939.4</ele>
        <time>2013-08-31T08:13:49Z</time>
      </trkpt>
      <trkpt lat="42.693471" lon="-0.059205">
        <ele>2937.9</ele>
        <time>2013-08-31T08:15:48Z</time>
      </trkpt>
      <trkpt lat="42.693521" lon="-0.059270">
        <ele>2937.4</ele>
        <time>2013-08-31T08:16:36Z</time>
      </trkpt>
      <trkpt lat="42.693581" lon="-0.059363">
        <ele>2938.9</ele>
        <time>2013-08-31T08:16:51Z</time>
      </trkpt>
      <trkpt lat="42.693629" lon="-0.059474">
        <ele>2940.5</ele>
        <time>2013-08-31T08:17:04Z</time>
      </trkpt>
      <trkpt lat="42.693689" lon="-0.059574">
        <ele>2941.6</ele>
        <time>2013-08-31T08:17:19Z</time>
      </trkpt>
      <trkpt lat="42.693710" lon="-0.059697">
        <ele>2942.8</ele>
        <time>2013-08-31T08:17:33Z</time>
      </trkpt>
      <trkpt lat="42.693770" lon="-0.059783">
        <ele>2943.8</ele>
        <time>2013-08-31T08:18:25Z</time>
      </trkpt>
      <trkpt lat="42.693847" lon="-0.059854">
        <ele>2944.9</ele>
        <time>2013-08-31T08:18:40Z</time>
      </trkpt>
      <trkpt lat="42.693921" lon="-0.059935">
        <ele>2950.8</ele>
        <time>2013-08-31T08:18:58Z</time>
      </trkpt>
      <trkpt lat="42.693980" lon="-0.060001">
        <ele>2953.6</ele>
        <time>2013-08-31T08:19:18Z</time>
      </trkpt>
      <trkpt lat="42.694039" lon="-0.060103">
        <ele>2956.5</ele>
        <time>2013-08-31T08:19:37Z</time>
      </trkpt>
      <trkpt lat="42.694074" lon="-0.060230">
        <ele>2959.0</ele>
        <time>2013-08-31T08:19:54Z</time>
      </trkpt>
      <trkpt lat="42.694128" lon="-0.060333">
        <ele>2961.8</ele>
        <time>2013-08-31T08:20:13Z</time>
      </trkpt>
      <trkpt lat="42.694164" lon="-0.060440">
        <ele>2964.5</ele>
        <time>2013-08-31T08:20:30Z</time>
      </trkpt>
      <trkpt lat="42.694188" lon="-0.060548">
        <ele>2966.9</ele>
        <time>2013-08-31T08:20:46Z</time>
      </trkpt>
      <trkpt lat="42.694205" lon="-0.060661">
        <ele>2969.0</ele>
        <time>2013-08-31T08:21:02Z</time>
      </trkpt>
      <trkpt lat="42.694250" lon="-0.060765">
        <ele>2971.0</ele>
        <time>2013-08-31T08:21:19Z</time>
      </trkpt>
      <trkpt lat="42.694250" lon="-0.060841">
        <ele>2974.8</ele>
        <time>2013-08-31T08:21:55Z</time>
      </trkpt>
      <trkpt lat="42.694255" lon="-0.060977">
        <ele>2976.4</ele>
        <time>2013-08-31T08:22:11Z</time>
      </trkpt>
      <trkpt lat="42.694294" lon="-0.061097">
        <ele>2979.6</ele>
        <time>2013-08-31T08:22:31Z</time>
      </trkpt>
      <trkpt lat="42.694323" lon="-0.061166">
        <ele>2982.6</ele>
        <time>2013-08-31T08:23:21Z</time>
      </trkpt>
      <trkpt lat="42.694398" lon="-0.061237">
        <ele>2986.5</ele>
        <time>2013-08-31T08:23:42Z</time>
      </trkpt>
      <trkpt lat="42.694382" lon="-0.061372">
        <ele>2991.1</ele>
        <time>2013-08-31T08:24:05Z</time>
      </trkpt>
      <trkpt lat="42.694391" lon="-0.061503">
        <ele>2994.2</ele>
        <time>2013-08-31T08:24:25Z</time>
      </trkpt>
      <trkpt lat="42.694392" lon="-0.061632">
        <ele>2997.8</ele>
        <time>2013-08-31T08:24:46Z</time>
      </trkpt>
      <trkpt lat="42.694426" lon="-0.061752">
        <ele>3001.9</ele>
        <time>2013-08-31T08:25:11Z</time>
      </trkpt>
      <trkpt lat="42.694416" lon="-0.061887">
        <ele>3005.8</ele>
        <time>2013-08-31T08:25:35Z</time>
      </trkpt>
      <trkpt lat="42.694437" lon="-0.062001">
        <ele>3010.6</ele>
        <time>2013-08-31T08:26:04Z</time>
      </trkpt>
      <trkpt lat="42.694455" lon="-0.062116">
        <ele>3015.4</ele>
        <time>2013-08-31T08:26:32Z</time>
      </trkpt>
      <trkpt lat="42.694475" lon="-0.062233">
        <ele>3019.3</ele>
        <time>2013-08-31T08:26:53Z</time>
      </trkpt>
      <trkpt lat="42.694536" lon="-0.062232">
        <ele>3022.3</ele>
        <time>2013-08-31T08:27:18Z</time>
      </trkpt>
      <trkpt lat="42.694571" lon="-0.062175">
        <ele>3028.4</ele>
        <time>2013-08-31T08:27:48Z</time>
      </trkpt>
      <trkpt lat="42.694584" lon="-0.062098">
        <ele>3026.2</ele>
        <time>2013-08-31T08:28:25Z</time>
        <name>Gabieto Nord</name>
      </trkpt>
      <trkpt lat="42.694560" lon="-0.062141">
        <ele>3025.5</ele>
        <time>2013-08-31T08:32:10Z</time>
      </trkpt>
      <trkpt lat="42.694546" lon="-0.062154">
        <ele>3025.9</ele>
        <time>2013-08-31T08:33:36Z</time>
      </trkpt>
      <trkpt lat="42.694556" lon="-0.062141">
        <ele>3026.4</ele>
        <time>2013-08-31T08:36:44Z</time>
      </trkpt>
      <trkpt lat="42.694486" lon="-0.062167">
        <ele>3024.0</ele>
        <time>2013-08-31T08:38:44Z</time>
      </trkpt>
      <trkpt lat="42.694441" lon="-0.062187">
        <ele>3020.3</ele>
        <time>2013-08-31T08:39:13Z</time>
      </trkpt>
      <trkpt lat="42.694401" lon="-0.062123">
        <ele>3016.9</ele>
        <time>2013-08-31T08:39:34Z</time>
      </trkpt>
      <trkpt lat="42.694342" lon="-0.062231">
        <ele>3014.1</ele>
        <time>2013-08-31T08:39:59Z</time>
      </trkpt>
      <trkpt lat="42.694274" lon="-0.062342">
        <ele>3013.7</ele>
        <time>2013-08-31T08:40:16Z</time>
      </trkpt>
      <trkpt lat="42.694193" lon="-0.062384">
        <ele>3012.2</ele>
        <time>2013-08-31T08:40:39Z</time>
      </trkpt>
      <trkpt lat="42.694167" lon="-0.062375">
        <ele>3007.2</ele>
        <time>2013-08-31T08:41:07Z</time>
      </trkpt>
      <trkpt lat="42.694143" lon="-0.062370">
        <ele>3004.0</ele>
        <time>2013-08-31T08:41:42Z</time>
      </trkpt>
      <trkpt lat="42.694061" lon="-0.062468">
        <ele>3002.8</ele>
        <time>2013-08-31T08:42:11Z</time>
      </trkpt>
      <trkpt lat="42.694013" lon="-0.062501">
        <ele>3003.9</ele>
        <time>2013-08-31T08:42:53Z</time>
      </trkpt>
      <trkpt lat="42.693954" lon="-0.062592">
        <ele>3003.3</ele>
        <time>2013-08-31T08:43:26Z</time>
      </trkpt>
      <trkpt lat="42.693890" lon="-0.062678">
        <ele>3000.8</ele>
        <time>2013-08-31T08:43:44Z</time>
      </trkpt>
      <trkpt lat="42.693875" lon="-0.062792">
        <ele>3002.8</ele>
        <time>2013-08-31T08:44:04Z</time>
      </trkpt>
      <trkpt lat="42.693810" lon="-0.062907">
        <ele>3002.0</ele>
        <time>2013-08-31T08:44:25Z</time>
      </trkpt>
      <trkpt lat="42.693768" lon="-0.063034">
        <ele>3001.0</ele>
        <time>2013-08-31T08:44:39Z</time>
      </trkpt>
      <trkpt lat="42.693708" lon="-0.063167">
        <ele>3000.1</ele>
        <time>2013-08-31T08:44:51Z</time>
      </trkpt>
      <trkpt lat="42.693687" lon="-0.063284">
        <ele>2999.5</ele>
        <time>2013-08-31T08:45:10Z</time>
      </trkpt>
      <trkpt lat="42.693605" lon="-0.063334">
        <ele>3000.0</ele>
        <time>2013-08-31T08:45:33Z</time>
      </trkpt>
      <trkpt lat="42.693541" lon="-0.063409">
        <ele>2996.1</ele>
        <time>2013-08-31T08:45:54Z</time>
      </trkpt>
      <trkpt lat="42.693494" lon="-0.063515">
        <ele>2994.6</ele>
        <time>2013-08-31T08:46:23Z</time>
      </trkpt>
      <trkpt lat="42.693467" lon="-0.063603">
        <ele>2995.6</ele>
        <time>2013-08-31T08:47:02Z</time>
      </trkpt>
      <trkpt lat="42.693423" lon="-0.063720">
        <ele>3000.8</ele>
        <time>2013-08-31T08:47:33Z</time>
      </trkpt>
      <trkpt lat="42.693368" lon="-0.063863">
        <ele>3001.1</ele>
        <time>2013-08-31T08:47:50Z</time>
      </trkpt>
      <trkpt lat="42.693332" lon="-0.063995">
        <ele>2999.4</ele>
        <time>2013-08-31T08:48:04Z</time>
      </trkpt>
      <trkpt lat="42.693296" lon="-0.064076">
        <ele>2997.2</ele>
        <time>2013-08-31T08:51:46Z</time>
      </trkpt>
      <trkpt lat="42.693204" lon="-0.064152">
        <ele>2996.5</ele>
        <time>2013-08-31T08:52:03Z</time>
      </trkpt>
      <trkpt lat="42.693156" lon="-0.064267">
        <ele>2997.4</ele>
        <time>2013-08-31T08:52:20Z</time>
      </trkpt>
      <trkpt lat="42.693110" lon="-0.064386">
        <ele>2999.6</ele>
        <time>2013-08-31T08:52:37Z</time>
      </trkpt>
      <trkpt lat="42.693107" lon="-0.064522">
        <ele>3002.6</ele>
        <time>2013-08-31T08:52:57Z</time>
      </trkpt>
      <trkpt lat="42.693091" lon="-0.064621">
        <ele>3004.6</ele>
        <time>2013-08-31T08:53:26Z</time>
      </trkpt>
      <trkpt lat="42.693044" lon="-0.064683">
        <ele>3009.7</ele>
        <time>2013-08-31T08:53:53Z</time>
      </trkpt>
      <trkpt lat="42.692994" lon="-0.064786">
        <ele>3011.9</ele>
        <time>2013-08-31T08:54:17Z</time>
      </trkpt>
      <trkpt lat="42.692979" lon="-0.064910">
        <ele>3017.1</ele>
        <time>2013-08-31T08:54:43Z</time>
      </trkpt>
      <trkpt lat="42.692970" lon="-0.065034">
        <ele>3020.3</ele>
        <time>2013-08-31T08:55:04Z</time>
      </trkpt>
      <trkpt lat="42.692936" lon="-0.065138">
        <ele>3025.2</ele>
        <time>2013-08-31T08:55:26Z</time>
      </trkpt>
      <trkpt lat="42.692933" lon="-0.065250">
        <ele>3026.4</ele>
        <time>2013-08-31T08:56:28Z</time>
        <name>Gabieto Sud</name>
      </trkpt>
      <trkpt lat="42.692919" lon="-0.065238">
        <ele>3027.1</ele>
        <time>2013-08-31T08:59:13Z</time>
      </trkpt>
      <trkpt lat="42.692940" lon="-0.065224">
        <ele>3027.8</ele>
        <time>2013-08-31T09:06:21Z</time>
      </trkpt>
      <trkpt lat="42.692968" lon="-0.065103">
        <ele>3027.9</ele>
        <time>2013-08-31T09:06:41Z</time>
      </trkpt>
      <trkpt lat="42.692995" lon="-0.065021">
        <ele>3025.1</ele>
        <time>2013-08-31T09:06:59Z</time>
      </trkpt>
      <trkpt lat="42.693018" lon="-0.064983">
        <ele>3023.7</ele>
        <time>2013-08-31T09:07:12Z</time>
      </trkpt>
      <trkpt lat="42.693024" lon="-0.064868">
        <ele>3019.1</ele>
        <time>2013-08-31T09:07:30Z</time>
      </trkpt>
      <trkpt lat="42.693029" lon="-0.064750">
        <ele>3014.6</ele>
        <time>2013-08-31T09:07:52Z</time>
      </trkpt>
      <trkpt lat="42.693051" lon="-0.064629">
        <ele>3010.2</ele>
        <time>2013-08-31T09:08:18Z</time>
      </trkpt>
      <trkpt lat="42.693073" lon="-0.064536">
        <ele>3006.4</ele>
        <time>2013-08-31T09:08:36Z</time>
      </trkpt>
      <trkpt lat="42.693044" lon="-0.064442">
        <ele>3000.9</ele>
        <time>2013-08-31T09:09:01Z</time>
      </trkpt>
      <trkpt lat="42.693012" lon="-0.064360">
        <ele>2998.8</ele>
        <time>2013-08-31T09:09:27Z</time>
      </trkpt>
      <trkpt lat="42.693017" lon="-0.064246">
        <ele>2993.5</ele>
        <time>2013-08-31T09:09:43Z</time>
      </trkpt>
      <trkpt lat="42.693025" lon="-0.064123">
        <ele>2989.2</ele>
        <time>2013-08-31T09:10:01Z</time>
      </trkpt>
      <trkpt lat="42.692971" lon="-0.064122">
        <ele>2984.3</ele>
        <time>2013-08-31T09:10:42Z</time>
      </trkpt>
      <trkpt lat="42.692954" lon="-0.064001">
        <ele>2980.1</ele>
        <time>2013-08-31T09:11:17Z</time>
      </trkpt>
      <trkpt lat="42.692903" lon="-0.063974">
        <ele>2975.9</ele>
        <time>2013-08-31T09:11:54Z</time>
      </trkpt>
      <trkpt lat="42.692855" lon="-0.063946">
        <ele>2970.6</ele>
        <time>2013-08-31T09:12:16Z</time>
      </trkpt>
      <trkpt lat="42.692840" lon="-0.063822">
        <ele>2966.0</ele>
        <time>2013-08-31T09:12:33Z</time>
      </trkpt>
      <trkpt lat="42.692860" lon="-0.063704">
        <ele>2961.5</ele>
        <time>2013-08-31T09:12:51Z</time>
      </trkpt>
      <trkpt lat="42.692796" lon="-0.063731">
        <ele>2958.2</ele>
        <time>2013-08-31T09:13:27Z</time>
      </trkpt>
      <trkpt lat="42.692796" lon="-0.063625">
        <ele>2955.4</ele>
        <time>2013-08-31T09:13:55Z</time>
      </trkpt>
      <trkpt lat="42.692752" lon="-0.063571">
        <ele>2951.5</ele>
        <time>2013-08-31T09:14:25Z</time>
      </trkpt>
      <trkpt lat="42.692697" lon="-0.063513">
        <ele>2947.8</ele>
        <time>2013-08-31T09:14:45Z</time>
      </trkpt>
      <trkpt lat="42.692684" lon="-0.063411">
        <ele>2943.9</ele>
        <time>2013-08-31T09:15:06Z</time>
      </trkpt>
      <trkpt lat="42.692674" lon="-0.063483">
        <ele>2942.6</ele>
        <time>2013-08-31T09:15:43Z</time>
      </trkpt>
      <trkpt lat="42.692690" lon="-0.063382">
        <ele>2942.2</ele>
        <time>2013-08-31T09:16:18Z</time>
      </trkpt>
      <trkpt lat="42.692688" lon="-0.063255">
        <ele>2937.6</ele>
        <time>2013-08-31T09:16:37Z</time>
      </trkpt>
      <trkpt lat="42.692689" lon="-0.063165">
        <ele>2932.6</ele>
        <time>2013-08-31T09:17:11Z</time>
      </trkpt>
      <trkpt lat="42.692688" lon="-0.063097">
        <ele>2929.5</ele>
        <time>2013-08-31T09:17:29Z</time>
      </trkpt>
      <trkpt lat="42.692699" lon="-0.063013">
        <ele>2926.7</ele>
        <time>2013-08-31T09:17:46Z</time>
      </trkpt>
      <trkpt lat="42.692641" lon="-0.063040">
        <ele>2921.7</ele>
        <time>2013-08-31T09:18:14Z</time>
      </trkpt>
      <trkpt lat="42.692613" lon="-0.062924">
        <ele>2917.0</ele>
        <time>2013-08-31T09:18:38Z</time>
      </trkpt>
      <trkpt lat="42.692590" lon="-0.062788">
        <ele>2913.2</ele>
        <time>2013-08-31T09:18:55Z</time>
      </trkpt>
      <trkpt lat="42.692582" lon="-0.062727">
        <ele>2908.0</ele>
        <time>2013-08-31T09:19:34Z</time>
      </trkpt>
      <trkpt lat="42.692580" lon="-0.062778">
        <ele>2908.0</ele>
        <time>2013-08-31T09:20:11Z</time>
      </trkpt>
      <trkpt lat="42.692592" lon="-0.062662">
        <ele>2908.7</ele>
        <time>2013-08-31T09:21:00Z</time>
      </trkpt>
      <trkpt lat="42.692610" lon="-0.062634">
        <ele>2905.7</ele>
        <time>2013-08-31T09:23:43Z</time>
      </trkpt>
      <trkpt lat="42.692604" lon="-0.062560">
        <ele>2905.3</ele>
        <time>2013-08-31T09:25:55Z</time>
      </trkpt>
      <trkpt lat="42.692597" lon="-0.062423">
        <ele>2901.6</ele>
        <time>2013-08-31T09:26:11Z</time>
      </trkpt>
      <trkpt lat="42.692594" lon="-0.062369">
        <ele>2899.2</ele>
        <time>2013-08-31T09:26:26Z</time>
      </trkpt>
      <trkpt lat="42.692546" lon="-0.062315">
        <ele>2896.2</ele>
        <time>2013-08-31T09:26:46Z</time>
      </trkpt>
      <trkpt lat="42.692569" lon="-0.062201">
        <ele>2892.4</ele>
        <time>2013-08-31T09:27:06Z</time>
      </trkpt>
      <trkpt lat="42.692596" lon="-0.062101">
        <ele>2889.9</ele>
        <time>2013-08-31T09:27:25Z</time>
      </trkpt>
      <trkpt lat="42.692620" lon="-0.061975">
        <ele>2887.0</ele>
        <time>2013-08-31T09:27:40Z</time>
      </trkpt>
      <trkpt lat="42.692618" lon="-0.061870">
        <ele>2883.0</ele>
        <time>2013-08-31T09:28:00Z</time>
      </trkpt>
      <trkpt lat="42.692606" lon="-0.061758">
        <ele>2882.0</ele>
        <time>2013-08-31T09:28:23Z</time>
      </trkpt>
      <trkpt lat="42.692600" lon="-0.061640">
        <ele>2878.1</ele>
        <time>2013-08-31T09:28:42Z</time>
      </trkpt>
      <trkpt lat="42.692617" lon="-0.061539">
        <ele>2873.9</ele>
        <time>2013-08-31T09:29:00Z</time>
      </trkpt>
      <trkpt lat="42.692607" lon="-0.061447">
        <ele>2868.6</ele>
        <time>2013-08-31T09:29:26Z</time>
      </trkpt>
      <trkpt lat="42.692624" lon="-0.061326">
        <ele>2867.0</ele>
        <time>2013-08-31T09:29:45Z</time>
      </trkpt>
      <trkpt lat="42.692604" lon="-0.061208">
        <ele>2864.4</ele>
        <time>2013-08-31T09:30:00Z</time>
      </trkpt>
      <trkpt lat="42.692532" lon="-0.061198">
        <ele>2859.5</ele>
        <time>2013-08-31T09:30:17Z</time>
      </trkpt>
      <trkpt lat="42.692468" lon="-0.061092">
        <ele>2856.8</ele>
        <time>2013-08-31T09:30:28Z</time>
      </trkpt>
      <trkpt lat="42.692414" lon="-0.060987">
        <ele>2854.6</ele>
        <time>2013-08-31T09:30:40Z</time>
      </trkpt>
      <trkpt lat="42.692383" lon="-0.060877">
        <ele>2850.2</ele>
        <time>2013-08-31T09:31:01Z</time>
      </trkpt>
      <trkpt lat="42.692328" lon="-0.060771">
        <ele>2847.5</ele>
        <time>2013-08-31T09:31:14Z</time>
      </trkpt>
      <trkpt lat="42.692272" lon="-0.060671">
        <ele>2845.3</ele>
        <time>2013-08-31T09:31:27Z</time>
      </trkpt>
      <trkpt lat="42.692253" lon="-0.060548">
        <ele>2843.0</ele>
        <time>2013-08-31T09:31:44Z</time>
      </trkpt>
      <trkpt lat="42.692219" lon="-0.060495">
        <ele>2839.5</ele>
        <time>2013-08-31T09:32:08Z</time>
      </trkpt>
      <trkpt lat="42.692223" lon="-0.060375">
        <ele>2837.7</ele>
        <time>2013-08-31T09:32:23Z</time>
      </trkpt>
      <trkpt lat="42.692154" lon="-0.060298">
        <ele>2834.8</ele>
        <time>2013-08-31T09:32:38Z</time>
      </trkpt>
      <trkpt lat="42.692058" lon="-0.060294">
        <ele>2831.4</ele>
        <time>2013-08-31T09:32:54Z</time>
      </trkpt>
      <trkpt lat="42.691970" lon="-0.060333">
        <ele>2829.6</ele>
        <time>2013-08-31T09:33:10Z</time>
      </trkpt>
      <trkpt lat="42.691908" lon="-0.060355">
        <ele>2828.0</ele>
        <time>2013-08-31T09:34:00Z</time>
      </trkpt>
      <trkpt lat="42.691870" lon="-0.060390">
        <ele>2824.5</ele>
        <time>2013-08-31T09:34:34Z</time>
      </trkpt>
      <trkpt lat="42.691801" lon="-0.060355">
        <ele>2820.6</ele>
        <time>2013-08-31T09:34:56Z</time>
      </trkpt>
      <trkpt lat="42.691786" lon="-0.060229">
        <ele>2817.8</ele>
        <time>2013-08-31T09:35:24Z</time>
      </trkpt>
      <trkpt lat="42.691777" lon="-0.060089">
        <ele>2814.4</ele>
        <time>2013-08-31T09:35:52Z</time>
      </trkpt>
      <trkpt lat="42.691728" lon="-0.060017">
        <ele>2811.3</ele>
        <time>2013-08-31T09:36:19Z</time>
      </trkpt>
      <trkpt lat="42.691622" lon="-0.059962">
        <ele>2809.3</ele>
        <time>2013-08-31T09:36:27Z</time>
      </trkpt>
      <trkpt lat="42.691543" lon="-0.059930">
        <ele>2805.4</ele>
        <time>2013-08-31T09:36:36Z</time>
      </trkpt>
      <trkpt lat="42.691494" lon="-0.059946">
        <ele>2801.8</ele>
        <time>2013-08-31T09:36:52Z</time>
      </trkpt>
      <trkpt lat="42.691458" lon="-0.060042">
        <ele>2801.1</ele>
        <time>2013-08-31T09:38:01Z</time>
      </trkpt>
      <trkpt lat="42.691393" lon="-0.060144">
        <ele>2799.6</ele>
        <time>2013-08-31T09:38:22Z</time>
      </trkpt>
      <trkpt lat="42.691291" lon="-0.060067">
        <ele>2797.1</ele>
        <time>2013-08-31T09:38:33Z</time>
      </trkpt>
      <trkpt lat="42.691212" lon="-0.059994">
        <ele>2794.2</ele>
        <time>2013-08-31T09:38:45Z</time>
      </trkpt>
      <trkpt lat="42.691146" lon="-0.059975">
        <ele>2792.0</ele>
        <time>2013-08-31T09:39:17Z</time>
      </trkpt>
      <trkpt lat="42.691054" lon="-0.059951">
        <ele>2790.4</ele>
        <time>2013-08-31T09:39:29Z</time>
      </trkpt>
      <trkpt lat="42.690951" lon="-0.059954">
        <ele>2789.2</ele>
        <time>2013-08-31T09:39:42Z</time>
      </trkpt>
      <trkpt lat="42.690859" lon="-0.059943">
        <ele>2787.2</ele>
        <time>2013-08-31T09:40:03Z</time>
      </trkpt>
      <trkpt lat="42.690766" lon="-0.059873">
        <ele>2785.2</ele>
        <time>2013-08-31T09:40:21Z</time>
      </trkpt>
      <trkpt lat="42.690712" lon="-0.059950">
        <ele>2782.5</ele>
        <time>2013-08-31T09:40:44Z</time>
      </trkpt>
      <trkpt lat="42.690626" lon="-0.060000">
        <ele>2778.4</ele>
        <time>2013-08-31T09:41:21Z</time>
      </trkpt>
      <trkpt lat="42.690531" lon="-0.059986">
        <ele>2776.5</ele>
        <time>2013-08-31T09:41:28Z</time>
      </trkpt>
      <trkpt lat="42.690444" lon="-0.059961">
        <ele>2773.6</ele>
        <time>2013-08-31T09:41:37Z</time>
      </trkpt>
      <trkpt lat="42.690326" lon="-0.059916">
        <ele>2771.7</ele>
        <time>2013-08-31T09:41:53Z</time>
      </trkpt>
      <trkpt lat="42.690252" lon="-0.059837">
        <ele>2770.0</ele>
        <time>2013-08-31T09:42:10Z</time>
      </trkpt>
      <trkpt lat="42.690189" lon="-0.059808">
        <ele>2766.8</ele>
        <time>2013-08-31T09:42:28Z</time>
      </trkpt>
      <trkpt lat="42.690087" lon="-0.059801">
        <ele>2765.1</ele>
        <time>2013-08-31T09:42:42Z</time>
      </trkpt>
      <trkpt lat="42.689985" lon="-0.059756">
        <ele>2763.2</ele>
        <time>2013-08-31T09:42:54Z</time>
      </trkpt>
      <trkpt lat="42.689883" lon="-0.059711">
        <ele>2761.9</ele>
        <time>2013-08-31T09:43:06Z</time>
      </trkpt>
      <trkpt lat="42.689805" lon="-0.059677">
        <ele>2761.0</ele>
        <time>2013-08-31T09:43:19Z</time>
      </trkpt>
      <trkpt lat="42.689739" lon="-0.059603">
        <ele>2760.8</ele>
        <time>2013-08-31T09:43:31Z</time>
      </trkpt>
      <trkpt lat="42.689675" lon="-0.059553">
        <ele>2760.6</ele>
        <time>2013-08-31T09:43:47Z</time>
      </trkpt>
      <trkpt lat="42.689575" lon="-0.059601">
        <ele>2762.1</ele>
        <time>2013-08-31T09:44:02Z</time>
      </trkpt>
      <trkpt lat="42.689490" lon="-0.059646">
        <ele>2763.4</ele>
        <time>2013-08-31T09:44:27Z</time>
      </trkpt>
      <trkpt lat="42.689404" lon="-0.059729">
        <ele>2764.9</ele>
        <time>2013-08-31T09:44:41Z</time>
      </trkpt>
      <trkpt lat="42.689343" lon="-0.059709">
        <ele>2765.6</ele>
        <time>2013-08-31T09:45:37Z</time>
      </trkpt>
      <trkpt lat="42.689297" lon="-0.059855">
        <ele>2765.6</ele>
        <time>2013-08-31T09:45:51Z</time>
      </trkpt>
      <trkpt lat="42.689243" lon="-0.059928">
        <ele>2766.3</ele>
        <time>2013-08-31T09:46:28Z</time>
      </trkpt>
      <trkpt lat="42.689191" lon="-0.060038">
        <ele>2766.2</ele>
        <time>2013-08-31T09:46:52Z</time>
      </trkpt>
      <trkpt lat="42.689142" lon="-0.060153">
        <ele>2765.4</ele>
        <time>2013-08-31T09:47:10Z</time>
      </trkpt>
      <trkpt lat="42.689082" lon="-0.060245">
        <ele>2761.8</ele>
        <time>2013-08-31T09:47:30Z</time>
      </trkpt>
      <trkpt lat="42.689076" lon="-0.060318">
        <ele>2759.2</ele>
        <time>2013-08-31T09:49:34Z</time>
      </trkpt>
      <trkpt lat="42.689022" lon="-0.060390">
        <ele>2757.2</ele>
        <time>2013-08-31T09:49:59Z</time>
      </trkpt>
      <trkpt lat="42.688957" lon="-0.060484">
        <ele>2754.8</ele>
        <time>2013-08-31T09:50:19Z</time>
      </trkpt>
      <trkpt lat="42.688884" lon="-0.060564">
        <ele>2752.4</ele>
        <time>2013-08-31T09:50:42Z</time>
      </trkpt>
      <trkpt lat="42.688815" lon="-0.060643">
        <ele>2751.9</ele>
        <time>2013-08-31T09:50:57Z</time>
      </trkpt>
      <trkpt lat="42.688740" lon="-0.060737">
        <ele>2750.2</ele>
        <time>2013-08-31T09:51:16Z</time>
      </trkpt>
      <trkpt lat="42.688680" lon="-0.060782">
        <ele>2750.1</ele>
        <time>2013-08-31T09:51:39Z</time>
      </trkpt>
      <trkpt lat="42.688636" lon="-0.060878">
        <ele>2749.6</ele>
        <time>2013-08-31T09:51:59Z</time>
      </trkpt>
      <trkpt lat="42.688595" lon="-0.060938">
        <ele>2749.9</ele>
        <time>2013-08-31T09:52:37Z</time>
      </trkpt>
      <trkpt lat="42.688523" lon="-0.061012">
        <ele>2747.9</ele>
        <time>2013-08-31T09:52:53Z</time>
      </trkpt>
      <trkpt lat="42.688421" lon="-0.061054">
        <ele>2746.6</ele>
        <time>2013-08-31T09:53:08Z</time>
      </trkpt>
      <trkpt lat="42.688331" lon="-0.061117">
        <ele>2745.7</ele>
        <time>2013-08-31T09:53:20Z</time>
      </trkpt>
      <trkpt lat="42.688253" lon="-0.061207">
        <ele>2744.9</ele>
        <time>2013-08-31T09:53:34Z</time>
      </trkpt>
      <trkpt lat="42.688153" lon="-0.061260">
        <ele>2744.8</ele>
        <time>2013-08-31T09:53:50Z</time>
      </trkpt>
      <trkpt lat="42.688142" lon="-0.061367">
        <ele>2745.9</ele>
        <time>2013-08-31T09:54:05Z</time>
      </trkpt>
      <trkpt lat="42.688077" lon="-0.061435">
        <ele>2743.6</ele>
        <time>2013-08-31T09:54:25Z</time>
      </trkpt>
      <trkpt lat="42.688046" lon="-0.061524">
        <ele>2740.9</ele>
        <time>2013-08-31T09:54:47Z</time>
      </trkpt>
      <trkpt lat="42.687997" lon="-0.061584">
        <ele>2736.6</ele>
        <time>2013-08-31T09:55:07Z</time>
      </trkpt>
      <trkpt lat="42.687926" lon="-0.061622">
        <ele>2731.7</ele>
        <time>2013-08-31T09:55:30Z</time>
      </trkpt>
      <trkpt lat="42.687837" lon="-0.061677">
        <ele>2727.3</ele>
        <time>2013-08-31T09:55:56Z</time>
      </trkpt>
      <trkpt lat="42.687732" lon="-0.061706">
        <ele>2722.8</ele>
        <time>2013-08-31T09:56:16Z</time>
      </trkpt>
      <trkpt lat="42.687686" lon="-0.061798">
        <ele>2717.6</ele>
        <time>2013-08-31T09:56:36Z</time>
      </trkpt>
      <trkpt lat="42.687591" lon="-0.061833">
        <ele>2713.2</ele>
        <time>2013-08-31T09:56:56Z</time>
      </trkpt>
      <trkpt lat="42.687499" lon="-0.061840">
        <ele>2710.8</ele>
        <time>2013-08-31T09:57:11Z</time>
      </trkpt>
      <trkpt lat="42.687424" lon="-0.061930">
        <ele>2707.8</ele>
        <time>2013-08-31T09:57:25Z</time>
      </trkpt>
      <trkpt lat="42.687374" lon="-0.061991">
        <ele>2704.3</ele>
        <time>2013-08-31T09:57:57Z</time>
      </trkpt>
      <trkpt lat="42.687323" lon="-0.062001">
        <ele>2703.7</ele>
        <time>2013-08-31T09:58:30Z</time>
      </trkpt>
      <trkpt lat="42.687238" lon="-0.062014">
        <ele>2701.0</ele>
        <time>2013-08-31T09:58:44Z</time>
      </trkpt>
      <trkpt lat="42.687148" lon="-0.061993">
        <ele>2698.6</ele>
        <time>2013-08-31T09:58:57Z</time>
      </trkpt>
      <trkpt lat="42.687062" lon="-0.061972">
        <ele>2693.5</ele>
        <time>2013-08-31T09:59:16Z</time>
      </trkpt>
      <trkpt lat="42.687015" lon="-0.062004">
        <ele>2689.0</ele>
        <time>2013-08-31T09:59:38Z</time>
      </trkpt>
      <trkpt lat="42.687087" lon="-0.061959">
        <ele>2689.9</ele>
        <time>2013-08-31T10:00:00Z</time>
      </trkpt>
      <trkpt lat="42.687011" lon="-0.061990">
        <ele>2689.1</ele>
        <time>2013-08-31T10:01:18Z</time>
      </trkpt>
      <trkpt lat="42.686943" lon="-0.062074">
        <ele>2684.1</ele>
        <time>2013-08-31T10:01:42Z</time>
      </trkpt>
      <trkpt lat="42.686913" lon="-0.062181">
        <ele>2681.9</ele>
        <time>2013-08-31T10:02:00Z</time>
      </trkpt>
      <trkpt lat="42.686830" lon="-0.062142">
        <ele>2677.8</ele>
        <time>2013-08-31T10:02:15Z</time>
      </trkpt>
      <trkpt lat="42.686772" lon="-0.062046">
        <ele>2673.3</ele>
        <time>2013-08-31T10:02:36Z</time>
      </trkpt>
      <trkpt lat="42.686725" lon="-0.062028">
        <ele>2670.7</ele>
        <time>2013-08-31T10:03:26Z</time>
      </trkpt>
      <trkpt lat="42.686668" lon="-0.062048">
        <ele>2667.6</ele>
        <time>2013-08-31T10:03:44Z</time>
      </trkpt>
      <trkpt lat="42.686596" lon="-0.062073">
        <ele>2661.9</ele>
        <time>2013-08-31T10:04:08Z</time>
      </trkpt>
      <trkpt lat="42.686588" lon="-0.062188">
        <ele>2658.6</ele>
        <time>2013-08-31T10:04:29Z</time>
      </trkpt>
      <trkpt lat="42.686565" lon="-0.062269">
        <ele>2655.3</ele>
        <time>2013-08-31T10:04:52Z</time>
      </trkpt>
      <trkpt lat="42.686531" lon="-0.062364">
        <ele>2650.9</ele>
        <time>2013-08-31T10:05:10Z</time>
      </trkpt>
      <trkpt lat="42.686493" lon="-0.062371">
        <ele>2647.3</ele>
        <time>2013-08-31T10:05:38Z</time>
      </trkpt>
      <trkpt lat="42.686478" lon="-0.062269">
        <ele>2647.2</ele>
        <time>2013-08-31T10:06:43Z</time>
      </trkpt>
      <trkpt lat="42.686462" lon="-0.062323">
        <ele>2645.4</ele>
        <time>2013-08-31T10:07:59Z</time>
      </trkpt>
      <trkpt lat="42.686404" lon="-0.062208">
        <ele>2643.0</ele>
        <time>2013-08-31T10:08:18Z</time>
      </trkpt>
      <trkpt lat="42.686370" lon="-0.062090">
        <ele>2640.8</ele>
        <time>2013-08-31T10:08:32Z</time>
      </trkpt>
      <trkpt lat="42.686297" lon="-0.062080">
        <ele>2637.5</ele>
        <time>2013-08-31T10:08:52Z</time>
      </trkpt>
      <trkpt lat="42.686231" lon="-0.062080">
        <ele>2634.3</ele>
        <time>2013-08-31T10:09:13Z</time>
      </trkpt>
      <trkpt lat="42.686169" lon="-0.062010">
        <ele>2632.0</ele>
        <time>2013-08-31T10:09:33Z</time>
      </trkpt>
      <trkpt lat="42.686098" lon="-0.061995">
        <ele>2626.8</ele>
        <time>2013-08-31T10:09:57Z</time>
      </trkpt>
      <trkpt lat="42.686053" lon="-0.061976">
        <ele>2625.1</ele>
        <time>2013-08-31T10:10:18Z</time>
      </trkpt>
      <trkpt lat="42.686012" lon="-0.062065">
        <ele>2622.0</ele>
        <time>2013-08-31T10:11:14Z</time>
      </trkpt>
      <trkpt lat="42.685944" lon="-0.062107">
        <ele>2619.7</ele>
        <time>2013-08-31T10:11:40Z</time>
      </trkpt>
      <trkpt lat="42.685864" lon="-0.062151">
        <ele>2616.2</ele>
        <time>2013-08-31T10:12:05Z</time>
      </trkpt>
      <trkpt lat="42.685805" lon="-0.062166">
        <ele>2612.8</ele>
        <time>2013-08-31T10:12:26Z</time>
      </trkpt>
      <trkpt lat="42.685730" lon="-0.062230">
        <ele>2609.3</ele>
        <time>2013-08-31T10:12:45Z</time>
      </trkpt>
      <trkpt lat="42.685661" lon="-0.062270">
        <ele>2605.8</ele>
        <time>2013-08-31T10:13:28Z</time>
      </trkpt>
      <trkpt lat="42.685616" lon="-0.062314">
        <ele>2601.6</ele>
        <time>2013-08-31T10:13:51Z</time>
      </trkpt>
      <trkpt lat="42.685532" lon="-0.062311">
        <ele>2597.3</ele>
        <time>2013-08-31T10:14:10Z</time>
      </trkpt>
      <trkpt lat="42.685460" lon="-0.062330">
        <ele>2592.1</ele>
        <time>2013-08-31T10:14:31Z</time>
      </trkpt>
      <trkpt lat="42.685394" lon="-0.062339">
        <ele>2588.0</ele>
        <time>2013-08-31T10:14:51Z</time>
      </trkpt>
      <trkpt lat="42.685331" lon="-0.062353">
        <ele>2582.9</ele>
        <time>2013-08-31T10:15:11Z</time>
      </trkpt>
      <trkpt lat="42.685280" lon="-0.062437">
        <ele>2579.5</ele>
        <time>2013-08-31T10:15:25Z</time>
      </trkpt>
      <trkpt lat="42.685195" lon="-0.062399">
        <ele>2574.7</ele>
        <time>2013-08-31T10:15:46Z</time>
      </trkpt>
      <trkpt lat="42.685124" lon="-0.062439">
        <ele>2569.2</ele>
        <time>2013-08-31T10:16:09Z</time>
      </trkpt>
      <trkpt lat="42.685063" lon="-0.062417">
        <ele>2565.3</ele>
        <time>2013-08-31T10:16:29Z</time>
      </trkpt>
      <trkpt lat="42.684989" lon="-0.062295">
        <ele>2562.6</ele>
        <time>2013-08-31T10:16:46Z</time>
      </trkpt>
      <trkpt lat="42.684906" lon="-0.062280">
        <ele>2558.8</ele>
        <time>2013-08-31T10:17:03Z</time>
      </trkpt>
      <trkpt lat="42.684895" lon="-0.062344">
        <ele>2554.8</ele>
        <time>2013-08-31T10:17:34Z</time>
      </trkpt>
      <trkpt lat="42.684856" lon="-0.062285">
        <ele>2552.7</ele>
        <time>2013-08-31T10:17:47Z</time>
      </trkpt>
      <trkpt lat="42.684799" lon="-0.062306">
        <ele>2549.3</ele>
        <time>2013-08-31T10:18:02Z</time>
      </trkpt>
      <trkpt lat="42.684817" lon="-0.062325">
        <ele>2547.7</ele>
        <time>2013-08-31T10:19:31Z</time>
      </trkpt>
      <trkpt lat="42.684734" lon="-0.062289">
        <ele>2545.5</ele>
        <time>2013-08-31T10:19:58Z</time>
      </trkpt>
      <trkpt lat="42.684679" lon="-0.062283">
        <ele>2540.8</ele>
        <time>2013-08-31T10:20:18Z</time>
      </trkpt>
      <trkpt lat="42.684589" lon="-0.062212">
        <ele>2538.1</ele>
        <time>2013-08-31T10:20:33Z</time>
      </trkpt>
      <trkpt lat="42.684548" lon="-0.062331">
        <ele>2534.9</ele>
        <time>2013-08-31T10:20:46Z</time>
      </trkpt>
      <trkpt lat="42.684471" lon="-0.062270">
        <ele>2531.0</ele>
        <time>2013-08-31T10:21:05Z</time>
      </trkpt>
      <trkpt lat="42.684413" lon="-0.062212">
        <ele>2527.4</ele>
        <time>2013-08-31T10:21:23Z</time>
      </trkpt>
      <trkpt lat="42.684353" lon="-0.062180">
        <ele>2523.2</ele>
        <time>2013-08-31T10:21:43Z</time>
      </trkpt>
      <trkpt lat="42.684314" lon="-0.062179">
        <ele>2519.1</ele>
        <time>2013-08-31T10:22:02Z</time>
      </trkpt>
      <trkpt lat="42.684237" lon="-0.062176">
        <ele>2515.0</ele>
        <time>2013-08-31T10:22:21Z</time>
      </trkpt>
      <trkpt lat="42.684192" lon="-0.062203">
        <ele>2511.2</ele>
        <time>2013-08-31T10:22:34Z</time>
      </trkpt>
      <trkpt lat="42.684107" lon="-0.062205">
        <ele>2508.2</ele>
        <time>2013-08-31T10:22:45Z</time>
      </trkpt>
      <trkpt lat="42.684049" lon="-0.062285">
        <ele>2502.8</ele>
        <time>2013-08-31T10:23:01Z</time>
      </trkpt>
      <trkpt lat="42.684019" lon="-0.062326">
        <ele>2498.3</ele>
        <time>2013-08-31T10:23:15Z</time>
      </trkpt>
      <trkpt lat="42.683948" lon="-0.062344">
        <ele>2494.3</ele>
        <time>2013-08-31T10:23:28Z</time>
      </trkpt>
      <trkpt lat="42.683844" lon="-0.062286">
        <ele>2491.0</ele>
        <time>2013-08-31T10:23:38Z</time>
      </trkpt>
      <trkpt lat="42.683788" lon="-0.062352">
        <ele>2485.9</ele>
        <time>2013-08-31T10:23:50Z</time>
      </trkpt>
      <trkpt lat="42.683772" lon="-0.062492">
        <ele>2481.3</ele>
        <time>2013-08-31T10:24:02Z</time>
      </trkpt>
      <trkpt lat="42.683693" lon="-0.062544">
        <ele>2476.3</ele>
        <time>2013-08-31T10:24:14Z</time>
      </trkpt>
      <trkpt lat="42.683625" lon="-0.062562">
        <ele>2472.5</ele>
        <time>2013-08-31T10:24:24Z</time>
      </trkpt>
      <trkpt lat="42.683601" lon="-0.062674">
        <ele>2467.7</ele>
        <time>2013-08-31T10:24:34Z</time>
      </trkpt>
      <trkpt lat="42.683601" lon="-0.062828">
        <ele>2464.6</ele>
        <time>2013-08-31T10:24:44Z</time>
      </trkpt>
      <trkpt lat="42.683575" lon="-0.062947">
        <ele>2461.1</ele>
        <time>2013-08-31T10:24:54Z</time>
      </trkpt>
      <trkpt lat="42.683552" lon="-0.063065">
        <ele>2456.7</ele>
        <time>2013-08-31T10:25:07Z</time>
      </trkpt>
      <trkpt lat="42.683544" lon="-0.063197">
        <ele>2453.7</ele>
        <time>2013-08-31T10:25:18Z</time>
      </trkpt>
      <trkpt lat="42.683525" lon="-0.063275">
        <ele>2452.3</ele>
        <time>2013-08-31T10:25:39Z</time>
      </trkpt>
      <trkpt lat="42.683515" lon="-0.063294">
        <ele>2451.2</ele>
        <time>2013-08-31T10:27:07Z</time>
      </trkpt>
      <trkpt lat="42.683499" lon="-0.063280">
        <ele>2450.6</ele>
        <time>2013-08-31T10:27:57Z</time>
      </trkpt>
      <trkpt lat="42.683470" lon="-0.063351">
        <ele>2449.9</ele>
        <time>2013-08-31T10:29:01Z</time>
      </trkpt>
      <trkpt lat="42.683475" lon="-0.063483">
        <ele>2448.9</ele>
        <time>2013-08-31T10:29:12Z</time>
      </trkpt>
      <trkpt lat="42.683448" lon="-0.063593">
        <ele>2447.8</ele>
        <time>2013-08-31T10:29:23Z</time>
      </trkpt>
      <trkpt lat="42.683444" lon="-0.063703">
        <ele>2445.8</ele>
        <time>2013-08-31T10:29:35Z</time>
      </trkpt>
      <trkpt lat="42.683424" lon="-0.063796">
        <ele>2443.5</ele>
        <time>2013-08-31T10:29:51Z</time>
      </trkpt>
      <trkpt lat="42.683425" lon="-0.063930">
        <ele>2441.3</ele>
        <time>2013-08-31T10:30:03Z</time>
      </trkpt>
      <trkpt lat="42.683373" lon="-0.064041">
        <ele>2439.3</ele>
        <time>2013-08-31T10:30:17Z</time>
      </trkpt>
      <trkpt lat="42.683379" lon="-0.064108">
        <ele>2437.4</ele>
        <time>2013-08-31T10:30:40Z</time>
      </trkpt>
      <trkpt lat="42.683379" lon="-0.064106">
        <ele>2435.9</ele>
        <time>2013-08-31T10:35:35Z</time>
      </trkpt>
      <trkpt lat="42.683345" lon="-0.064089">
        <ele>2436.1</ele>
        <time>2013-08-31T10:36:10Z</time>
      </trkpt>
      <trkpt lat="42.683356" lon="-0.064072">
        <ele>2435.7</ele>
        <time>2013-08-31T10:36:43Z</time>
      </trkpt>
      <trkpt lat="42.683319" lon="-0.064091">
        <ele>2432.2</ele>
        <time>2013-08-31T10:55:32Z</time>
      </trkpt>
      <trkpt lat="42.683331" lon="-0.064079">
        <ele>2432.5</ele>
        <time>2013-08-31T11:03:51Z</time>
      </trkpt>
      <trkpt lat="42.683325" lon="-0.064079">
        <ele>2431.9</ele>
        <time>2013-08-31T11:08:01Z</time>
      </trkpt>
      <trkpt lat="42.683295" lon="-0.064120">
        <ele>2431.6</ele>
        <time>2013-08-31T11:30:49Z</time>
      </trkpt>
      <trkpt lat="42.683354" lon="-0.064145">
        <ele>2431.6</ele>
        <time>2013-08-31T11:32:42Z</time>
      </trkpt>
      <trkpt lat="42.683338" lon="-0.064154">
        <ele>2431.8</ele>
        <time>2013-08-31T11:33:48Z</time>
      </trkpt>
      <trkpt lat="42.683313" lon="-0.064079">
        <ele>2432.3</ele>
        <time>2013-08-31T11:36:24Z</time>
      </trkpt>
      <trkpt lat="42.683273" lon="-0.064093">
        <ele>2431.9</ele>
        <time>2013-08-31T11:36:44Z</time>
      </trkpt>
      <trkpt lat="42.683348" lon="-0.064091">
        <ele>2432.0</ele>
        <time>2013-08-31T11:37:21Z</time>
      </trkpt>
      <trkpt lat="42.683382" lon="-0.064120">
        <ele>2432.2</ele>
        <time>2013-08-31T11:37:48Z</time>
      </trkpt>
      <trkpt lat="42.683411" lon="-0.064258">
        <ele>2431.4</ele>
        <time>2013-08-31T11:38:04Z</time>
      </trkpt>
      <trkpt lat="42.683408" lon="-0.064392">
        <ele>2430.5</ele>
        <time>2013-08-31T11:38:16Z</time>
      </trkpt>
      <trkpt lat="42.683406" lon="-0.064528">
        <ele>2430.1</ele>
        <time>2013-08-31T11:38:27Z</time>
      </trkpt>
      <trkpt lat="42.683399" lon="-0.064678">
        <ele>2430.1</ele>
        <time>2013-08-31T11:38:37Z</time>
      </trkpt>
      <trkpt lat="42.683382" lon="-0.064804">
        <ele>2429.9</ele>
        <time>2013-08-31T11:38:46Z</time>
      </trkpt>
      <trkpt lat="42.683375" lon="-0.064931">
        <ele>2429.9</ele>
        <time>2013-08-31T11:38:55Z</time>
      </trkpt>
      <trkpt lat="42.683367" lon="-0.065068">
        <ele>2430.0</ele>
        <time>2013-08-31T11:39:05Z</time>
      </trkpt>
      <trkpt lat="42.683382" lon="-0.065192">
        <ele>2430.0</ele>
        <time>2013-08-31T11:39:15Z</time>
      </trkpt>
      <trkpt lat="42.683369" lon="-0.065335">
        <ele>2429.9</ele>
        <time>2013-08-31T11:39:25Z</time>
      </trkpt>
      <trkpt lat="42.683353" lon="-0.065485">
        <ele>2429.5</ele>
        <time>2013-08-31T11:39:33Z</time>
      </trkpt>
      <trkpt lat="42.683325" lon="-0.065629">
        <ele>2429.1</ele>
        <time>2013-08-31T11:39:42Z</time>
      </trkpt>
      <trkpt lat="42.683314" lon="-0.065760">
        <ele>2428.4</ele>
        <time>2013-08-31T11:39:50Z</time>
      </trkpt>
      <trkpt lat="42.683309" lon="-0.065905">
        <ele>2428.1</ele>
        <time>2013-08-31T11:39:58Z</time>
      </trkpt>
      <trkpt lat="42.683313" lon="-0.066029">
        <ele>2428.1</ele>
        <time>2013-08-31T11:40:06Z</time>
        <name>Plana Catuarta</name>
      </trkpt>
      <trkpt lat="42.683292" lon="-0.066141">
        <ele>2428.0</ele>
        <time>2013-08-31T11:40:15Z</time>
      </trkpt>
      <trkpt lat="42.683275" lon="-0.066275">
        <ele>2427.9</ele>
        <time>2013-08-31T11:40:24Z</time>
      </trkpt>
      <trkpt lat="42.683270" lon="-0.066407">
        <ele>2428.0</ele>
        <time>2013-08-31T11:40:33Z</time>
      </trkpt>
      <trkpt lat="42.683255" lon="-0.066552">
        <ele>2427.7</ele>
        <time>2013-08-31T11:40:41Z</time>
      </trkpt>
      <trkpt lat="42.683240" lon="-0.066685">
        <ele>2427.7</ele>
        <time>2013-08-31T11:40:49Z</time>
      </trkpt>
      <trkpt lat="42.683217" lon="-0.066808">
        <ele>2427.7</ele>
        <time>2013-08-31T11:40:57Z</time>
      </trkpt>
      <trkpt lat="42.683203" lon="-0.066926">
        <ele>2427.6</ele>
        <time>2013-08-31T11:41:05Z</time>
      </trkpt>
      <trkpt lat="42.683210" lon="-0.067054">
        <ele>2427.6</ele>
        <time>2013-08-31T11:41:14Z</time>
      </trkpt>
      <trkpt lat="42.683200" lon="-0.067198">
        <ele>2427.6</ele>
        <time>2013-08-31T11:41:23Z</time>
      </trkpt>
      <trkpt lat="42.683196" lon="-0.067324">
        <ele>2427.7</ele>
        <time>2013-08-31T11:41:31Z</time>
      </trkpt>
      <trkpt lat="42.683192" lon="-0.067435">
        <ele>2427.6</ele>
        <time>2013-08-31T11:41:39Z</time>
      </trkpt>
      <trkpt lat="42.683205" lon="-0.067554">
        <ele>2427.6</ele>
        <time>2013-08-31T11:41:47Z</time>
      </trkpt>
      <trkpt lat="42.683188" lon="-0.067673">
        <ele>2427.5</ele>
        <time>2013-08-31T11:41:55Z</time>
      </trkpt>
      <trkpt lat="42.683174" lon="-0.067799">
        <ele>2427.6</ele>
        <time>2013-08-31T11:42:03Z</time>
      </trkpt>
      <trkpt lat="42.683122" lon="-0.067943">
        <ele>2427.8</ele>
        <time>2013-08-31T11:42:12Z</time>
      </trkpt>
      <trkpt lat="42.683065" lon="-0.068100">
        <ele>2428.4</ele>
        <time>2013-08-31T11:42:21Z</time>
      </trkpt>
      <trkpt lat="42.683032" lon="-0.068232">
        <ele>2428.9</ele>
        <time>2013-08-31T11:42:30Z</time>
      </trkpt>
      <trkpt lat="42.683003" lon="-0.068350">
        <ele>2428.8</ele>
        <time>2013-08-31T11:42:40Z</time>
      </trkpt>
      <trkpt lat="42.682980" lon="-0.068449">
        <ele>2429.0</ele>
        <time>2013-08-31T11:42:52Z</time>
      </trkpt>
      <trkpt lat="42.682921" lon="-0.068542">
        <ele>2428.5</ele>
        <time>2013-08-31T11:43:00Z</time>
      </trkpt>
      <trkpt lat="42.682854" lon="-0.068620">
        <ele>2428.5</ele>
        <time>2013-08-31T11:43:09Z</time>
      </trkpt>
      <trkpt lat="42.682807" lon="-0.068722">
        <ele>2428.1</ele>
        <time>2013-08-31T11:43:17Z</time>
      </trkpt>
      <trkpt lat="42.682755" lon="-0.068817">
        <ele>2428.1</ele>
        <time>2013-08-31T11:43:26Z</time>
      </trkpt>
      <trkpt lat="42.682693" lon="-0.068936">
        <ele>2428.2</ele>
        <time>2013-08-31T11:43:36Z</time>
      </trkpt>
      <trkpt lat="42.682644" lon="-0.069047">
        <ele>2429.5</ele>
        <time>2013-08-31T11:43:46Z</time>
      </trkpt>
      <trkpt lat="42.682570" lon="-0.069147">
        <ele>2431.5</ele>
        <time>2013-08-31T11:43:58Z</time>
      </trkpt>
      <trkpt lat="42.682490" lon="-0.069189">
        <ele>2434.6</ele>
        <time>2013-08-31T11:44:12Z</time>
      </trkpt>
      <trkpt lat="42.682405" lon="-0.069276">
        <ele>2437.9</ele>
        <time>2013-08-31T11:44:28Z</time>
      </trkpt>
      <trkpt lat="42.682334" lon="-0.069376">
        <ele>2440.2</ele>
        <time>2013-08-31T11:44:41Z</time>
      </trkpt>
      <trkpt lat="42.682299" lon="-0.069475">
        <ele>2442.3</ele>
        <time>2013-08-31T11:44:56Z</time>
      </trkpt>
      <trkpt lat="42.682281" lon="-0.069596">
        <ele>2444.4</ele>
        <time>2013-08-31T11:45:06Z</time>
      </trkpt>
      <trkpt lat="42.682300" lon="-0.069754">
        <ele>2447.0</ele>
        <time>2013-08-31T11:45:20Z</time>
      </trkpt>
      <trkpt lat="42.682258" lon="-0.069852">
        <ele>2448.0</ele>
        <time>2013-08-31T11:45:33Z</time>
      </trkpt>
      <trkpt lat="42.682242" lon="-0.069987">
        <ele>2448.5</ele>
        <time>2013-08-31T11:45:46Z</time>
      </trkpt>
      <trkpt lat="42.682185" lon="-0.070107">
        <ele>2449.8</ele>
        <time>2013-08-31T11:45:58Z</time>
      </trkpt>
      <trkpt lat="42.682240" lon="-0.070148">
        <ele>2451.8</ele>
        <time>2013-08-31T11:46:20Z</time>
      </trkpt>
      <trkpt lat="42.682164" lon="-0.070272">
        <ele>2454.7</ele>
        <time>2013-08-31T11:46:38Z</time>
      </trkpt>
      <trkpt lat="42.682063" lon="-0.070395">
        <ele>2457.2</ele>
        <time>2013-08-31T11:46:52Z</time>
      </trkpt>
      <trkpt lat="42.681978" lon="-0.070477">
        <ele>2457.6</ele>
        <time>2013-08-31T11:47:02Z</time>
      </trkpt>
      <trkpt lat="42.681890" lon="-0.070499">
        <ele>2457.5</ele>
        <time>2013-08-31T11:47:12Z</time>
      </trkpt>
      <trkpt lat="42.681821" lon="-0.070590">
        <ele>2460.1</ele>
        <time>2013-08-31T11:47:28Z</time>
      </trkpt>
      <trkpt lat="42.681761" lon="-0.070702">
        <ele>2463.3</ele>
        <time>2013-08-31T11:47:45Z</time>
      </trkpt>
      <trkpt lat="42.681680" lon="-0.070785">
        <ele>2465.8</ele>
        <time>2013-08-31T11:47:59Z</time>
      </trkpt>
      <trkpt lat="42.681593" lon="-0.070877">
        <ele>2468.5</ele>
        <time>2013-08-31T11:48:15Z</time>
      </trkpt>
      <trkpt lat="42.681617" lon="-0.070858">
        <ele>2470.5</ele>
        <time>2013-08-31T11:48:45Z</time>
      </trkpt>
      <trkpt lat="42.681603" lon="-0.070862">
        <ele>2470.1</ele>
        <time>2013-08-31T11:49:16Z</time>
      </trkpt>
      <trkpt lat="42.681517" lon="-0.071011">
        <ele>2471.9</ele>
        <time>2013-08-31T11:49:30Z</time>
      </trkpt>
      <trkpt lat="42.681479" lon="-0.071117">
        <ele>2474.3</ele>
        <time>2013-08-31T11:49:41Z</time>
      </trkpt>
      <trkpt lat="42.681440" lon="-0.071238">
        <ele>2475.8</ele>
        <time>2013-08-31T11:49:52Z</time>
      </trkpt>
      <trkpt lat="42.681404" lon="-0.071344">
        <ele>2476.1</ele>
        <time>2013-08-31T11:50:02Z</time>
      </trkpt>
      <trkpt lat="42.681342" lon="-0.071447">
        <ele>2476.7</ele>
        <time>2013-08-31T11:50:15Z</time>
      </trkpt>
      <trkpt lat="42.681274" lon="-0.071557">
        <ele>2476.9</ele>
        <time>2013-08-31T11:50:25Z</time>
      </trkpt>
      <trkpt lat="42.681205" lon="-0.071644">
        <ele>2476.5</ele>
        <time>2013-08-31T11:50:38Z</time>
      </trkpt>
      <trkpt lat="42.681124" lon="-0.071735">
        <ele>2475.7</ele>
        <time>2013-08-31T11:50:48Z</time>
      </trkpt>
      <trkpt lat="42.681075" lon="-0.071874">
        <ele>2475.6</ele>
        <time>2013-08-31T11:51:00Z</time>
      </trkpt>
      <trkpt lat="42.681000" lon="-0.071975">
        <ele>2475.7</ele>
        <time>2013-08-31T11:51:11Z</time>
      </trkpt>
      <trkpt lat="42.680894" lon="-0.072083">
        <ele>2476.2</ele>
        <time>2013-08-31T11:51:22Z</time>
      </trkpt>
      <trkpt lat="42.680828" lon="-0.072179">
        <ele>2478.5</ele>
        <time>2013-08-31T11:51:36Z</time>
      </trkpt>
      <trkpt lat="42.680733" lon="-0.072301">
        <ele>2482.5</ele>
        <time>2013-08-31T11:51:51Z</time>
      </trkpt>
      <trkpt lat="42.680653" lon="-0.072406">
        <ele>2485.0</ele>
        <time>2013-08-31T11:52:03Z</time>
      </trkpt>
      <trkpt lat="42.680592" lon="-0.072511">
        <ele>2487.7</ele>
        <time>2013-08-31T11:52:17Z</time>
      </trkpt>
      <trkpt lat="42.680541" lon="-0.072593">
        <ele>2490.5</ele>
        <time>2013-08-31T11:52:31Z</time>
      </trkpt>
      <trkpt lat="42.680446" lon="-0.072654">
        <ele>2494.0</ele>
        <time>2013-08-31T11:52:48Z</time>
      </trkpt>
      <trkpt lat="42.680367" lon="-0.072720">
        <ele>2496.9</ele>
        <time>2013-08-31T11:53:03Z</time>
      </trkpt>
      <trkpt lat="42.680298" lon="-0.072648">
        <ele>2496.7</ele>
        <time>2013-08-31T11:53:13Z</time>
      </trkpt>
      <trkpt lat="42.680216" lon="-0.072749">
        <ele>2494.7</ele>
        <time>2013-08-31T11:53:26Z</time>
      </trkpt>
      <trkpt lat="42.680141" lon="-0.072830">
        <ele>2494.9</ele>
        <time>2013-08-31T11:53:41Z</time>
      </trkpt>
      <trkpt lat="42.680044" lon="-0.072920">
        <ele>2498.3</ele>
        <time>2013-08-31T11:53:58Z</time>
      </trkpt>
      <trkpt lat="42.680006" lon="-0.073037">
        <ele>2501.4</ele>
        <time>2013-08-31T11:54:14Z</time>
      </trkpt>
      <trkpt lat="42.679979" lon="-0.073162">
        <ele>2504.5</ele>
        <time>2013-08-31T11:54:33Z</time>
      </trkpt>
      <trkpt lat="42.679951" lon="-0.073249">
        <ele>2508.2</ele>
        <time>2013-08-31T11:54:51Z</time>
      </trkpt>
      <trkpt lat="42.679920" lon="-0.073398">
        <ele>2511.6</ele>
        <time>2013-08-31T11:55:10Z</time>
      </trkpt>
      <trkpt lat="42.679874" lon="-0.073516">
        <ele>2514.9</ele>
        <time>2013-08-31T11:55:27Z</time>
      </trkpt>
      <trkpt lat="42.679862" lon="-0.073641">
        <ele>2518.1</ele>
        <time>2013-08-31T11:55:42Z</time>
      </trkpt>
      <trkpt lat="42.679865" lon="-0.073756">
        <ele>2520.6</ele>
        <time>2013-08-31T11:55:58Z</time>
      </trkpt>
      <trkpt lat="42.679784" lon="-0.073843">
        <ele>2522.6</ele>
        <time>2013-08-31T11:56:18Z</time>
      </trkpt>
      <trkpt lat="42.679774" lon="-0.073946">
        <ele>2524.7</ele>
        <time>2013-08-31T11:56:32Z</time>
      </trkpt>
      <trkpt lat="42.679775" lon="-0.074060">
        <ele>2526.7</ele>
        <time>2013-08-31T11:56:50Z</time>
      </trkpt>
      <trkpt lat="42.679716" lon="-0.074213">
        <ele>2528.2</ele>
        <time>2013-08-31T11:57:01Z</time>
      </trkpt>
      <trkpt lat="42.679732" lon="-0.074356">
        <ele>2530.5</ele>
        <time>2013-08-31T11:57:16Z</time>
      </trkpt>
      <trkpt lat="42.679705" lon="-0.074507">
        <ele>2532.6</ele>
        <time>2013-08-31T11:57:32Z</time>
      </trkpt>
      <trkpt lat="42.679686" lon="-0.074627">
        <ele>2535.8</ele>
        <time>2013-08-31T11:57:50Z</time>
      </trkpt>
      <trkpt lat="42.679671" lon="-0.074719">
        <ele>2539.3</ele>
        <time>2013-08-31T11:58:19Z</time>
      </trkpt>
      <trkpt lat="42.679626" lon="-0.074870">
        <ele>2540.6</ele>
        <time>2013-08-31T11:58:32Z</time>
      </trkpt>
      <trkpt lat="42.679630" lon="-0.074979">
        <ele>2543.1</ele>
        <time>2013-08-31T11:59:05Z</time>
      </trkpt>
      <trkpt lat="42.679606" lon="-0.075107">
        <ele>2545.5</ele>
        <time>2013-08-31T11:59:20Z</time>
      </trkpt>
      <trkpt lat="42.679624" lon="-0.075141">
        <ele>2546.9</ele>
        <time>2013-08-31T12:00:00Z</time>
      </trkpt>
      <trkpt lat="42.679625" lon="-0.075274">
        <ele>2548.1</ele>
        <time>2013-08-31T12:00:16Z</time>
      </trkpt>
      <trkpt lat="42.679607" lon="-0.075310">
        <ele>2549.0</ele>
        <time>2013-08-31T12:00:50Z</time>
      </trkpt>
      <trkpt lat="42.679592" lon="-0.075418">
        <ele>2550.1</ele>
        <time>2013-08-31T12:01:25Z</time>
      </trkpt>
      <trkpt lat="42.679581" lon="-0.075506">
        <ele>2552.6</ele>
        <time>2013-08-31T12:02:16Z</time>
      </trkpt>
      <trkpt lat="42.679581" lon="-0.075651">
        <ele>2554.1</ele>
        <time>2013-08-31T12:02:33Z</time>
      </trkpt>
      <trkpt lat="42.679589" lon="-0.075762">
        <ele>2556.9</ele>
        <time>2013-08-31T12:03:13Z</time>
      </trkpt>
      <trkpt lat="42.679575" lon="-0.075849">
        <ele>2559.4</ele>
        <time>2013-08-31T12:03:36Z</time>
      </trkpt>
      <trkpt lat="42.679558" lon="-0.075951">
        <ele>2560.0</ele>
        <time>2013-08-31T12:03:56Z</time>
      </trkpt>
      <trkpt lat="42.679558" lon="-0.076089">
        <ele>2562.3</ele>
        <time>2013-08-31T12:04:12Z</time>
      </trkpt>
      <trkpt lat="42.679594" lon="-0.076225">
        <ele>2562.9</ele>
        <time>2013-08-31T12:04:26Z</time>
      </trkpt>
      <trkpt lat="42.679581" lon="-0.076344">
        <ele>2564.7</ele>
        <time>2013-08-31T12:04:49Z</time>
      </trkpt>
      <trkpt lat="42.679579" lon="-0.076486">
        <ele>2567.5</ele>
        <time>2013-08-31T12:05:07Z</time>
      </trkpt>
      <trkpt lat="42.679556" lon="-0.076637">
        <ele>2570.9</ele>
        <time>2013-08-31T12:05:28Z</time>
      </trkpt>
      <trkpt lat="42.679583" lon="-0.076745">
        <ele>2574.0</ele>
        <time>2013-08-31T12:05:45Z</time>
      </trkpt>
      <trkpt lat="42.679595" lon="-0.076903">
        <ele>2574.1</ele>
        <time>2013-08-31T12:06:04Z</time>
      </trkpt>
      <trkpt lat="42.679610" lon="-0.077036">
        <ele>2575.6</ele>
        <time>2013-08-31T12:06:18Z</time>
      </trkpt>
      <trkpt lat="42.679630" lon="-0.077167">
        <ele>2577.6</ele>
        <time>2013-08-31T12:06:35Z</time>
      </trkpt>
      <trkpt lat="42.679592" lon="-0.077282">
        <ele>2580.2</ele>
        <time>2013-08-31T12:06:51Z</time>
      </trkpt>
      <trkpt lat="42.679659" lon="-0.077274">
        <ele>2581.4</ele>
        <time>2013-08-31T12:07:27Z</time>
      </trkpt>
      <trkpt lat="42.679624" lon="-0.077361">
        <ele>2581.1</ele>
        <time>2013-08-31T12:08:19Z</time>
      </trkpt>
      <trkpt lat="42.679587" lon="-0.077483">
        <ele>2583.4</ele>
        <time>2013-08-31T12:08:35Z</time>
      </trkpt>
      <trkpt lat="42.679556" lon="-0.077607">
        <ele>2587.9</ele>
        <time>2013-08-31T12:08:57Z</time>
      </trkpt>
      <trkpt lat="42.679487" lon="-0.077668">
        <ele>2593.2</ele>
        <time>2013-08-31T12:09:25Z</time>
      </trkpt>
      <trkpt lat="42.679470" lon="-0.077795">
        <ele>2596.9</ele>
        <time>2013-08-31T12:09:46Z</time>
      </trkpt>
      <trkpt lat="42.679432" lon="-0.077907">
        <ele>2601.1</ele>
        <time>2013-08-31T12:10:06Z</time>
      </trkpt>
      <trkpt lat="42.679407" lon="-0.078018">
        <ele>2606.4</ele>
        <time>2013-08-31T12:10:36Z</time>
      </trkpt>
      <trkpt lat="42.679326" lon="-0.078069">
        <ele>2610.7</ele>
        <time>2013-08-31T12:11:05Z</time>
      </trkpt>
      <trkpt lat="42.679252" lon="-0.078122">
        <ele>2614.7</ele>
        <time>2013-08-31T12:11:27Z</time>
      </trkpt>
      <trkpt lat="42.679165" lon="-0.078156">
        <ele>2619.1</ele>
        <time>2013-08-31T12:11:52Z</time>
      </trkpt>
      <trkpt lat="42.679084" lon="-0.078215">
        <ele>2622.9</ele>
        <time>2013-08-31T12:12:14Z</time>
      </trkpt>
      <trkpt lat="42.679065" lon="-0.078286">
        <ele>2626.6</ele>
        <time>2013-08-31T12:12:34Z</time>
      </trkpt>
      <trkpt lat="42.679078" lon="-0.078408">
        <ele>2629.9</ele>
        <time>2013-08-31T12:13:00Z</time>
      </trkpt>
      <trkpt lat="42.679057" lon="-0.078522">
        <ele>2634.8</ele>
        <time>2013-08-31T12:13:36Z</time>
      </trkpt>
      <trkpt lat="42.678994" lon="-0.078612">
        <ele>2639.1</ele>
        <time>2013-08-31T12:14:03Z</time>
      </trkpt>
      <trkpt lat="42.679013" lon="-0.078703">
        <ele>2642.7</ele>
        <time>2013-08-31T12:14:25Z</time>
      </trkpt>
      <trkpt lat="42.679032" lon="-0.078826">
        <ele>2645.9</ele>
        <time>2013-08-31T12:14:46Z</time>
      </trkpt>
      <trkpt lat="42.679046" lon="-0.078925">
        <ele>2649.8</ele>
        <time>2013-08-31T12:15:11Z</time>
      </trkpt>
      <trkpt lat="42.679078" lon="-0.079046">
        <ele>2653.2</ele>
        <time>2013-08-31T12:15:33Z</time>
      </trkpt>
      <trkpt lat="42.679114" lon="-0.079171">
        <ele>2657.8</ele>
        <time>2013-08-31T12:15:56Z</time>
      </trkpt>
      <trkpt lat="42.679166" lon="-0.079277">
        <ele>2660.8</ele>
        <time>2013-08-31T12:16:19Z</time>
      </trkpt>
      <trkpt lat="42.679217" lon="-0.079380">
        <ele>2664.4</ele>
        <time>2013-08-31T12:16:43Z</time>
      </trkpt>
      <trkpt lat="42.679159" lon="-0.079424">
        <ele>2668.8</ele>
        <time>2013-08-31T12:17:10Z</time>
      </trkpt>
      <trkpt lat="42.679204" lon="-0.079510">
        <ele>2671.9</ele>
        <time>2013-08-31T12:17:30Z</time>
      </trkpt>
      <trkpt lat="42.679261" lon="-0.079612">
        <ele>2675.5</ele>
        <time>2013-08-31T12:17:53Z</time>
      </trkpt>
      <trkpt lat="42.679236" lon="-0.079670">
        <ele>2679.3</ele>
        <time>2013-08-31T12:18:16Z</time>
      </trkpt>
      <trkpt lat="42.679149" lon="-0.079713">
        <ele>2682.0</ele>
        <time>2013-08-31T12:18:33Z</time>
      </trkpt>
      <trkpt lat="42.679138" lon="-0.079784">
        <ele>2686.2</ele>
        <time>2013-08-31T12:18:59Z</time>
      </trkpt>
      <trkpt lat="42.679112" lon="-0.079875">
        <ele>2690.1</ele>
        <time>2013-08-31T12:19:21Z</time>
      </trkpt>
      <trkpt lat="42.679096" lon="-0.079954">
        <ele>2694.1</ele>
        <time>2013-08-31T12:19:45Z</time>
      </trkpt>
      <trkpt lat="42.679089" lon="-0.080018">
        <ele>2698.5</ele>
        <time>2013-08-31T12:20:20Z</time>
      </trkpt>
      <trkpt lat="42.679094" lon="-0.080105">
        <ele>2703.1</ele>
        <time>2013-08-31T12:20:46Z</time>
      </trkpt>
      <trkpt lat="42.679066" lon="-0.080177">
        <ele>2707.7</ele>
        <time>2013-08-31T12:21:14Z</time>
      </trkpt>
      <trkpt lat="42.679097" lon="-0.080219">
        <ele>2710.6</ele>
        <time>2013-08-31T12:21:44Z</time>
      </trkpt>
      <trkpt lat="42.679162" lon="-0.080288">
        <ele>2713.7</ele>
        <time>2013-08-31T12:22:10Z</time>
        <name>Col Escuzana</name>
      </trkpt>
      <trkpt lat="42.679102" lon="-0.080362">
        <ele>2716.9</ele>
        <time>2013-08-31T12:22:34Z</time>
      </trkpt>
      <trkpt lat="42.679125" lon="-0.080391">
        <ele>2721.2</ele>
        <time>2013-08-31T12:23:26Z</time>
      </trkpt>
      <trkpt lat="42.679109" lon="-0.080374">
        <ele>2722.3</ele>
        <time>2013-08-31T12:25:18Z</time>
      </trkpt>
      <trkpt lat="42.679050" lon="-0.080370">
        <ele>2723.3</ele>
        <time>2013-08-31T12:26:35Z</time>
      </trkpt>
      <trkpt lat="42.678987" lon="-0.080435">
        <ele>2725.6</ele>
        <time>2013-08-31T12:27:07Z</time>
      </trkpt>
      <trkpt lat="42.678899" lon="-0.080455">
        <ele>2729.7</ele>
        <time>2013-08-31T12:27:23Z</time>
      </trkpt>
      <trkpt lat="42.678785" lon="-0.080458">
        <ele>2734.4</ele>
        <time>2013-08-31T12:27:41Z</time>
      </trkpt>
      <trkpt lat="42.678685" lon="-0.080389">
        <ele>2738.7</ele>
        <time>2013-08-31T12:28:01Z</time>
      </trkpt>
      <trkpt lat="42.678618" lon="-0.080466">
        <ele>2743.8</ele>
        <time>2013-08-31T12:28:23Z</time>
      </trkpt>
      <trkpt lat="42.678506" lon="-0.080497">
        <ele>2747.1</ele>
        <time>2013-08-31T12:28:41Z</time>
      </trkpt>
      <trkpt lat="42.678440" lon="-0.080487">
        <ele>2750.7</ele>
        <time>2013-08-31T12:29:00Z</time>
      </trkpt>
      <trkpt lat="42.678381" lon="-0.080516">
        <ele>2755.7</ele>
        <time>2013-08-31T12:29:20Z</time>
      </trkpt>
      <trkpt lat="42.678301" lon="-0.080551">
        <ele>2760.7</ele>
        <time>2013-08-31T12:29:41Z</time>
      </trkpt>
      <trkpt lat="42.678195" lon="-0.080542">
        <ele>2763.6</ele>
        <time>2013-08-31T12:29:59Z</time>
      </trkpt>
      <trkpt lat="42.678133" lon="-0.080581">
        <ele>2768.4</ele>
        <time>2013-08-31T12:30:21Z</time>
      </trkpt>
      <trkpt lat="42.678064" lon="-0.080547">
        <ele>2771.6</ele>
        <time>2013-08-31T12:30:39Z</time>
      </trkpt>
      <trkpt lat="42.678005" lon="-0.080594">
        <ele>2776.4</ele>
        <time>2013-08-31T12:31:03Z</time>
      </trkpt>
      <trkpt lat="42.677953" lon="-0.080586">
        <ele>2780.1</ele>
        <time>2013-08-31T12:31:25Z</time>
      </trkpt>
      <trkpt lat="42.677876" lon="-0.080592">
        <ele>2784.8</ele>
        <time>2013-08-31T12:31:48Z</time>
      </trkpt>
      <trkpt lat="42.677787" lon="-0.080582">
        <ele>2789.7</ele>
        <time>2013-08-31T12:32:09Z</time>
      </trkpt>
      <trkpt lat="42.677777" lon="-0.080553">
        <ele>2794.1</ele>
        <time>2013-08-31T12:32:28Z</time>
      </trkpt>
      <trkpt lat="42.677720" lon="-0.080626">
        <ele>2798.9</ele>
        <time>2013-08-31T12:32:50Z</time>
      </trkpt>
      <trkpt lat="42.677637" lon="-0.080693">
        <ele>2803.0</ele>
        <time>2013-08-31T12:33:09Z</time>
      </trkpt>
      <trkpt lat="42.677524" lon="-0.080755">
        <ele>2804.9</ele>
        <time>2013-08-31T12:33:26Z</time>
      </trkpt>
      <trkpt lat="42.677459" lon="-0.080742">
        <ele>2809.8</ele>
        <time>2013-08-31T12:33:42Z</time>
      </trkpt>
      <trkpt lat="42.677371" lon="-0.080793">
        <ele>2812.9</ele>
        <time>2013-08-31T12:34:00Z</time>
      </trkpt>
      <trkpt lat="42.677298" lon="-0.080772">
        <ele>2816.9</ele>
        <time>2013-08-31T12:34:23Z</time>
      </trkpt>
      <trkpt lat="42.677206" lon="-0.080824">
        <ele>2821.6</ele>
        <time>2013-08-31T12:34:40Z</time>
      </trkpt>
      <trkpt lat="42.677105" lon="-0.080814">
        <ele>2824.9</ele>
        <time>2013-08-31T12:34:56Z</time>
      </trkpt>
      <trkpt lat="42.677015" lon="-0.080838">
        <ele>2827.0</ele>
        <time>2013-08-31T12:35:06Z</time>
      </trkpt>
      <trkpt lat="42.676923" lon="-0.080772">
        <ele>2829.5</ele>
        <time>2013-08-31T12:35:20Z</time>
      </trkpt>
      <trkpt lat="42.676884" lon="-0.080681">
        <ele>2830.3</ele>
        <time>2013-08-31T12:35:45Z</time>
      </trkpt>
      <trkpt lat="42.676853" lon="-0.080662">
        <ele>2829.8</ele>
        <time>2013-08-31T12:36:17Z</time>
      </trkpt>
      <trkpt lat="42.676803" lon="-0.080678">
        <ele>2830.3</ele>
        <time>2013-08-31T12:36:38Z</time>
      </trkpt>
      <trkpt lat="42.676748" lon="-0.080681">
        <ele>2828.4</ele>
        <time>2013-08-31T12:38:23Z</time>
      </trkpt>
      <trkpt lat="42.676712" lon="-0.080693">
        <ele>2828.5</ele>
        <time>2013-08-31T12:40:42Z</time>
      </trkpt>
      <trkpt lat="42.676793" lon="-0.080648">
        <ele>2829.7</ele>
        <time>2013-08-31T12:41:09Z</time>
      </trkpt>
      <trkpt lat="42.676883" lon="-0.080661">
        <ele>2831.9</ele>
        <time>2013-08-31T12:42:47Z</time>
      </trkpt>
      <trkpt lat="42.676948" lon="-0.080729">
        <ele>2832.1</ele>
        <time>2013-08-31T12:43:31Z</time>
      </trkpt>
      <trkpt lat="42.677034" lon="-0.080762">
        <ele>2831.1</ele>
        <time>2013-08-31T12:43:49Z</time>
      </trkpt>
      <trkpt lat="42.677133" lon="-0.080790">
        <ele>2829.2</ele>
        <time>2013-08-31T12:44:08Z</time>
      </trkpt>
      <trkpt lat="42.677224" lon="-0.080779">
        <ele>2826.2</ele>
        <time>2013-08-31T12:44:29Z</time>
      </trkpt>
      <trkpt lat="42.677298" lon="-0.080745">
        <ele>2820.5</ele>
        <time>2013-08-31T12:45:03Z</time>
      </trkpt>
      <trkpt lat="42.677395" lon="-0.080708">
        <ele>2818.0</ele>
        <time>2013-08-31T12:45:22Z</time>
      </trkpt>
      <trkpt lat="42.677487" lon="-0.080700">
        <ele>2814.6</ele>
        <time>2013-08-31T12:45:43Z</time>
      </trkpt>
      <trkpt lat="42.677554" lon="-0.080652">
        <ele>2809.3</ele>
        <time>2013-08-31T12:46:06Z</time>
      </trkpt>
      <trkpt lat="42.677650" lon="-0.080565">
        <ele>2806.6</ele>
        <time>2013-08-31T12:46:20Z</time>
      </trkpt>
      <trkpt lat="42.677765" lon="-0.080548">
        <ele>2802.1</ele>
        <time>2013-08-31T12:46:43Z</time>
      </trkpt>
      <trkpt lat="42.677825" lon="-0.080593">
        <ele>2797.9</ele>
        <time>2013-08-31T12:47:07Z</time>
      </trkpt>
      <trkpt lat="42.677904" lon="-0.080592">
        <ele>2792.9</ele>
        <time>2013-08-31T12:47:34Z</time>
      </trkpt>
      <trkpt lat="42.677961" lon="-0.080572">
        <ele>2789.0</ele>
        <time>2013-08-31T12:47:57Z</time>
      </trkpt>
      <trkpt lat="42.678018" lon="-0.080543">
        <ele>2785.0</ele>
        <time>2013-08-31T12:48:20Z</time>
      </trkpt>
      <trkpt lat="42.678100" lon="-0.080566">
        <ele>2779.5</ele>
        <time>2013-08-31T12:48:50Z</time>
      </trkpt>
      <trkpt lat="42.678182" lon="-0.080527">
        <ele>2775.2</ele>
        <time>2013-08-31T12:49:05Z</time>
      </trkpt>
      <trkpt lat="42.678242" lon="-0.080450">
        <ele>2770.9</ele>
        <time>2013-08-31T12:49:15Z</time>
      </trkpt>
      <trkpt lat="42.678354" lon="-0.080437">
        <ele>2766.4</ele>
        <time>2013-08-31T12:49:26Z</time>
      </trkpt>
      <trkpt lat="42.678445" lon="-0.080437">
        <ele>2762.0</ele>
        <time>2013-08-31T12:49:38Z</time>
      </trkpt>
      <trkpt lat="42.678542" lon="-0.080439">
        <ele>2757.0</ele>
        <time>2013-08-31T12:49:51Z</time>
      </trkpt>
      <trkpt lat="42.678633" lon="-0.080384">
        <ele>2753.4</ele>
        <time>2013-08-31T12:49:59Z</time>
      </trkpt>
      <trkpt lat="42.678702" lon="-0.080406">
        <ele>2750.3</ele>
        <time>2013-08-31T12:50:31Z</time>
      </trkpt>
      <trkpt lat="42.678785" lon="-0.080378">
        <ele>2744.8</ele>
        <time>2013-08-31T12:50:47Z</time>
      </trkpt>
      <trkpt lat="42.678907" lon="-0.080363">
        <ele>2739.5</ele>
        <time>2013-08-31T12:50:58Z</time>
      </trkpt>
      <trkpt lat="42.679016" lon="-0.080343">
        <ele>2736.6</ele>
        <time>2013-08-31T12:51:06Z</time>
      </trkpt>
      <trkpt lat="42.679105" lon="-0.080330">
        <ele>2732.5</ele>
        <time>2013-08-31T12:51:20Z</time>
      </trkpt>
      <trkpt lat="42.679112" lon="-0.080310">
        <ele>2732.7</ele>
        <time>2013-08-31T12:53:08Z</time>
      </trkpt>
      <trkpt lat="42.679180" lon="-0.080376">
        <ele>2732.2</ele>
        <time>2013-08-31T12:54:10Z</time>
      </trkpt>
      <trkpt lat="42.679261" lon="-0.080407">
        <ele>2729.2</ele>
        <time>2013-08-31T12:54:30Z</time>
      </trkpt>
      <trkpt lat="42.679353" lon="-0.080442">
        <ele>2725.0</ele>
        <time>2013-08-31T12:54:50Z</time>
      </trkpt>
      <trkpt lat="42.679381" lon="-0.080525">
        <ele>2720.6</ele>
        <time>2013-08-31T12:55:10Z</time>
      </trkpt>
      <trkpt lat="42.679411" lon="-0.080592">
        <ele>2715.0</ele>
        <time>2013-08-31T12:55:46Z</time>
      </trkpt>
      <trkpt lat="42.679455" lon="-0.080662">
        <ele>2710.9</ele>
        <time>2013-08-31T12:56:07Z</time>
      </trkpt>
      <trkpt lat="42.679491" lon="-0.080741">
        <ele>2706.2</ele>
        <time>2013-08-31T12:56:28Z</time>
      </trkpt>
      <trkpt lat="42.679510" lon="-0.080840">
        <ele>2702.1</ele>
        <time>2013-08-31T12:56:49Z</time>
      </trkpt>
      <trkpt lat="42.679519" lon="-0.080937">
        <ele>2697.4</ele>
        <time>2013-08-31T12:57:08Z</time>
      </trkpt>
      <trkpt lat="42.679526" lon="-0.081020">
        <ele>2693.3</ele>
        <time>2013-08-31T12:57:23Z</time>
      </trkpt>
      <trkpt lat="42.679603" lon="-0.081082">
        <ele>2688.5</ele>
        <time>2013-08-31T12:57:39Z</time>
      </trkpt>
      <trkpt lat="42.679617" lon="-0.081160">
        <ele>2685.1</ele>
        <time>2013-08-31T12:57:53Z</time>
      </trkpt>
      <trkpt lat="42.679644" lon="-0.081251">
        <ele>2681.4</ele>
        <time>2013-08-31T12:58:07Z</time>
      </trkpt>
      <trkpt lat="42.679699" lon="-0.081288">
        <ele>2676.0</ele>
        <time>2013-08-31T12:58:41Z</time>
      </trkpt>
      <trkpt lat="42.679741" lon="-0.081346">
        <ele>2674.9</ele>
        <time>2013-08-31T12:59:48Z</time>
      </trkpt>
      <trkpt lat="42.679741" lon="-0.081421">
        <ele>2672.4</ele>
        <time>2013-08-31T13:00:03Z</time>
      </trkpt>
      <trkpt lat="42.679766" lon="-0.081548">
        <ele>2668.4</ele>
        <time>2013-08-31T13:00:19Z</time>
      </trkpt>
      <trkpt lat="42.679798" lon="-0.081664">
        <ele>2663.2</ele>
        <time>2013-08-31T13:00:35Z</time>
      </trkpt>
      <trkpt lat="42.679806" lon="-0.081802">
        <ele>2660.0</ele>
        <time>2013-08-31T13:01:01Z</time>
      </trkpt>
      <trkpt lat="42.679839" lon="-0.081931">
        <ele>2658.1</ele>
        <time>2013-08-31T13:01:10Z</time>
      </trkpt>
      <trkpt lat="42.679875" lon="-0.082057">
        <ele>2656.8</ele>
        <time>2013-08-31T13:01:19Z</time>
      </trkpt>
      <trkpt lat="42.679935" lon="-0.082166">
        <ele>2655.4</ele>
        <time>2013-08-31T13:01:28Z</time>
      </trkpt>
      <trkpt lat="42.680017" lon="-0.082178">
        <ele>2653.8</ele>
        <time>2013-08-31T13:01:41Z</time>
      </trkpt>
      <trkpt lat="42.680119" lon="-0.082160">
        <ele>2652.2</ele>
        <time>2013-08-31T13:01:51Z</time>
      </trkpt>
      <trkpt lat="42.680174" lon="-0.082200">
        <ele>2650.3</ele>
        <time>2013-08-31T13:02:12Z</time>
      </trkpt>
      <trkpt lat="42.680280" lon="-0.082199">
        <ele>2648.2</ele>
        <time>2013-08-31T13:02:26Z</time>
      </trkpt>
      <trkpt lat="42.680372" lon="-0.082180">
        <ele>2644.9</ele>
        <time>2013-08-31T13:02:40Z</time>
      </trkpt>
      <trkpt lat="42.680481" lon="-0.082176">
        <ele>2642.5</ele>
        <time>2013-08-31T13:02:50Z</time>
      </trkpt>
      <trkpt lat="42.680577" lon="-0.082187">
        <ele>2641.6</ele>
        <time>2013-08-31T13:02:59Z</time>
      </trkpt>
      <trkpt lat="42.680672" lon="-0.082194">
        <ele>2640.4</ele>
        <time>2013-08-31T13:03:12Z</time>
      </trkpt>
      <trkpt lat="42.680775" lon="-0.082174">
        <ele>2639.0</ele>
        <time>2013-08-31T13:03:28Z</time>
      </trkpt>
      <trkpt lat="42.680851" lon="-0.082224">
        <ele>2637.7</ele>
        <time>2013-08-31T13:03:47Z</time>
      </trkpt>
      <trkpt lat="42.680936" lon="-0.082318">
        <ele>2634.9</ele>
        <time>2013-08-31T13:04:00Z</time>
      </trkpt>
      <trkpt lat="42.681029" lon="-0.082376">
        <ele>2632.7</ele>
        <time>2013-08-31T13:04:12Z</time>
      </trkpt>
      <trkpt lat="42.681111" lon="-0.082445">
        <ele>2630.9</ele>
        <time>2013-08-31T13:04:24Z</time>
      </trkpt>
      <trkpt lat="42.681202" lon="-0.082460">
        <ele>2629.7</ele>
        <time>2013-08-31T13:04:38Z</time>
      </trkpt>
      <trkpt lat="42.681304" lon="-0.082406">
        <ele>2629.6</ele>
        <time>2013-08-31T13:04:54Z</time>
      </trkpt>
      <trkpt lat="42.681364" lon="-0.082371">
        <ele>2629.0</ele>
        <time>2013-08-31T13:05:19Z</time>
      </trkpt>
      <trkpt lat="42.681402" lon="-0.082344">
        <ele>2628.0</ele>
        <time>2013-08-31T13:05:46Z</time>
      </trkpt>
      <trkpt lat="42.681497" lon="-0.082347">
        <ele>2627.1</ele>
        <time>2013-08-31T13:05:56Z</time>
      </trkpt>
      <trkpt lat="42.681580" lon="-0.082385">
        <ele>2627.5</ele>
        <time>2013-08-31T13:06:05Z</time>
      </trkpt>
      <trkpt lat="42.681664" lon="-0.082454">
        <ele>2629.0</ele>
        <time>2013-08-31T13:06:16Z</time>
      </trkpt>
      <trkpt lat="42.681754" lon="-0.082513">
        <ele>2631.2</ele>
        <time>2013-08-31T13:06:30Z</time>
      </trkpt>
      <trkpt lat="42.681847" lon="-0.082523">
        <ele>2631.2</ele>
        <time>2013-08-31T13:06:57Z</time>
      </trkpt>
      <trkpt lat="42.681942" lon="-0.082513">
        <ele>2630.1</ele>
        <time>2013-08-31T13:07:09Z</time>
      </trkpt>
      <trkpt lat="42.682028" lon="-0.082491">
        <ele>2627.3</ele>
        <time>2013-08-31T13:08:03Z</time>
      </trkpt>
      <trkpt lat="42.682091" lon="-0.082391">
        <ele>2625.0</ele>
        <time>2013-08-31T13:08:19Z</time>
      </trkpt>
      <trkpt lat="42.682178" lon="-0.082355">
        <ele>2623.2</ele>
        <time>2013-08-31T13:08:35Z</time>
      </trkpt>
      <trkpt lat="42.682223" lon="-0.082362">
        <ele>2620.0</ele>
        <time>2013-08-31T13:08:52Z</time>
      </trkpt>
      <trkpt lat="42.682255" lon="-0.082353">
        <ele>2617.4</ele>
        <time>2013-08-31T13:09:15Z</time>
      </trkpt>
      <trkpt lat="42.682288" lon="-0.082233">
        <ele>2616.1</ele>
        <time>2013-08-31T13:09:47Z</time>
      </trkpt>
      <trkpt lat="42.682329" lon="-0.082292">
        <ele>2616.6</ele>
        <time>2013-08-31T13:10:17Z</time>
      </trkpt>
      <trkpt lat="42.682388" lon="-0.082424">
        <ele>2614.2</ele>
        <time>2013-08-31T13:10:33Z</time>
      </trkpt>
      <trkpt lat="42.682427" lon="-0.082543">
        <ele>2613.7</ele>
        <time>2013-08-31T13:10:43Z</time>
      </trkpt>
      <trkpt lat="42.682504" lon="-0.082583">
        <ele>2613.6</ele>
        <time>2013-08-31T13:10:58Z</time>
      </trkpt>
      <trkpt lat="42.682555" lon="-0.082553">
        <ele>2613.3</ele>
        <time>2013-08-31T13:11:09Z</time>
      </trkpt>
      <trkpt lat="42.682643" lon="-0.082429">
        <ele>2613.8</ele>
        <time>2013-08-31T13:11:19Z</time>
      </trkpt>
      <trkpt lat="42.682726" lon="-0.082290">
        <ele>2614.9</ele>
        <time>2013-08-31T13:11:32Z</time>
      </trkpt>
      <trkpt lat="42.682747" lon="-0.082243">
        <ele>2613.4</ele>
        <time>2013-08-31T13:11:57Z</time>
      </trkpt>
      <trkpt lat="42.682845" lon="-0.082252">
        <ele>2612.2</ele>
        <time>2013-08-31T13:12:13Z</time>
      </trkpt>
      <trkpt lat="42.682944" lon="-0.082234">
        <ele>2610.2</ele>
        <time>2013-08-31T13:12:21Z</time>
      </trkpt>
      <trkpt lat="42.683038" lon="-0.082241">
        <ele>2609.6</ele>
        <time>2013-08-31T13:12:30Z</time>
      </trkpt>
      <trkpt lat="42.683140" lon="-0.082212">
        <ele>2608.4</ele>
        <time>2013-08-31T13:12:39Z</time>
      </trkpt>
      <trkpt lat="42.683224" lon="-0.082247">
        <ele>2606.7</ele>
        <time>2013-08-31T13:12:48Z</time>
      </trkpt>
      <trkpt lat="42.683230" lon="-0.082161">
        <ele>2604.7</ele>
        <time>2013-08-31T13:13:00Z</time>
      </trkpt>
      <trkpt lat="42.683225" lon="-0.082056">
        <ele>2603.4</ele>
        <time>2013-08-31T13:13:19Z</time>
      </trkpt>
      <trkpt lat="42.683253" lon="-0.081966">
        <ele>2602.5</ele>
        <time>2013-08-31T13:13:37Z</time>
      </trkpt>
      <trkpt lat="42.683311" lon="-0.081912">
        <ele>2599.3</ele>
        <time>2013-08-31T13:13:50Z</time>
      </trkpt>
      <trkpt lat="42.683381" lon="-0.082025">
        <ele>2595.3</ele>
        <time>2013-08-31T13:14:06Z</time>
      </trkpt>
      <trkpt lat="42.683477" lon="-0.082157">
        <ele>2593.0</ele>
        <time>2013-08-31T13:14:13Z</time>
      </trkpt>
      <trkpt lat="42.683530" lon="-0.082153">
        <ele>2589.1</ele>
        <time>2013-08-31T13:14:30Z</time>
      </trkpt>
      <trkpt lat="42.683557" lon="-0.082040">
        <ele>2588.6</ele>
        <time>2013-08-31T13:14:52Z</time>
      </trkpt>
      <trkpt lat="42.683644" lon="-0.081988">
        <ele>2585.2</ele>
        <time>2013-08-31T13:15:02Z</time>
      </trkpt>
      <trkpt lat="42.683757" lon="-0.082064">
        <ele>2581.1</ele>
        <time>2013-08-31T13:15:19Z</time>
      </trkpt>
      <trkpt lat="42.683827" lon="-0.082096">
        <ele>2579.2</ele>
        <time>2013-08-31T13:15:25Z</time>
      </trkpt>
      <trkpt lat="42.683855" lon="-0.082123">
        <ele>2577.8</ele>
        <time>2013-08-31T13:15:32Z</time>
      </trkpt>
      <trkpt lat="42.683891" lon="-0.082054">
        <ele>2577.9</ele>
        <time>2013-08-31T13:15:44Z</time>
      </trkpt>
      <trkpt lat="42.683957" lon="-0.081964">
        <ele>2577.1</ele>
        <time>2013-08-31T13:15:56Z</time>
      </trkpt>
      <trkpt lat="42.684055" lon="-0.081915">
        <ele>2575.0</ele>
        <time>2013-08-31T13:16:07Z</time>
      </trkpt>
      <trkpt lat="42.684142" lon="-0.081874">
        <ele>2571.5</ele>
        <time>2013-08-31T13:16:19Z</time>
      </trkpt>
      <trkpt lat="42.684193" lon="-0.081789">
        <ele>2569.0</ele>
        <time>2013-08-31T13:16:30Z</time>
      </trkpt>
      <trkpt lat="42.684272" lon="-0.081716">
        <ele>2565.4</ele>
        <time>2013-08-31T13:16:47Z</time>
      </trkpt>
      <trkpt lat="42.684332" lon="-0.081601">
        <ele>2562.5</ele>
        <time>2013-08-31T13:17:02Z</time>
      </trkpt>
      <trkpt lat="42.684390" lon="-0.081498">
        <ele>2559.3</ele>
        <time>2013-08-31T13:17:16Z</time>
      </trkpt>
      <trkpt lat="42.684443" lon="-0.081385">
        <ele>2556.3</ele>
        <time>2013-08-31T13:17:29Z</time>
      </trkpt>
      <trkpt lat="42.684439" lon="-0.081276">
        <ele>2552.9</ele>
        <time>2013-08-31T13:17:46Z</time>
      </trkpt>
      <trkpt lat="42.684510" lon="-0.081225">
        <ele>2552.1</ele>
        <time>2013-08-31T13:18:11Z</time>
      </trkpt>
      <trkpt lat="42.684494" lon="-0.081078">
        <ele>2549.6</ele>
        <time>2013-08-31T13:18:27Z</time>
      </trkpt>
      <trkpt lat="42.684515" lon="-0.080922">
        <ele>2547.4</ele>
        <time>2013-08-31T13:18:41Z</time>
      </trkpt>
      <trkpt lat="42.684591" lon="-0.080819">
        <ele>2543.6</ele>
        <time>2013-08-31T13:18:55Z</time>
      </trkpt>
      <trkpt lat="42.684640" lon="-0.080687">
        <ele>2539.9</ele>
        <time>2013-08-31T13:19:08Z</time>
      </trkpt>
      <trkpt lat="42.684636" lon="-0.080537">
        <ele>2535.7</ele>
        <time>2013-08-31T13:19:25Z</time>
      </trkpt>
      <trkpt lat="42.684734" lon="-0.080395">
        <ele>2531.0</ele>
        <time>2013-08-31T13:19:42Z</time>
      </trkpt>
      <trkpt lat="42.684814" lon="-0.080356">
        <ele>2526.7</ele>
        <time>2013-08-31T13:20:02Z</time>
      </trkpt>
      <trkpt lat="42.684808" lon="-0.080379">
        <ele>2523.0</ele>
        <time>2013-08-31T13:20:33Z</time>
      </trkpt>
      <trkpt lat="42.684886" lon="-0.080455">
        <ele>2518.8</ele>
        <time>2013-08-31T13:20:53Z</time>
      </trkpt>
      <trkpt lat="42.684978" lon="-0.080558">
        <ele>2515.0</ele>
        <time>2013-08-31T13:21:03Z</time>
      </trkpt>
      <trkpt lat="42.685035" lon="-0.080636">
        <ele>2513.5</ele>
        <time>2013-08-31T13:21:10Z</time>
      </trkpt>
      <trkpt lat="42.685120" lon="-0.080639">
        <ele>2512.0</ele>
        <time>2013-08-31T13:21:18Z</time>
      </trkpt>
      <trkpt lat="42.685197" lon="-0.080672">
        <ele>2511.1</ele>
        <time>2013-08-31T13:21:26Z</time>
      </trkpt>
      <trkpt lat="42.685297" lon="-0.080693">
        <ele>2511.3</ele>
        <time>2013-08-31T13:21:33Z</time>
      </trkpt>
      <trkpt lat="42.685337" lon="-0.080715">
        <ele>2513.4</ele>
        <time>2013-08-31T13:21:52Z</time>
      </trkpt>
      <trkpt lat="42.685245" lon="-0.080721">
        <ele>2513.2</ele>
        <time>2013-08-31T13:22:03Z</time>
      </trkpt>
      <trkpt lat="42.685223" lon="-0.080688">
        <ele>2513.1</ele>
        <time>2013-08-31T13:22:20Z</time>
      </trkpt>
      <trkpt lat="42.685227" lon="-0.080745">
        <ele>2513.1</ele>
        <time>2013-08-31T13:22:38Z</time>
      </trkpt>
      <trkpt lat="42.685303" lon="-0.080744">
        <ele>2513.3</ele>
        <time>2013-08-31T13:22:57Z</time>
      </trkpt>
      <trkpt lat="42.685281" lon="-0.080587">
        <ele>2512.8</ele>
        <time>2013-08-31T13:23:12Z</time>
      </trkpt>
      <trkpt lat="42.685332" lon="-0.080558">
        <ele>2509.6</ele>
        <time>2013-08-31T13:23:39Z</time>
      </trkpt>
      <trkpt lat="42.685450" lon="-0.080540">
        <ele>2508.9</ele>
        <time>2013-08-31T13:23:58Z</time>
      </trkpt>
      <trkpt lat="42.685557" lon="-0.080452">
        <ele>2503.9</ele>
        <time>2013-08-31T13:24:16Z</time>
      </trkpt>
      <trkpt lat="42.685640" lon="-0.080355">
        <ele>2499.5</ele>
        <time>2013-08-31T13:24:31Z</time>
      </trkpt>
      <trkpt lat="42.685716" lon="-0.080269">
        <ele>2495.6</ele>
        <time>2013-08-31T13:24:45Z</time>
      </trkpt>
      <trkpt lat="42.685783" lon="-0.080193">
        <ele>2492.3</ele>
        <time>2013-08-31T13:24:59Z</time>
      </trkpt>
      <trkpt lat="42.685848" lon="-0.080043">
        <ele>2492.1</ele>
        <time>2013-08-31T13:25:12Z</time>
      </trkpt>
      <trkpt lat="42.685917" lon="-0.079949">
        <ele>2494.6</ele>
        <time>2013-08-31T13:25:24Z</time>
      </trkpt>
      <trkpt lat="42.686039" lon="-0.079932">
        <ele>2496.5</ele>
        <time>2013-08-31T13:25:38Z</time>
      </trkpt>
      <trkpt lat="42.686134" lon="-0.079976">
        <ele>2498.7</ele>
        <time>2013-08-31T13:25:50Z</time>
      </trkpt>
      <trkpt lat="42.686235" lon="-0.080002">
        <ele>2501.6</ele>
        <time>2013-08-31T13:26:04Z</time>
      </trkpt>
      <trkpt lat="42.686289" lon="-0.079906">
        <ele>2502.9</ele>
        <time>2013-08-31T13:26:18Z</time>
      </trkpt>
      <trkpt lat="42.686389" lon="-0.079839">
        <ele>2501.9</ele>
        <time>2013-08-31T13:26:30Z</time>
      </trkpt>
      <trkpt lat="42.686486" lon="-0.079792">
        <ele>2501.1</ele>
        <time>2013-08-31T13:26:41Z</time>
      </trkpt>
      <trkpt lat="42.686601" lon="-0.079764">
        <ele>2501.1</ele>
        <time>2013-08-31T13:26:52Z</time>
      </trkpt>
      <trkpt lat="42.686693" lon="-0.079697">
        <ele>2503.3</ele>
        <time>2013-08-31T13:27:04Z</time>
      </trkpt>
      <trkpt lat="42.686794" lon="-0.079634">
        <ele>2505.4</ele>
        <time>2013-08-31T13:27:15Z</time>
      </trkpt>
      <trkpt lat="42.686882" lon="-0.079582">
        <ele>2507.7</ele>
        <time>2013-08-31T13:27:29Z</time>
      </trkpt>
      <trkpt lat="42.686954" lon="-0.079539">
        <ele>2510.1</ele>
        <time>2013-08-31T13:27:47Z</time>
      </trkpt>
      <trkpt lat="42.687054" lon="-0.079612">
        <ele>2512.3</ele>
        <time>2013-08-31T13:28:02Z</time>
      </trkpt>
      <trkpt lat="42.687108" lon="-0.079638">
        <ele>2515.6</ele>
        <time>2013-08-31T13:28:23Z</time>
      </trkpt>
      <trkpt lat="42.687145" lon="-0.079682">
        <ele>2520.3</ele>
        <time>2013-08-31T13:28:52Z</time>
      </trkpt>
      <trkpt lat="42.687251" lon="-0.079777">
        <ele>2524.0</ele>
        <time>2013-08-31T13:29:15Z</time>
      </trkpt>
      <trkpt lat="42.687372" lon="-0.079825">
        <ele>2527.2</ele>
        <time>2013-08-31T13:29:35Z</time>
      </trkpt>
      <trkpt lat="42.687411" lon="-0.079750">
        <ele>2530.3</ele>
        <time>2013-08-31T13:29:53Z</time>
      </trkpt>
      <trkpt lat="42.687426" lon="-0.079658">
        <ele>2532.6</ele>
        <time>2013-08-31T13:30:16Z</time>
      </trkpt>
      <trkpt lat="42.687374" lon="-0.079761">
        <ele>2532.9</ele>
        <time>2013-08-31T13:30:35Z</time>
      </trkpt>
      <trkpt lat="42.687369" lon="-0.079700">
        <ele>2532.4</ele>
        <time>2013-08-31T13:31:15Z</time>
      </trkpt>
      <trkpt lat="42.687368" lon="-0.079566">
        <ele>2534.1</ele>
        <time>2013-08-31T13:31:32Z</time>
      </trkpt>
      <trkpt lat="42.687473" lon="-0.079468">
        <ele>2536.1</ele>
        <time>2013-08-31T13:31:46Z</time>
      </trkpt>
      <trkpt lat="42.687543" lon="-0.079375">
        <ele>2537.8</ele>
        <time>2013-08-31T13:32:00Z</time>
      </trkpt>
      <trkpt lat="42.687635" lon="-0.079301">
        <ele>2540.4</ele>
        <time>2013-08-31T13:32:16Z</time>
      </trkpt>
      <trkpt lat="42.687725" lon="-0.079264">
        <ele>2543.4</ele>
        <time>2013-08-31T13:32:29Z</time>
      </trkpt>
      <trkpt lat="42.687832" lon="-0.079348">
        <ele>2546.1</ele>
        <time>2013-08-31T13:32:43Z</time>
      </trkpt>
      <trkpt lat="42.687945" lon="-0.079309">
        <ele>2548.0</ele>
        <time>2013-08-31T13:32:56Z</time>
      </trkpt>
      <trkpt lat="42.687861" lon="-0.079295">
        <ele>2548.8</ele>
        <time>2013-08-31T13:33:23Z</time>
      </trkpt>
      <trkpt lat="42.687896" lon="-0.079238">
        <ele>2548.1</ele>
        <time>2013-08-31T13:33:56Z</time>
      </trkpt>
      <trkpt lat="42.687890" lon="-0.079074">
        <ele>2546.9</ele>
        <time>2013-08-31T13:34:09Z</time>
      </trkpt>
      <trkpt lat="42.687866" lon="-0.078928">
        <ele>2546.7</ele>
        <time>2013-08-31T13:34:21Z</time>
      </trkpt>
      <trkpt lat="42.687870" lon="-0.078767">
        <ele>2545.3</ele>
        <time>2013-08-31T13:34:34Z</time>
      </trkpt>
      <trkpt lat="42.687898" lon="-0.078628">
        <ele>2544.4</ele>
        <time>2013-08-31T13:34:47Z</time>
      </trkpt>
      <trkpt lat="42.687914" lon="-0.078484">
        <ele>2545.4</ele>
        <time>2013-08-31T13:35:01Z</time>
      </trkpt>
      <trkpt lat="42.687905" lon="-0.078347">
        <ele>2546.6</ele>
        <time>2013-08-31T13:35:13Z</time>
      </trkpt>
      <trkpt lat="42.687888" lon="-0.078203">
        <ele>2547.4</ele>
        <time>2013-08-31T13:35:25Z</time>
      </trkpt>
      <trkpt lat="42.687920" lon="-0.078070">
        <ele>2547.9</ele>
        <time>2013-08-31T13:35:36Z</time>
      </trkpt>
      <trkpt lat="42.687964" lon="-0.077926">
        <ele>2548.4</ele>
        <time>2013-08-31T13:35:47Z</time>
      </trkpt>
      <trkpt lat="42.687950" lon="-0.077780">
        <ele>2547.8</ele>
        <time>2013-08-31T13:35:57Z</time>
      </trkpt>
      <trkpt lat="42.688030" lon="-0.077682">
        <ele>2547.5</ele>
        <time>2013-08-31T13:36:09Z</time>
      </trkpt>
      <trkpt lat="42.688148" lon="-0.077619">
        <ele>2546.2</ele>
        <time>2013-08-31T13:36:20Z</time>
      </trkpt>
      <trkpt lat="42.688183" lon="-0.077494">
        <ele>2543.7</ele>
        <time>2013-08-31T13:36:35Z</time>
      </trkpt>
      <trkpt lat="42.688206" lon="-0.077353">
        <ele>2542.5</ele>
        <time>2013-08-31T13:36:45Z</time>
      </trkpt>
      <trkpt lat="42.688233" lon="-0.077224">
        <ele>2543.0</ele>
        <time>2013-08-31T13:36:54Z</time>
      </trkpt>
      <trkpt lat="42.688271" lon="-0.077091">
        <ele>2543.4</ele>
        <time>2013-08-31T13:37:05Z</time>
      </trkpt>
      <trkpt lat="42.688352" lon="-0.076983">
        <ele>2542.7</ele>
        <time>2013-08-31T13:37:16Z</time>
      </trkpt>
      <trkpt lat="42.688447" lon="-0.076854">
        <ele>2542.0</ele>
        <time>2013-08-31T13:37:27Z</time>
      </trkpt>
      <trkpt lat="42.688525" lon="-0.076751">
        <ele>2541.4</ele>
        <time>2013-08-31T13:37:37Z</time>
      </trkpt>
      <trkpt lat="42.688587" lon="-0.076652">
        <ele>2541.2</ele>
        <time>2013-08-31T13:37:48Z</time>
      </trkpt>
      <trkpt lat="42.688699" lon="-0.076530">
        <ele>2541.2</ele>
        <time>2013-08-31T13:37:58Z</time>
      </trkpt>
      <trkpt lat="42.688757" lon="-0.076437">
        <ele>2540.9</ele>
        <time>2013-08-31T13:38:08Z</time>
      </trkpt>
      <trkpt lat="42.688748" lon="-0.076363">
        <ele>2540.1</ele>
        <time>2013-08-31T13:38:29Z</time>
      </trkpt>
      <trkpt lat="42.688779" lon="-0.076327">
        <ele>2540.4</ele>
        <time>2013-08-31T13:38:49Z</time>
      </trkpt>
      <trkpt lat="42.688815" lon="-0.076245">
        <ele>2539.1</ele>
        <time>2013-08-31T13:39:09Z</time>
      </trkpt>
      <trkpt lat="42.688846" lon="-0.076095">
        <ele>2536.1</ele>
        <time>2013-08-31T13:39:24Z</time>
      </trkpt>
      <trkpt lat="42.688852" lon="-0.075940">
        <ele>2534.5</ele>
        <time>2013-08-31T13:39:37Z</time>
      </trkpt>
      <trkpt lat="42.688927" lon="-0.075800">
        <ele>2533.5</ele>
        <time>2013-08-31T13:39:52Z</time>
      </trkpt>
      <trkpt lat="42.689001" lon="-0.075818">
        <ele>2533.4</ele>
        <time>2013-08-31T13:40:12Z</time>
      </trkpt>
      <trkpt lat="42.689034" lon="-0.075697">
        <ele>2533.3</ele>
        <time>2013-08-31T13:40:26Z</time>
      </trkpt>
      <trkpt lat="42.689096" lon="-0.075660">
        <ele>2532.0</ele>
        <time>2013-08-31T13:40:39Z</time>
      </trkpt>
      <trkpt lat="42.689199" lon="-0.075700">
        <ele>2528.1</ele>
        <time>2013-08-31T13:40:55Z</time>
      </trkpt>
      <trkpt lat="42.689301" lon="-0.075669">
        <ele>2525.6</ele>
        <time>2013-08-31T13:41:06Z</time>
      </trkpt>
      <trkpt lat="42.689411" lon="-0.075687">
        <ele>2524.0</ele>
        <time>2013-08-31T13:41:17Z</time>
      </trkpt>
      <trkpt lat="42.689514" lon="-0.075725">
        <ele>2524.4</ele>
        <time>2013-08-31T13:41:30Z</time>
      </trkpt>
      <trkpt lat="42.689610" lon="-0.075723">
        <ele>2524.1</ele>
        <time>2013-08-31T13:41:41Z</time>
      </trkpt>
      <trkpt lat="42.689727" lon="-0.075732">
        <ele>2526.0</ele>
        <time>2013-08-31T13:41:54Z</time>
      </trkpt>
      <trkpt lat="42.689802" lon="-0.075727">
        <ele>2528.7</ele>
        <time>2013-08-31T13:42:07Z</time>
      </trkpt>
      <trkpt lat="42.689896" lon="-0.075801">
        <ele>2530.2</ele>
        <time>2013-08-31T13:42:19Z</time>
      </trkpt>
      <trkpt lat="42.690009" lon="-0.075896">
        <ele>2531.0</ele>
        <time>2013-08-31T13:42:33Z</time>
      </trkpt>
      <trkpt lat="42.690053" lon="-0.076008">
        <ele>2530.5</ele>
        <time>2013-08-31T13:42:46Z</time>
      </trkpt>
      <trkpt lat="42.690154" lon="-0.076101">
        <ele>2529.8</ele>
        <time>2013-08-31T13:42:59Z</time>
      </trkpt>
      <trkpt lat="42.690195" lon="-0.076234">
        <ele>2530.2</ele>
        <time>2013-08-31T13:43:12Z</time>
      </trkpt>
      <trkpt lat="42.690240" lon="-0.076377">
        <ele>2530.4</ele>
        <time>2013-08-31T13:43:23Z</time>
      </trkpt>
      <trkpt lat="42.690293" lon="-0.076500">
        <ele>2531.0</ele>
        <time>2013-08-31T13:43:38Z</time>
      </trkpt>
      <trkpt lat="42.690336" lon="-0.076640">
        <ele>2530.8</ele>
        <time>2013-08-31T13:43:49Z</time>
      </trkpt>
      <trkpt lat="42.690371" lon="-0.076774">
        <ele>2529.7</ele>
        <time>2013-08-31T13:44:01Z</time>
      </trkpt>
      <trkpt lat="42.690436" lon="-0.076852">
        <ele>2530.0</ele>
        <time>2013-08-31T13:44:20Z</time>
      </trkpt>
      <trkpt lat="42.690524" lon="-0.076944">
        <ele>2530.5</ele>
        <time>2013-08-31T13:44:35Z</time>
      </trkpt>
      <trkpt lat="42.690567" lon="-0.077086">
        <ele>2531.5</ele>
        <time>2013-08-31T13:44:50Z</time>
      </trkpt>
      <trkpt lat="42.690588" lon="-0.077234">
        <ele>2532.8</ele>
        <time>2013-08-31T13:45:11Z</time>
      </trkpt>
      <trkpt lat="42.690609" lon="-0.077357">
        <ele>2532.2</ele>
        <time>2013-08-31T13:45:25Z</time>
      </trkpt>
      <trkpt lat="42.690574" lon="-0.077485">
        <ele>2530.5</ele>
        <time>2013-08-31T13:45:41Z</time>
      </trkpt>
      <trkpt lat="42.690604" lon="-0.077612">
        <ele>2528.8</ele>
        <time>2013-08-31T13:45:51Z</time>
      </trkpt>
      <trkpt lat="42.690606" lon="-0.077754">
        <ele>2527.6</ele>
        <time>2013-08-31T13:46:02Z</time>
      </trkpt>
      <trkpt lat="42.690610" lon="-0.077886">
        <ele>2526.2</ele>
        <time>2013-08-31T13:46:16Z</time>
      </trkpt>
      <trkpt lat="42.690652" lon="-0.077980">
        <ele>2526.0</ele>
        <time>2013-08-31T13:46:28Z</time>
      </trkpt>
      <trkpt lat="42.690643" lon="-0.078104">
        <ele>2523.4</ele>
        <time>2013-08-31T13:46:42Z</time>
      </trkpt>
      <trkpt lat="42.690644" lon="-0.078126">
        <ele>2521.2</ele>
        <time>2013-08-31T13:47:35Z</time>
      </trkpt>
      <trkpt lat="42.690648" lon="-0.078173">
        <ele>2520.3</ele>
        <time>2013-08-31T13:48:11Z</time>
      </trkpt>
      <trkpt lat="42.690642" lon="-0.078215">
        <ele>2518.1</ele>
        <time>2013-08-31T13:48:48Z</time>
      </trkpt>
      <trkpt lat="42.690614" lon="-0.078309">
        <ele>2514.8</ele>
        <time>2013-08-31T13:49:07Z</time>
      </trkpt>
      <trkpt lat="42.690646" lon="-0.078381">
        <ele>2511.1</ele>
        <time>2013-08-31T13:49:22Z</time>
      </trkpt>
      <trkpt lat="42.690643" lon="-0.078464">
        <ele>2508.5</ele>
        <time>2013-08-31T13:49:36Z</time>
      </trkpt>
      <trkpt lat="42.690667" lon="-0.078585">
        <ele>2504.9</ele>
        <time>2013-08-31T13:49:52Z</time>
      </trkpt>
      <trkpt lat="42.690720" lon="-0.078647">
        <ele>2501.2</ele>
        <time>2013-08-31T13:53:55Z</time>
      </trkpt>
      <trkpt lat="42.690780" lon="-0.078639">
        <ele>2507.6</ele>
        <time>2013-08-31T13:54:26Z</time>
      </trkpt>
      <trkpt lat="42.690836" lon="-0.078687">
        <ele>2511.1</ele>
        <time>2013-08-31T13:54:58Z</time>
      </trkpt>
      <trkpt lat="42.690906" lon="-0.078754">
        <ele>2514.0</ele>
        <time>2013-08-31T13:55:21Z</time>
      </trkpt>
      <trkpt lat="42.690949" lon="-0.078868">
        <ele>2513.1</ele>
        <time>2013-08-31T13:55:45Z</time>
      </trkpt>
      <trkpt lat="42.690996" lon="-0.078955">
        <ele>2511.5</ele>
        <time>2013-08-31T13:56:14Z</time>
      </trkpt>
      <trkpt lat="42.690975" lon="-0.079065">
        <ele>2509.8</ele>
        <time>2013-08-31T13:56:37Z</time>
      </trkpt>
      <trkpt lat="42.690978" lon="-0.079116">
        <ele>2506.9</ele>
        <time>2013-08-31T13:56:58Z</time>
      </trkpt>
      <trkpt lat="42.690990" lon="-0.079083">
        <ele>2510.7</ele>
        <time>2013-08-31T13:57:22Z</time>
      </trkpt>
      <trkpt lat="42.691064" lon="-0.079135">
        <ele>2516.9</ele>
        <time>2013-08-31T13:57:48Z</time>
      </trkpt>
      <trkpt lat="42.691121" lon="-0.079174">
        <ele>2521.6</ele>
        <time>2013-08-31T13:58:23Z</time>
      </trkpt>
      <trkpt lat="42.691112" lon="-0.079270">
        <ele>2519.3</ele>
        <time>2013-08-31T13:58:49Z</time>
      </trkpt>
      <trkpt lat="42.691148" lon="-0.079348">
        <ele>2515.8</ele>
        <time>2013-08-31T13:59:08Z</time>
      </trkpt>
      <trkpt lat="42.691171" lon="-0.079421">
        <ele>2514.7</ele>
        <time>2013-08-31T13:59:46Z</time>
      </trkpt>
      <trkpt lat="42.691181" lon="-0.079559">
        <ele>2512.6</ele>
        <time>2013-08-31T13:59:59Z</time>
      </trkpt>
      <trkpt lat="42.691184" lon="-0.079697">
        <ele>2510.2</ele>
        <time>2013-08-31T14:00:09Z</time>
      </trkpt>
      <trkpt lat="42.691169" lon="-0.079841">
        <ele>2506.6</ele>
        <time>2013-08-31T14:00:22Z</time>
      </trkpt>
      <trkpt lat="42.691188" lon="-0.079980">
        <ele>2504.2</ele>
        <time>2013-08-31T14:00:33Z</time>
      </trkpt>
      <trkpt lat="42.691220" lon="-0.080100">
        <ele>2501.9</ele>
        <time>2013-08-31T14:00:47Z</time>
      </trkpt>
      <trkpt lat="42.691283" lon="-0.080158">
        <ele>2503.6</ele>
        <time>2013-08-31T14:01:13Z</time>
      </trkpt>
      <trkpt lat="42.691284" lon="-0.080051">
        <ele>2507.8</ele>
        <time>2013-08-31T14:01:33Z</time>
      </trkpt>
      <trkpt lat="42.691340" lon="-0.079966">
        <ele>2512.1</ele>
        <time>2013-08-31T14:02:01Z</time>
      </trkpt>
      <trkpt lat="42.691369" lon="-0.080062">
        <ele>2512.0</ele>
        <time>2013-08-31T14:02:29Z</time>
      </trkpt>
      <trkpt lat="42.691407" lon="-0.080108">
        <ele>2513.8</ele>
        <time>2013-08-31T14:02:53Z</time>
        <name>Forqueta de Gabieto</name>
      </trkpt>
      <trkpt lat="42.691471" lon="-0.080073">
        <ele>2513.2</ele>
        <time>2013-08-31T14:04:54Z</time>
      </trkpt>
      <trkpt lat="42.691435" lon="-0.080039">
        <ele>2529.2</ele>
        <time>2013-08-31T14:06:12Z</time>
      </trkpt>
      <trkpt lat="42.691567" lon="-0.079886">
        <ele>2523.3</ele>
        <time>2013-08-31T14:07:49Z</time>
      </trkpt>
      <trkpt lat="42.691637" lon="-0.079775">
        <ele>2517.3</ele>
        <time>2013-08-31T14:08:22Z</time>
      </trkpt>
      <trkpt lat="42.691629" lon="-0.079675">
        <ele>2511.4</ele>
        <time>2013-08-31T14:08:45Z</time>
      </trkpt>
      <trkpt lat="42.691651" lon="-0.079598">
        <ele>2504.2</ele>
        <time>2013-08-31T14:09:18Z</time>
      </trkpt>
      <trkpt lat="42.691668" lon="-0.079453">
        <ele>2500.4</ele>
        <time>2013-08-31T14:09:35Z</time>
      </trkpt>
      <trkpt lat="42.691632" lon="-0.079359">
        <ele>2495.2</ele>
        <time>2013-08-31T14:09:57Z</time>
      </trkpt>
      <trkpt lat="42.691648" lon="-0.079306">
        <ele>2490.5</ele>
        <time>2013-08-31T14:11:04Z</time>
      </trkpt>
      <trkpt lat="42.691723" lon="-0.079284">
        <ele>2486.7</ele>
        <time>2013-08-31T14:11:19Z</time>
      </trkpt>
      <trkpt lat="42.691727" lon="-0.079172">
        <ele>2482.2</ele>
        <time>2013-08-31T14:11:37Z</time>
      </trkpt>
      <trkpt lat="42.691763" lon="-0.079090">
        <ele>2477.3</ele>
        <time>2013-08-31T14:11:55Z</time>
      </trkpt>
      <trkpt lat="42.691717" lon="-0.078964">
        <ele>2473.3</ele>
        <time>2013-08-31T14:12:08Z</time>
      </trkpt>
      <trkpt lat="42.691774" lon="-0.078933">
        <ele>2469.3</ele>
        <time>2013-08-31T14:12:22Z</time>
      </trkpt>
      <trkpt lat="42.691865" lon="-0.078939">
        <ele>2464.4</ele>
        <time>2013-08-31T14:12:38Z</time>
      </trkpt>
      <trkpt lat="42.691961" lon="-0.078974">
        <ele>2460.8</ele>
        <time>2013-08-31T14:12:51Z</time>
      </trkpt>
      <trkpt lat="42.692045" lon="-0.079010">
        <ele>2456.7</ele>
        <time>2013-08-31T14:13:05Z</time>
      </trkpt>
      <trkpt lat="42.692139" lon="-0.079012">
        <ele>2452.3</ele>
        <time>2013-08-31T14:13:20Z</time>
      </trkpt>
      <trkpt lat="42.692226" lon="-0.078997">
        <ele>2448.1</ele>
        <time>2013-08-31T14:13:33Z</time>
      </trkpt>
      <trkpt lat="42.692319" lon="-0.079035">
        <ele>2444.3</ele>
        <time>2013-08-31T14:13:48Z</time>
      </trkpt>
      <trkpt lat="42.692407" lon="-0.079031">
        <ele>2440.8</ele>
        <time>2013-08-31T14:14:04Z</time>
      </trkpt>
      <trkpt lat="42.692471" lon="-0.079000">
        <ele>2437.1</ele>
        <time>2013-08-31T14:14:29Z</time>
      </trkpt>
      <trkpt lat="42.692560" lon="-0.078999">
        <ele>2433.4</ele>
        <time>2013-08-31T14:14:45Z</time>
      </trkpt>
      <trkpt lat="42.692633" lon="-0.079003">
        <ele>2428.2</ele>
        <time>2013-08-31T14:15:31Z</time>
      </trkpt>
      <trkpt lat="42.692761" lon="-0.079022">
        <ele>2427.1</ele>
        <time>2013-08-31T14:15:54Z</time>
      </trkpt>
      <trkpt lat="42.692866" lon="-0.079029">
        <ele>2424.9</ele>
        <time>2013-08-31T14:16:07Z</time>
      </trkpt>
      <trkpt lat="42.692968" lon="-0.079020">
        <ele>2420.7</ele>
        <time>2013-08-31T14:16:23Z</time>
      </trkpt>
      <trkpt lat="42.693049" lon="-0.079043">
        <ele>2416.7</ele>
        <time>2013-08-31T14:16:38Z</time>
      </trkpt>
      <trkpt lat="42.693051" lon="-0.078901">
        <ele>2413.8</ele>
        <time>2013-08-31T14:16:55Z</time>
      </trkpt>
      <trkpt lat="42.693126" lon="-0.078934">
        <ele>2410.9</ele>
        <time>2013-08-31T14:17:09Z</time>
      </trkpt>
      <trkpt lat="42.693187" lon="-0.078867">
        <ele>2407.5</ele>
        <time>2013-08-31T14:17:23Z</time>
      </trkpt>
      <trkpt lat="42.693268" lon="-0.078775">
        <ele>2405.7</ele>
        <time>2013-08-31T14:17:33Z</time>
      </trkpt>
      <trkpt lat="42.693359" lon="-0.078759">
        <ele>2403.9</ele>
        <time>2013-08-31T14:17:42Z</time>
      </trkpt>
      <trkpt lat="42.693433" lon="-0.078669">
        <ele>2402.6</ele>
        <time>2013-08-31T14:17:52Z</time>
      </trkpt>
      <trkpt lat="42.693516" lon="-0.078590">
        <ele>2400.0</ele>
        <time>2013-08-31T14:18:03Z</time>
      </trkpt>
      <trkpt lat="42.693564" lon="-0.078454">
        <ele>2398.8</ele>
        <time>2013-08-31T14:18:16Z</time>
      </trkpt>
      <trkpt lat="42.693635" lon="-0.078382">
        <ele>2398.2</ele>
        <time>2013-08-31T14:18:27Z</time>
      </trkpt>
      <trkpt lat="42.693733" lon="-0.078344">
        <ele>2396.4</ele>
        <time>2013-08-31T14:18:37Z</time>
      </trkpt>
      <trkpt lat="42.693793" lon="-0.078249">
        <ele>2395.0</ele>
        <time>2013-08-31T14:18:47Z</time>
      </trkpt>
      <trkpt lat="42.693860" lon="-0.078164">
        <ele>2393.1</ele>
        <time>2013-08-31T14:18:57Z</time>
      </trkpt>
      <trkpt lat="42.693951" lon="-0.078163">
        <ele>2392.2</ele>
        <time>2013-08-31T14:19:07Z</time>
      </trkpt>
      <trkpt lat="42.694025" lon="-0.078149">
        <ele>2390.6</ele>
        <time>2013-08-31T14:19:17Z</time>
      </trkpt>
      <trkpt lat="42.694095" lon="-0.078064">
        <ele>2388.3</ele>
        <time>2013-08-31T14:19:28Z</time>
      </trkpt>
      <trkpt lat="42.694152" lon="-0.077983">
        <ele>2385.9</ele>
        <time>2013-08-31T14:19:38Z</time>
      </trkpt>
      <trkpt lat="42.694235" lon="-0.077957">
        <ele>2383.4</ele>
        <time>2013-08-31T14:19:48Z</time>
      </trkpt>
      <trkpt lat="42.694324" lon="-0.077937">
        <ele>2382.1</ele>
        <time>2013-08-31T14:20:00Z</time>
      </trkpt>
      <trkpt lat="42.694401" lon="-0.077859">
        <ele>2380.5</ele>
        <time>2013-08-31T14:20:09Z</time>
      </trkpt>
      <trkpt lat="42.694435" lon="-0.077702">
        <ele>2379.2</ele>
        <time>2013-08-31T14:20:20Z</time>
      </trkpt>
      <trkpt lat="42.694477" lon="-0.077558">
        <ele>2378.8</ele>
        <time>2013-08-31T14:20:32Z</time>
      </trkpt>
      <trkpt lat="42.694536" lon="-0.077454">
        <ele>2377.7</ele>
        <time>2013-08-31T14:20:41Z</time>
      </trkpt>
      <trkpt lat="42.694620" lon="-0.077328">
        <ele>2378.2</ele>
        <time>2013-08-31T14:20:53Z</time>
      </trkpt>
      <trkpt lat="42.694716" lon="-0.077309">
        <ele>2378.2</ele>
        <time>2013-08-31T14:21:03Z</time>
      </trkpt>
      <trkpt lat="42.694803" lon="-0.077253">
        <ele>2377.6</ele>
        <time>2013-08-31T14:21:14Z</time>
      </trkpt>
      <trkpt lat="42.694893" lon="-0.077138">
        <ele>2377.5</ele>
        <time>2013-08-31T14:21:26Z</time>
      </trkpt>
      <trkpt lat="42.694971" lon="-0.077028">
        <ele>2377.4</ele>
        <time>2013-08-31T14:21:37Z</time>
      </trkpt>
      <trkpt lat="42.695056" lon="-0.076958">
        <ele>2376.6</ele>
        <time>2013-08-31T14:21:48Z</time>
      </trkpt>
      <trkpt lat="42.695119" lon="-0.076869">
        <ele>2375.3</ele>
        <time>2013-08-31T14:21:59Z</time>
      </trkpt>
      <trkpt lat="42.695182" lon="-0.076743">
        <ele>2374.5</ele>
        <time>2013-08-31T14:22:14Z</time>
      </trkpt>
      <trkpt lat="42.695254" lon="-0.076655">
        <ele>2375.1</ele>
        <time>2013-08-31T14:22:28Z</time>
      </trkpt>
      <trkpt lat="42.695346" lon="-0.076593">
        <ele>2374.8</ele>
        <time>2013-08-31T14:22:41Z</time>
      </trkpt>
      <trkpt lat="42.695440" lon="-0.076517">
        <ele>2374.8</ele>
        <time>2013-08-31T14:22:53Z</time>
      </trkpt>
      <trkpt lat="42.695506" lon="-0.076395">
        <ele>2375.1</ele>
        <time>2013-08-31T14:23:06Z</time>
      </trkpt>
      <trkpt lat="42.695562" lon="-0.076264">
        <ele>2377.1</ele>
        <time>2013-08-31T14:23:18Z</time>
      </trkpt>
      <trkpt lat="42.695651" lon="-0.076202">
        <ele>2377.9</ele>
        <time>2013-08-31T14:23:27Z</time>
      </trkpt>
      <trkpt lat="42.695715" lon="-0.076115">
        <ele>2377.0</ele>
        <time>2013-08-31T14:23:36Z</time>
      </trkpt>
      <trkpt lat="42.695772" lon="-0.076008">
        <ele>2377.3</ele>
        <time>2013-08-31T14:23:47Z</time>
      </trkpt>
      <trkpt lat="42.695855" lon="-0.075945">
        <ele>2378.6</ele>
        <time>2013-08-31T14:23:57Z</time>
      </trkpt>
      <trkpt lat="42.695925" lon="-0.075888">
        <ele>2380.5</ele>
        <time>2013-08-31T14:24:09Z</time>
      </trkpt>
      <trkpt lat="42.696012" lon="-0.075794">
        <ele>2381.7</ele>
        <time>2013-08-31T14:24:25Z</time>
      </trkpt>
      <trkpt lat="42.696063" lon="-0.075704">
        <ele>2382.7</ele>
        <time>2013-08-31T14:24:41Z</time>
      </trkpt>
      <trkpt lat="42.696139" lon="-0.075639">
        <ele>2383.7</ele>
        <time>2013-08-31T14:24:54Z</time>
      </trkpt>
      <trkpt lat="42.696212" lon="-0.075562">
        <ele>2384.3</ele>
        <time>2013-08-31T14:25:04Z</time>
      </trkpt>
      <trkpt lat="42.696296" lon="-0.075480">
        <ele>2385.1</ele>
        <time>2013-08-31T14:25:24Z</time>
      </trkpt>
      <trkpt lat="42.696358" lon="-0.075369">
        <ele>2384.0</ele>
        <time>2013-08-31T14:25:35Z</time>
      </trkpt>
      <trkpt lat="42.696418" lon="-0.075263">
        <ele>2383.9</ele>
        <time>2013-08-31T14:25:45Z</time>
      </trkpt>
      <trkpt lat="42.696458" lon="-0.075149">
        <ele>2383.5</ele>
        <time>2013-08-31T14:25:56Z</time>
      </trkpt>
      <trkpt lat="42.696539" lon="-0.075096">
        <ele>2382.7</ele>
        <time>2013-08-31T14:26:04Z</time>
      </trkpt>
      <trkpt lat="42.696595" lon="-0.074993">
        <ele>2381.4</ele>
        <time>2013-08-31T14:26:13Z</time>
      </trkpt>
      <trkpt lat="42.696674" lon="-0.074907">
        <ele>2381.0</ele>
        <time>2013-08-31T14:26:22Z</time>
      </trkpt>
      <trkpt lat="42.696731" lon="-0.074807">
        <ele>2380.2</ele>
        <time>2013-08-31T14:26:33Z</time>
      </trkpt>
      <trkpt lat="42.696797" lon="-0.074730">
        <ele>2379.5</ele>
        <time>2013-08-31T14:26:42Z</time>
      </trkpt>
      <trkpt lat="42.696882" lon="-0.074720">
        <ele>2376.9</ele>
        <time>2013-08-31T14:26:55Z</time>
      </trkpt>
      <trkpt lat="42.696923" lon="-0.074741">
        <ele>2373.3</ele>
        <time>2013-08-31T14:28:10Z</time>
      </trkpt>
      <trkpt lat="42.696920" lon="-0.074640">
        <ele>2370.0</ele>
        <time>2013-08-31T14:28:31Z</time>
      </trkpt>
      <trkpt lat="42.696909" lon="-0.074525">
        <ele>2368.6</ele>
        <time>2013-08-31T14:28:46Z</time>
      </trkpt>
      <trkpt lat="42.696909" lon="-0.074382">
        <ele>2368.5</ele>
        <time>2013-08-31T14:28:58Z</time>
      </trkpt>
      <trkpt lat="42.696943" lon="-0.074258">
        <ele>2368.2</ele>
        <time>2013-08-31T14:29:08Z</time>
      </trkpt>
      <trkpt lat="42.697016" lon="-0.074163">
        <ele>2367.6</ele>
        <time>2013-08-31T14:29:19Z</time>
      </trkpt>
      <trkpt lat="42.697067" lon="-0.074051">
        <ele>2366.4</ele>
        <time>2013-08-31T14:29:30Z</time>
      </trkpt>
      <trkpt lat="42.697112" lon="-0.073940">
        <ele>2365.0</ele>
        <time>2013-08-31T14:29:41Z</time>
      </trkpt>
      <trkpt lat="42.697157" lon="-0.073836">
        <ele>2363.0</ele>
        <time>2013-08-31T14:29:53Z</time>
      </trkpt>
      <trkpt lat="42.697218" lon="-0.073715">
        <ele>2362.1</ele>
        <time>2013-08-31T14:30:04Z</time>
      </trkpt>
      <trkpt lat="42.697290" lon="-0.073675">
        <ele>2359.6</ele>
        <time>2013-08-31T14:30:15Z</time>
      </trkpt>
      <trkpt lat="42.697353" lon="-0.073588">
        <ele>2357.4</ele>
        <time>2013-08-31T14:30:24Z</time>
      </trkpt>
      <trkpt lat="42.697415" lon="-0.073503">
        <ele>2355.8</ele>
        <time>2013-08-31T14:30:33Z</time>
      </trkpt>
      <trkpt lat="42.697483" lon="-0.073421">
        <ele>2354.3</ele>
        <time>2013-08-31T14:30:42Z</time>
      </trkpt>
      <trkpt lat="42.697540" lon="-0.073312">
        <ele>2353.7</ele>
        <time>2013-08-31T14:30:51Z</time>
      </trkpt>
      <trkpt lat="42.697588" lon="-0.073213">
        <ele>2352.8</ele>
        <time>2013-08-31T14:31:01Z</time>
      </trkpt>
      <trkpt lat="42.697639" lon="-0.073100">
        <ele>2350.9</ele>
        <time>2013-08-31T14:31:11Z</time>
      </trkpt>
      <trkpt lat="42.697698" lon="-0.073007">
        <ele>2348.3</ele>
        <time>2013-08-31T14:31:26Z</time>
      </trkpt>
      <trkpt lat="42.697730" lon="-0.072878">
        <ele>2346.1</ele>
        <time>2013-08-31T14:31:37Z</time>
      </trkpt>
      <trkpt lat="42.697797" lon="-0.072803">
        <ele>2344.7</ele>
        <time>2013-08-31T14:31:45Z</time>
      </trkpt>
      <trkpt lat="42.697853" lon="-0.072701">
        <ele>2343.0</ele>
        <time>2013-08-31T14:31:56Z</time>
      </trkpt>
      <trkpt lat="42.697920" lon="-0.072641">
        <ele>2342.6</ele>
        <time>2013-08-31T14:32:07Z</time>
      </trkpt>
      <trkpt lat="42.698001" lon="-0.072556">
        <ele>2341.8</ele>
        <time>2013-08-31T14:32:16Z</time>
      </trkpt>
      <trkpt lat="42.698056" lon="-0.072441">
        <ele>2340.4</ele>
        <time>2013-08-31T14:32:26Z</time>
      </trkpt>
      <trkpt lat="42.698108" lon="-0.072336">
        <ele>2339.7</ele>
        <time>2013-08-31T14:32:35Z</time>
      </trkpt>
      <trkpt lat="42.698140" lon="-0.072215">
        <ele>2337.8</ele>
        <time>2013-08-31T14:32:43Z</time>
      </trkpt>
      <trkpt lat="42.698196" lon="-0.072123">
        <ele>2336.8</ele>
        <time>2013-08-31T14:32:54Z</time>
      </trkpt>
      <trkpt lat="42.698244" lon="-0.072011">
        <ele>2338.9</ele>
        <time>2013-08-31T14:33:13Z</time>
      </trkpt>
      <trkpt lat="42.698330" lon="-0.071937">
        <ele>2340.1</ele>
        <time>2013-08-31T14:33:23Z</time>
      </trkpt>
      <trkpt lat="42.698388" lon="-0.071830">
        <ele>2339.7</ele>
        <time>2013-08-31T14:33:33Z</time>
      </trkpt>
      <trkpt lat="42.698465" lon="-0.071757">
        <ele>2338.8</ele>
        <time>2013-08-31T14:33:45Z</time>
      </trkpt>
      <trkpt lat="42.698532" lon="-0.071670">
        <ele>2338.5</ele>
        <time>2013-08-31T14:33:55Z</time>
      </trkpt>
      <trkpt lat="42.698622" lon="-0.071593">
        <ele>2337.1</ele>
        <time>2013-08-31T14:34:06Z</time>
      </trkpt>
      <trkpt lat="42.698716" lon="-0.071532">
        <ele>2335.8</ele>
        <time>2013-08-31T14:34:15Z</time>
      </trkpt>
      <trkpt lat="42.698765" lon="-0.071423">
        <ele>2334.8</ele>
        <time>2013-08-31T14:34:24Z</time>
      </trkpt>
      <trkpt lat="42.698821" lon="-0.071294">
        <ele>2333.4</ele>
        <time>2013-08-31T14:34:34Z</time>
      </trkpt>
      <trkpt lat="42.698901" lon="-0.071184">
        <ele>2332.6</ele>
        <time>2013-08-31T14:34:46Z</time>
      </trkpt>
      <trkpt lat="42.699003" lon="-0.071121">
        <ele>2332.3</ele>
        <time>2013-08-31T14:34:56Z</time>
      </trkpt>
      <trkpt lat="42.699085" lon="-0.071057">
        <ele>2331.5</ele>
        <time>2013-08-31T14:35:06Z</time>
      </trkpt>
      <trkpt lat="42.699162" lon="-0.070958">
        <ele>2331.3</ele>
        <time>2013-08-31T14:35:16Z</time>
      </trkpt>
      <trkpt lat="42.699229" lon="-0.070868">
        <ele>2329.8</ele>
        <time>2013-08-31T14:35:25Z</time>
      </trkpt>
      <trkpt lat="42.699307" lon="-0.070808">
        <ele>2328.2</ele>
        <time>2013-08-31T14:35:34Z</time>
      </trkpt>
      <trkpt lat="42.699395" lon="-0.070738">
        <ele>2328.2</ele>
        <time>2013-08-31T14:35:48Z</time>
      </trkpt>
      <trkpt lat="42.699469" lon="-0.070638">
        <ele>2327.6</ele>
        <time>2013-08-31T14:36:00Z</time>
      </trkpt>
      <trkpt lat="42.699541" lon="-0.070545">
        <ele>2327.9</ele>
        <time>2013-08-31T14:36:10Z</time>
      </trkpt>
      <trkpt lat="42.699590" lon="-0.070445">
        <ele>2327.8</ele>
        <time>2013-08-31T14:36:19Z</time>
      </trkpt>
      <trkpt lat="42.699635" lon="-0.070339">
        <ele>2326.8</ele>
        <time>2013-08-31T14:36:29Z</time>
      </trkpt>
      <trkpt lat="42.699685" lon="-0.070230">
        <ele>2325.5</ele>
        <time>2013-08-31T14:36:39Z</time>
      </trkpt>
      <trkpt lat="42.699738" lon="-0.070123">
        <ele>2324.6</ele>
        <time>2013-08-31T14:36:49Z</time>
      </trkpt>
      <trkpt lat="42.699810" lon="-0.070036">
        <ele>2323.2</ele>
        <time>2013-08-31T14:37:00Z</time>
      </trkpt>
      <trkpt lat="42.699882" lon="-0.069930">
        <ele>2322.6</ele>
        <time>2013-08-31T14:37:12Z</time>
      </trkpt>
      <trkpt lat="42.699947" lon="-0.069838">
        <ele>2320.9</ele>
        <time>2013-08-31T14:37:24Z</time>
      </trkpt>
      <trkpt lat="42.700013" lon="-0.069740">
        <ele>2319.7</ele>
        <time>2013-08-31T14:37:35Z</time>
      </trkpt>
      <trkpt lat="42.700083" lon="-0.069642">
        <ele>2317.8</ele>
        <time>2013-08-31T14:37:47Z</time>
      </trkpt>
      <trkpt lat="42.700160" lon="-0.069566">
        <ele>2316.4</ele>
        <time>2013-08-31T14:38:00Z</time>
      </trkpt>
      <trkpt lat="42.700233" lon="-0.069615">
        <ele>2312.2</ele>
        <time>2013-08-31T14:38:18Z</time>
      </trkpt>
      <trkpt lat="42.700311" lon="-0.069529">
        <ele>2308.7</ele>
        <time>2013-08-31T14:38:31Z</time>
      </trkpt>
      <trkpt lat="42.700402" lon="-0.069427">
        <ele>2305.6</ele>
        <time>2013-08-31T14:38:44Z</time>
      </trkpt>
      <trkpt lat="42.700507" lon="-0.069356">
        <ele>2303.1</ele>
        <time>2013-08-31T14:38:57Z</time>
      </trkpt>
      <trkpt lat="42.700606" lon="-0.069342">
        <ele>2301.9</ele>
        <time>2013-08-31T14:39:07Z</time>
      </trkpt>
      <trkpt lat="42.700701" lon="-0.069280">
        <ele>2300.6</ele>
        <time>2013-08-31T14:39:20Z</time>
      </trkpt>
      <trkpt lat="42.700796" lon="-0.069223">
        <ele>2300.5</ele>
        <time>2013-08-31T14:39:31Z</time>
      </trkpt>
      <trkpt lat="42.700895" lon="-0.069112">
        <ele>2298.3</ele>
        <time>2013-08-31T14:39:45Z</time>
      </trkpt>
      <trkpt lat="42.700985" lon="-0.069025">
        <ele>2297.6</ele>
        <time>2013-08-31T14:39:55Z</time>
      </trkpt>
      <trkpt lat="42.701087" lon="-0.068951">
        <ele>2295.2</ele>
        <time>2013-08-31T14:40:06Z</time>
      </trkpt>
      <trkpt lat="42.701143" lon="-0.068848">
        <ele>2293.1</ele>
        <time>2013-08-31T14:40:16Z</time>
      </trkpt>
      <trkpt lat="42.701239" lon="-0.068772">
        <ele>2292.4</ele>
        <time>2013-08-31T14:40:28Z</time>
      </trkpt>
      <trkpt lat="42.701329" lon="-0.068692">
        <ele>2291.3</ele>
        <time>2013-08-31T14:40:37Z</time>
      </trkpt>
      <trkpt lat="42.701408" lon="-0.068632">
        <ele>2290.9</ele>
        <time>2013-08-31T14:40:45Z</time>
      </trkpt>
      <trkpt lat="42.701498" lon="-0.068592">
        <ele>2290.2</ele>
        <time>2013-08-31T14:40:54Z</time>
      </trkpt>
      <trkpt lat="42.701583" lon="-0.068505">
        <ele>2289.1</ele>
        <time>2013-08-31T14:41:03Z</time>
      </trkpt>
      <trkpt lat="42.701655" lon="-0.068412">
        <ele>2288.9</ele>
        <time>2013-08-31T14:41:13Z</time>
      </trkpt>
      <trkpt lat="42.701725" lon="-0.068334">
        <ele>2288.7</ele>
        <time>2013-08-31T14:41:22Z</time>
      </trkpt>
      <trkpt lat="42.701752" lon="-0.068225">
        <ele>2285.8</ele>
        <time>2013-08-31T14:41:48Z</time>
      </trkpt>
      <trkpt lat="42.701821" lon="-0.068132">
        <ele>2285.8</ele>
        <time>2013-08-31T14:41:56Z</time>
      </trkpt>
      <trkpt lat="42.701908" lon="-0.068061">
        <ele>2285.6</ele>
        <time>2013-08-31T14:42:04Z</time>
      </trkpt>
      <trkpt lat="42.701938" lon="-0.067936">
        <ele>2285.9</ele>
        <time>2013-08-31T14:42:13Z</time>
      </trkpt>
      <trkpt lat="42.701980" lon="-0.067816">
        <ele>2286.3</ele>
        <time>2013-08-31T14:42:21Z</time>
      </trkpt>
      <trkpt lat="42.702048" lon="-0.067714">
        <ele>2286.8</ele>
        <time>2013-08-31T14:42:29Z</time>
      </trkpt>
      <trkpt lat="42.702117" lon="-0.067631">
        <ele>2287.9</ele>
        <time>2013-08-31T14:42:38Z</time>
      </trkpt>
      <trkpt lat="42.702168" lon="-0.067546">
        <ele>2287.6</ele>
        <time>2013-08-31T14:42:47Z</time>
      </trkpt>
      <trkpt lat="42.702234" lon="-0.067452">
        <ele>2287.2</ele>
        <time>2013-08-31T14:42:57Z</time>
      </trkpt>
      <trkpt lat="42.702276" lon="-0.067356">
        <ele>2287.3</ele>
        <time>2013-08-31T14:43:05Z</time>
      </trkpt>
      <trkpt lat="42.702311" lon="-0.067237">
        <ele>2286.3</ele>
        <time>2013-08-31T14:43:14Z</time>
      </trkpt>
      <trkpt lat="42.702366" lon="-0.067123">
        <ele>2284.6</ele>
        <time>2013-08-31T14:43:24Z</time>
      </trkpt>
      <trkpt lat="42.702419" lon="-0.067028">
        <ele>2280.2</ele>
        <time>2013-08-31T14:43:42Z</time>
      </trkpt>
      <trkpt lat="42.702502" lon="-0.066920">
        <ele>2276.6</ele>
        <time>2013-08-31T14:43:56Z</time>
      </trkpt>
      <trkpt lat="42.702532" lon="-0.066830">
        <ele>2272.7</ele>
        <time>2013-08-31T14:44:10Z</time>
      </trkpt>
      <trkpt lat="42.702587" lon="-0.066773">
        <ele>2268.4</ele>
        <time>2013-08-31T14:44:29Z</time>
      </trkpt>
      <trkpt lat="42.702636" lon="-0.066768">
        <ele>2265.6</ele>
        <time>2013-08-31T14:44:46Z</time>
      </trkpt>
      <trkpt lat="42.702637" lon="-0.066677">
        <ele>2264.1</ele>
        <time>2013-08-31T14:45:03Z</time>
      </trkpt>
      <trkpt lat="42.702722" lon="-0.066598">
        <ele>2263.7</ele>
        <time>2013-08-31T14:45:20Z</time>
      </trkpt>
      <trkpt lat="42.702732" lon="-0.066493">
        <ele>2260.6</ele>
        <time>2013-08-31T14:45:52Z</time>
      </trkpt>
      <trkpt lat="42.702799" lon="-0.066389">
        <ele>2259.9</ele>
        <time>2013-08-31T14:46:06Z</time>
      </trkpt>
      <trkpt lat="42.702881" lon="-0.066319">
        <ele>2258.3</ele>
        <time>2013-08-31T14:46:22Z</time>
      </trkpt>
      <trkpt lat="42.702945" lon="-0.066209">
        <ele>2255.3</ele>
        <time>2013-08-31T14:46:36Z</time>
      </trkpt>
      <trkpt lat="42.703005" lon="-0.066094">
        <ele>2253.0</ele>
        <time>2013-08-31T14:46:47Z</time>
      </trkpt>
      <trkpt lat="42.703070" lon="-0.065977">
        <ele>2254.0</ele>
        <time>2013-08-31T14:47:02Z</time>
      </trkpt>
      <trkpt lat="42.703108" lon="-0.065848">
        <ele>2254.0</ele>
        <time>2013-08-31T14:47:18Z</time>
      </trkpt>
      <trkpt lat="42.703157" lon="-0.065788">
        <ele>2253.7</ele>
        <time>2013-08-31T14:47:28Z</time>
      </trkpt>
      <trkpt lat="42.703205" lon="-0.065698">
        <ele>2253.2</ele>
        <time>2013-08-31T14:47:44Z</time>
      </trkpt>
      <trkpt lat="42.703252" lon="-0.065603">
        <ele>2253.0</ele>
        <time>2013-08-31T14:47:57Z</time>
      </trkpt>
      <trkpt lat="42.703315" lon="-0.065496">
        <ele>2253.8</ele>
        <time>2013-08-31T14:48:11Z</time>
      </trkpt>
      <trkpt lat="42.703392" lon="-0.065446">
        <ele>2253.8</ele>
        <time>2013-08-31T14:48:21Z</time>
      </trkpt>
      <trkpt lat="42.703429" lon="-0.065333">
        <ele>2256.4</ele>
        <time>2013-08-31T14:48:35Z</time>
      </trkpt>
      <trkpt lat="42.703504" lon="-0.065258">
        <ele>2259.4</ele>
        <time>2013-08-31T14:48:50Z</time>
      </trkpt>
      <trkpt lat="42.703550" lon="-0.065135">
        <ele>2262.7</ele>
        <time>2013-08-31T14:49:05Z</time>
      </trkpt>
      <trkpt lat="42.703577" lon="-0.065046">
        <ele>2265.8</ele>
        <time>2013-08-31T14:49:20Z</time>
      </trkpt>
      <trkpt lat="42.703619" lon="-0.064900">
        <ele>2266.1</ele>
        <time>2013-08-31T14:49:33Z</time>
      </trkpt>
      <trkpt lat="42.703631" lon="-0.064798">
        <ele>2266.8</ele>
        <time>2013-08-31T14:49:45Z</time>
      </trkpt>
      <trkpt lat="42.703667" lon="-0.064662">
        <ele>2269.5</ele>
        <time>2013-08-31T14:49:59Z</time>
      </trkpt>
      <trkpt lat="42.703747" lon="-0.064550">
        <ele>2273.2</ele>
        <time>2013-08-31T14:50:15Z</time>
      </trkpt>
      <trkpt lat="42.703808" lon="-0.064423">
        <ele>2273.6</ele>
        <time>2013-08-31T14:50:26Z</time>
      </trkpt>
      <trkpt lat="42.703819" lon="-0.064300">
        <ele>2273.6</ele>
        <time>2013-08-31T14:50:38Z</time>
      </trkpt>
      <trkpt lat="42.703906" lon="-0.064220">
        <ele>2274.9</ele>
        <time>2013-08-31T14:50:51Z</time>
      </trkpt>
      <trkpt lat="42.703877" lon="-0.064188">
        <ele>2272.2</ele>
        <time>2013-08-31T14:51:48Z</time>
      </trkpt>
      <trkpt lat="42.703896" lon="-0.064236">
        <ele>2271.6</ele>
        <time>2013-08-31T14:52:28Z</time>
      </trkpt>
      <trkpt lat="42.703926" lon="-0.064225">
        <ele>2271.0</ele>
        <time>2013-08-31T14:53:47Z</time>
      </trkpt>
      <trkpt lat="42.703917" lon="-0.064166">
        <ele>2271.2</ele>
        <time>2013-08-31T14:54:38Z</time>
      </trkpt>
      <trkpt lat="42.703923" lon="-0.064041">
        <ele>2271.1</ele>
        <time>2013-08-31T14:54:52Z</time>
      </trkpt>
      <trkpt lat="42.703957" lon="-0.063909">
        <ele>2270.7</ele>
        <time>2013-08-31T14:55:02Z</time>
      </trkpt>
      <trkpt lat="42.704002" lon="-0.063799">
        <ele>2269.6</ele>
        <time>2013-08-31T14:55:12Z</time>
      </trkpt>
      <trkpt lat="42.704067" lon="-0.063698">
        <ele>2269.1</ele>
        <time>2013-08-31T14:55:23Z</time>
      </trkpt>
      <trkpt lat="42.704173" lon="-0.063619">
        <ele>2267.5</ele>
        <time>2013-08-31T14:55:32Z</time>
      </trkpt>
      <trkpt lat="42.704272" lon="-0.063578">
        <ele>2266.6</ele>
        <time>2013-08-31T14:55:41Z</time>
      </trkpt>
      <trkpt lat="42.704375" lon="-0.063562">
        <ele>2265.8</ele>
        <time>2013-08-31T14:55:49Z</time>
      </trkpt>
      <trkpt lat="42.704470" lon="-0.063560">
        <ele>2264.4</ele>
        <time>2013-08-31T14:55:57Z</time>
      </trkpt>
      <trkpt lat="42.704570" lon="-0.063524">
        <ele>2263.1</ele>
        <time>2013-08-31T14:56:05Z</time>
      </trkpt>
      <trkpt lat="42.704607" lon="-0.063519">
        <ele>2262.1</ele>
        <time>2013-08-31T14:56:29Z</time>
      </trkpt>
      <trkpt lat="42.704708" lon="-0.063491">
        <ele>2262.2</ele>
        <time>2013-08-31T14:56:37Z</time>
      </trkpt>
      <trkpt lat="42.704809" lon="-0.063447">
        <ele>2261.3</ele>
        <time>2013-08-31T14:56:45Z</time>
      </trkpt>
      <trkpt lat="42.704875" lon="-0.063408">
        <ele>2258.9</ele>
        <time>2013-08-31T14:57:27Z</time>
      </trkpt>
      <trkpt lat="42.704977" lon="-0.063354">
        <ele>2258.1</ele>
        <time>2013-08-31T14:57:37Z</time>
      </trkpt>
      <trkpt lat="42.705072" lon="-0.063330">
        <ele>2257.0</ele>
        <time>2013-08-31T14:57:46Z</time>
      </trkpt>
      <trkpt lat="42.705166" lon="-0.063305">
        <ele>2255.9</ele>
        <time>2013-08-31T14:57:57Z</time>
      </trkpt>
      <trkpt lat="42.705263" lon="-0.063268">
        <ele>2254.6</ele>
        <time>2013-08-31T14:58:09Z</time>
      </trkpt>
      <trkpt lat="42.705361" lon="-0.063248">
        <ele>2253.4</ele>
        <time>2013-08-31T14:58:21Z</time>
      </trkpt>
      <trkpt lat="42.705486" lon="-0.063203">
        <ele>2252.3</ele>
        <time>2013-08-31T14:58:32Z</time>
      </trkpt>
      <trkpt lat="42.705587" lon="-0.063148">
        <ele>2250.5</ele>
        <time>2013-08-31T14:58:43Z</time>
      </trkpt>
      <trkpt lat="42.705682" lon="-0.063083">
        <ele>2249.2</ele>
        <time>2013-08-31T14:58:52Z</time>
      </trkpt>
      <trkpt lat="42.705771" lon="-0.063021">
        <ele>2247.9</ele>
        <time>2013-08-31T14:59:03Z</time>
      </trkpt>
      <trkpt lat="42.705881" lon="-0.062974">
        <ele>2246.8</ele>
        <time>2013-08-31T14:59:14Z</time>
      </trkpt>
      <trkpt lat="42.705974" lon="-0.062921">
        <ele>2245.8</ele>
        <time>2013-08-31T14:59:23Z</time>
      </trkpt>
      <trkpt lat="42.706079" lon="-0.062841">
        <ele>2244.9</ele>
        <time>2013-08-31T14:59:32Z</time>
      </trkpt>
      <trkpt lat="42.706181" lon="-0.062773">
        <ele>2243.8</ele>
        <time>2013-08-31T14:59:42Z</time>
      </trkpt>
      <trkpt lat="42.706283" lon="-0.062697">
        <ele>2242.5</ele>
        <time>2013-08-31T14:59:51Z</time>
      </trkpt>
      <trkpt lat="42.706363" lon="-0.062625">
        <ele>2240.9</ele>
        <time>2013-08-31T15:00:01Z</time>
      </trkpt>
      <trkpt lat="42.706455" lon="-0.062543">
        <ele>2239.7</ele>
        <time>2013-08-31T15:00:12Z</time>
      </trkpt>
      <trkpt lat="42.706542" lon="-0.062447">
        <ele>2237.9</ele>
        <time>2013-08-31T15:00:21Z</time>
      </trkpt>
      <trkpt lat="42.706630" lon="-0.062375">
        <ele>2236.8</ele>
        <time>2013-08-31T15:00:30Z</time>
      </trkpt>
      <trkpt lat="42.706702" lon="-0.062312">
        <ele>2236.0</ele>
        <time>2013-08-31T15:00:38Z</time>
      </trkpt>
      <trkpt lat="42.706796" lon="-0.062226">
        <ele>2234.8</ele>
        <time>2013-08-31T15:00:48Z</time>
      </trkpt>
      <trkpt lat="42.706881" lon="-0.062148">
        <ele>2233.9</ele>
        <time>2013-08-31T15:00:55Z</time>
      </trkpt>
      <trkpt lat="42.706958" lon="-0.062063">
        <ele>2232.9</ele>
        <time>2013-08-31T15:01:02Z</time>
      </trkpt>
      <trkpt lat="42.707029" lon="-0.062000">
        <ele>2232.1</ele>
        <time>2013-08-31T15:01:10Z</time>
      </trkpt>
      <trkpt lat="42.707107" lon="-0.061908">
        <ele>2231.0</ele>
        <time>2013-08-31T15:01:19Z</time>
      </trkpt>
      <trkpt lat="42.707146" lon="-0.061770">
        <ele>2230.2</ele>
        <time>2013-08-31T15:01:28Z</time>
      </trkpt>
      <trkpt lat="42.707180" lon="-0.061682">
        <ele>2229.2</ele>
        <time>2013-08-31T15:02:11Z</time>
      </trkpt>
      <trkpt lat="42.707199" lon="-0.061534">
        <ele>2228.8</ele>
        <time>2013-08-31T15:02:19Z</time>
      </trkpt>
      <trkpt lat="42.707212" lon="-0.061407">
        <ele>2228.0</ele>
        <time>2013-08-31T15:02:27Z</time>
      </trkpt>
      <trkpt lat="42.707250" lon="-0.061299">
        <ele>2226.4</ele>
        <time>2013-08-31T15:02:37Z</time>
      </trkpt>
      <trkpt lat="42.707279" lon="-0.061193">
        <ele>2225.6</ele>
        <time>2013-08-31T15:02:47Z</time>
      </trkpt>
      <trkpt lat="42.707349" lon="-0.061081">
        <ele>2224.4</ele>
        <time>2013-08-31T15:02:58Z</time>
      </trkpt>
      <trkpt lat="42.707445" lon="-0.061016">
        <ele>2223.9</ele>
        <time>2013-08-31T15:03:08Z</time>
      </trkpt>
      <trkpt lat="42.707531" lon="-0.060913">
        <ele>2223.0</ele>
        <time>2013-08-31T15:03:18Z</time>
      </trkpt>
      <trkpt lat="42.707615" lon="-0.060830">
        <ele>2222.0</ele>
        <time>2013-08-31T15:03:27Z</time>
      </trkpt>
      <trkpt lat="42.707694" lon="-0.060743">
        <ele>2220.9</ele>
        <time>2013-08-31T15:03:35Z</time>
      </trkpt>
      <trkpt lat="42.707777" lon="-0.060654">
        <ele>2219.7</ele>
        <time>2013-08-31T15:03:44Z</time>
      </trkpt>
      <trkpt lat="42.707860" lon="-0.060586">
        <ele>2218.8</ele>
        <time>2013-08-31T15:03:53Z</time>
      </trkpt>
      <trkpt lat="42.707925" lon="-0.060505">
        <ele>2218.1</ele>
        <time>2013-08-31T15:04:02Z</time>
      </trkpt>
      <trkpt lat="42.707992" lon="-0.060399">
        <ele>2217.0</ele>
        <time>2013-08-31T15:04:11Z</time>
      </trkpt>
      <trkpt lat="42.708064" lon="-0.060318">
        <ele>2216.3</ele>
        <time>2013-08-31T15:04:18Z</time>
      </trkpt>
      <trkpt lat="42.708118" lon="-0.060248">
        <ele>2215.1</ele>
        <time>2013-08-31T15:04:27Z</time>
      </trkpt>
      <trkpt lat="42.708216" lon="-0.060165">
        <ele>2213.8</ele>
        <time>2013-08-31T15:04:37Z</time>
      </trkpt>
      <trkpt lat="42.708300" lon="-0.060093">
        <ele>2213.2</ele>
        <time>2013-08-31T15:04:48Z</time>
      </trkpt>
      <trkpt lat="42.708384" lon="-0.060016">
        <ele>2212.3</ele>
        <time>2013-08-31T15:04:58Z</time>
      </trkpt>
      <trkpt lat="42.708470" lon="-0.059945">
        <ele>2211.3</ele>
        <time>2013-08-31T15:05:07Z</time>
      </trkpt>
      <trkpt lat="42.708546" lon="-0.059892">
        <ele>2210.6</ele>
        <time>2013-08-31T15:05:15Z</time>
      </trkpt>
      <trkpt lat="42.708634" lon="-0.059804">
        <ele>2209.5</ele>
        <time>2013-08-31T15:05:25Z</time>
      </trkpt>
      <trkpt lat="42.708724" lon="-0.059727">
        <ele>2208.6</ele>
        <time>2013-08-31T15:05:33Z</time>
      </trkpt>
      <trkpt lat="42.708795" lon="-0.059642">
        <ele>2207.9</ele>
        <time>2013-08-31T15:05:41Z</time>
      </trkpt>
      <trkpt lat="42.708862" lon="-0.059554">
        <ele>2207.3</ele>
        <time>2013-08-31T15:05:49Z</time>
      </trkpt>
      <trkpt lat="42.708919" lon="-0.059466">
        <ele>2206.7</ele>
        <time>2013-08-31T15:05:57Z</time>
      </trkpt>
      <trkpt lat="42.708973" lon="-0.059377">
        <ele>2206.2</ele>
        <time>2013-08-31T15:06:05Z</time>
      </trkpt>
      <trkpt lat="42.709043" lon="-0.059293">
        <ele>2205.7</ele>
        <time>2013-08-31T15:06:14Z</time>
      </trkpt>
      <trkpt lat="42.709142" lon="-0.059275">
        <ele>2205.0</ele>
        <time>2013-08-31T15:06:22Z</time>
      </trkpt>
      <trkpt lat="42.709227" lon="-0.059207">
        <ele>2204.4</ele>
        <time>2013-08-31T15:06:31Z</time>
      </trkpt>
      <trkpt lat="42.709315" lon="-0.059137">
        <ele>2204.1</ele>
        <time>2013-08-31T15:06:40Z</time>
      </trkpt>
      <trkpt lat="42.709399" lon="-0.059067">
        <ele>2204.0</ele>
        <time>2013-08-31T15:06:47Z</time>
      </trkpt>
      <trkpt lat="42.709475" lon="-0.058986">
        <ele>2203.6</ele>
        <time>2013-08-31T15:06:55Z</time>
      </trkpt>
      <trkpt lat="42.709546" lon="-0.058915">
        <ele>2203.6</ele>
        <time>2013-08-31T15:07:03Z</time>
      </trkpt>
      <trkpt lat="42.709633" lon="-0.058840">
        <ele>2203.4</ele>
        <time>2013-08-31T15:07:11Z</time>
      </trkpt>
      <trkpt lat="42.709714" lon="-0.058776">
        <ele>2203.2</ele>
        <time>2013-08-31T15:07:18Z</time>
      </trkpt>
      <trkpt lat="42.709785" lon="-0.058709">
        <ele>2203.2</ele>
        <time>2013-08-31T15:07:25Z</time>
      </trkpt>
      <trkpt lat="42.709848" lon="-0.058621">
        <ele>2203.4</ele>
        <time>2013-08-31T15:07:33Z</time>
      </trkpt>
      <trkpt lat="42.709934" lon="-0.058560">
        <ele>2203.4</ele>
        <time>2013-08-31T15:07:40Z</time>
      </trkpt>
      <trkpt lat="42.709986" lon="-0.058449">
        <ele>2203.3</ele>
        <time>2013-08-31T15:07:48Z</time>
      </trkpt>
      <trkpt lat="42.710040" lon="-0.058343">
        <ele>2203.6</ele>
        <time>2013-08-31T15:07:55Z</time>
      </trkpt>
      <trkpt lat="42.710111" lon="-0.058229">
        <ele>2203.6</ele>
        <time>2013-08-31T15:08:03Z</time>
      </trkpt>
      <trkpt lat="42.710168" lon="-0.058135">
        <ele>2203.6</ele>
        <time>2013-08-31T15:08:11Z</time>
      </trkpt>
      <trkpt lat="42.710233" lon="-0.058039">
        <ele>2203.8</ele>
        <time>2013-08-31T15:08:18Z</time>
      </trkpt>
      <trkpt lat="42.710283" lon="-0.057926">
        <ele>2203.5</ele>
        <time>2013-08-31T15:08:26Z</time>
      </trkpt>
      <trkpt lat="42.710323" lon="-0.057820">
        <ele>2203.5</ele>
        <time>2013-08-31T15:08:33Z</time>
      </trkpt>
      <trkpt lat="42.710365" lon="-0.057711">
        <ele>2203.7</ele>
        <time>2013-08-31T15:08:41Z</time>
      </trkpt>
      <trkpt lat="42.710436" lon="-0.057611">
        <ele>2203.5</ele>
        <time>2013-08-31T15:08:49Z</time>
      </trkpt>
      <trkpt lat="42.710513" lon="-0.057545">
        <ele>2203.4</ele>
        <time>2013-08-31T15:08:55Z</time>
      </trkpt>
      <trkpt lat="42.710559" lon="-0.057432">
        <ele>2203.4</ele>
        <time>2013-08-31T15:09:03Z</time>
      </trkpt>
      <trkpt lat="42.710637" lon="-0.057354">
        <ele>2203.2</ele>
        <time>2013-08-31T15:09:10Z</time>
      </trkpt>
      <trkpt lat="42.710694" lon="-0.057265">
        <ele>2203.0</ele>
        <time>2013-08-31T15:09:17Z</time>
      </trkpt>
      <trkpt lat="42.710778" lon="-0.057179">
        <ele>2203.2</ele>
        <time>2013-08-31T15:09:24Z</time>
      </trkpt>
      <trkpt lat="42.710850" lon="-0.057089">
        <ele>2203.3</ele>
        <time>2013-08-31T15:09:31Z</time>
      </trkpt>
      <trkpt lat="42.710922" lon="-0.057022">
        <ele>2203.3</ele>
        <time>2013-08-31T15:09:38Z</time>
      </trkpt>
      <trkpt lat="42.710986" lon="-0.056940">
        <ele>2203.1</ele>
        <time>2013-08-31T15:09:45Z</time>
      </trkpt>
      <trkpt lat="42.711046" lon="-0.056868">
        <ele>2203.2</ele>
        <time>2013-08-31T15:09:52Z</time>
      </trkpt>
      <trkpt lat="42.711113" lon="-0.056775">
        <ele>2203.4</ele>
        <time>2013-08-31T15:10:00Z</time>
      </trkpt>
      <trkpt lat="42.711196" lon="-0.056727">
        <ele>2203.5</ele>
        <time>2013-08-31T15:10:06Z</time>
      </trkpt>
      <trkpt lat="42.711293" lon="-0.056667">
        <ele>2203.4</ele>
        <time>2013-08-31T15:10:14Z</time>
      </trkpt>
      <trkpt lat="42.711384" lon="-0.056632">
        <ele>2203.1</ele>
        <time>2013-08-31T15:10:21Z</time>
      </trkpt>
      <trkpt lat="42.711468" lon="-0.056565">
        <ele>2203.0</ele>
        <time>2013-08-31T15:10:29Z</time>
      </trkpt>
      <trkpt lat="42.711548" lon="-0.056504">
        <ele>2202.7</ele>
        <time>2013-08-31T15:10:36Z</time>
      </trkpt>
      <trkpt lat="42.711629" lon="-0.056417">
        <ele>2202.5</ele>
        <time>2013-08-31T15:10:43Z</time>
      </trkpt>
      <trkpt lat="42.711701" lon="-0.056332">
        <ele>2202.7</ele>
        <time>2013-08-31T15:10:50Z</time>
      </trkpt>
      <trkpt lat="42.711755" lon="-0.056216">
        <ele>2203.0</ele>
        <time>2013-08-31T15:10:58Z</time>
      </trkpt>
      <trkpt lat="42.711827" lon="-0.056144">
        <ele>2203.1</ele>
        <time>2013-08-31T15:11:04Z</time>
      </trkpt>
      <trkpt lat="42.711883" lon="-0.056040">
        <ele>2203.2</ele>
        <time>2013-08-31T15:11:11Z</time>
      </trkpt>
      <trkpt lat="42.711945" lon="-0.055952">
        <ele>2203.2</ele>
        <time>2013-08-31T15:11:18Z</time>
      </trkpt>
      <trkpt lat="42.712002" lon="-0.055837">
        <ele>2203.7</ele>
        <time>2013-08-31T15:11:26Z</time>
      </trkpt>
      <trkpt lat="42.712038" lon="-0.055728">
        <ele>2203.7</ele>
        <time>2013-08-31T15:11:33Z</time>
      </trkpt>
      <trkpt lat="42.712093" lon="-0.055604">
        <ele>2203.6</ele>
        <time>2013-08-31T15:11:41Z</time>
      </trkpt>
      <trkpt lat="42.712124" lon="-0.055482">
        <ele>2203.6</ele>
        <time>2013-08-31T15:11:48Z</time>
      </trkpt>
      <trkpt lat="42.712151" lon="-0.055358">
        <ele>2203.6</ele>
        <time>2013-08-31T15:11:56Z</time>
      </trkpt>
      <trkpt lat="42.712177" lon="-0.055238">
        <ele>2203.7</ele>
        <time>2013-08-31T15:12:04Z</time>
      </trkpt>
      <trkpt lat="42.712201" lon="-0.055103">
        <ele>2203.7</ele>
        <time>2013-08-31T15:12:12Z</time>
      </trkpt>
      <trkpt lat="42.712225" lon="-0.054967">
        <ele>2204.0</ele>
        <time>2013-08-31T15:12:20Z</time>
      </trkpt>
      <trkpt lat="42.712234" lon="-0.054837">
        <ele>2203.9</ele>
        <time>2013-08-31T15:12:28Z</time>
      </trkpt>
      <trkpt lat="42.712260" lon="-0.054710">
        <ele>2203.9</ele>
        <time>2013-08-31T15:12:36Z</time>
      </trkpt>
      <trkpt lat="42.712280" lon="-0.054568">
        <ele>2204.3</ele>
        <time>2013-08-31T15:12:44Z</time>
      </trkpt>
      <trkpt lat="42.712306" lon="-0.054447">
        <ele>2203.9</ele>
        <time>2013-08-31T15:12:51Z</time>
      </trkpt>
      <trkpt lat="42.712343" lon="-0.054323">
        <ele>2203.6</ele>
        <time>2013-08-31T15:12:59Z</time>
      </trkpt>
      <trkpt lat="42.712371" lon="-0.054192">
        <ele>2203.5</ele>
        <time>2013-08-31T15:13:07Z</time>
      </trkpt>
      <trkpt lat="42.712413" lon="-0.054071">
        <ele>2203.9</ele>
        <time>2013-08-31T15:13:15Z</time>
      </trkpt>
      <trkpt lat="42.712447" lon="-0.053939">
        <ele>2203.8</ele>
        <time>2013-08-31T15:13:23Z</time>
      </trkpt>
      <trkpt lat="42.712484" lon="-0.053804">
        <ele>2203.9</ele>
        <time>2013-08-31T15:13:31Z</time>
      </trkpt>
      <trkpt lat="42.712521" lon="-0.053690">
        <ele>2203.6</ele>
        <time>2013-08-31T15:13:38Z</time>
      </trkpt>
      <trkpt lat="42.712565" lon="-0.053583">
        <ele>2203.7</ele>
        <time>2013-08-31T15:13:45Z</time>
      </trkpt>
      <trkpt lat="42.712608" lon="-0.053472">
        <ele>2204.0</ele>
        <time>2013-08-31T15:13:52Z</time>
      </trkpt>
      <trkpt lat="42.712644" lon="-0.053357">
        <ele>2204.1</ele>
        <time>2013-08-31T15:13:59Z</time>
      </trkpt>
      <trkpt lat="42.712676" lon="-0.053237">
        <ele>2204.4</ele>
        <time>2013-08-31T15:14:06Z</time>
      </trkpt>
      <trkpt lat="42.712704" lon="-0.053099">
        <ele>2204.0</ele>
        <time>2013-08-31T15:14:14Z</time>
      </trkpt>
      <trkpt lat="42.712734" lon="-0.052971">
        <ele>2203.9</ele>
        <time>2013-08-31T15:14:22Z</time>
      </trkpt>
      <trkpt lat="42.712743" lon="-0.052831">
        <ele>2203.9</ele>
        <time>2013-08-31T15:14:30Z</time>
      </trkpt>
      <trkpt lat="42.712765" lon="-0.052711">
        <ele>2204.1</ele>
        <time>2013-08-31T15:14:37Z</time>
      </trkpt>
      <trkpt lat="42.712785" lon="-0.052582">
        <ele>2204.4</ele>
        <time>2013-08-31T15:14:45Z</time>
      </trkpt>
      <trkpt lat="42.712803" lon="-0.052448">
        <ele>2204.4</ele>
        <time>2013-08-31T15:14:53Z</time>
      </trkpt>
      <trkpt lat="42.712829" lon="-0.052326">
        <ele>2204.5</ele>
        <time>2013-08-31T15:15:00Z</time>
      </trkpt>
      <trkpt lat="42.712849" lon="-0.052202">
        <ele>2204.5</ele>
        <time>2013-08-31T15:15:08Z</time>
      </trkpt>
      <trkpt lat="42.712886" lon="-0.052083">
        <ele>2204.4</ele>
        <time>2013-08-31T15:15:15Z</time>
      </trkpt>
      <trkpt lat="42.712903" lon="-0.051947">
        <ele>2204.3</ele>
        <time>2013-08-31T15:15:23Z</time>
      </trkpt>
      <trkpt lat="42.712948" lon="-0.051819">
        <ele>2204.5</ele>
        <time>2013-08-31T15:15:31Z</time>
      </trkpt>
      <trkpt lat="42.712993" lon="-0.051715">
        <ele>2204.5</ele>
        <time>2013-08-31T15:15:38Z</time>
      </trkpt>
      <trkpt lat="42.713030" lon="-0.051586">
        <ele>2204.6</ele>
        <time>2013-08-31T15:15:45Z</time>
      </trkpt>
      <trkpt lat="42.713086" lon="-0.051483">
        <ele>2204.4</ele>
        <time>2013-08-31T15:15:52Z</time>
      </trkpt>
      <trkpt lat="42.713153" lon="-0.051391">
        <ele>2204.2</ele>
        <time>2013-08-31T15:15:58Z</time>
      </trkpt>
      <trkpt lat="42.713192" lon="-0.051263">
        <ele>2204.0</ele>
        <time>2013-08-31T15:16:06Z</time>
      </trkpt>
      <trkpt lat="42.713252" lon="-0.051150">
        <ele>2203.9</ele>
        <time>2013-08-31T15:16:13Z</time>
      </trkpt>
      <trkpt lat="42.713330" lon="-0.051067">
        <ele>2203.8</ele>
        <time>2013-08-31T15:16:20Z</time>
      </trkpt>
      <trkpt lat="42.713406" lon="-0.050999">
        <ele>2203.6</ele>
        <time>2013-08-31T15:16:27Z</time>
      </trkpt>
      <trkpt lat="42.713500" lon="-0.051011">
        <ele>2203.8</ele>
        <time>2013-08-31T15:16:35Z</time>
      </trkpt>
      <trkpt lat="42.713565" lon="-0.051108">
        <ele>2204.0</ele>
        <time>2013-08-31T15:16:43Z</time>
      </trkpt>
      <trkpt lat="42.713644" lon="-0.051228">
        <ele>2204.2</ele>
        <time>2013-08-31T15:16:51Z</time>
      </trkpt>
      <trkpt lat="42.713713" lon="-0.051328">
        <ele>2204.3</ele>
        <time>2013-08-31T15:16:59Z</time>
      </trkpt>
      <trkpt lat="42.713808" lon="-0.051387">
        <ele>2204.1</ele>
        <time>2013-08-31T15:17:06Z</time>
      </trkpt>
      <trkpt lat="42.713814" lon="-0.051397">
        <ele>2170.9</ele>
        <time>2013-08-31T15:18:38Z</time>
      </trkpt>
    </trkseg>
  </trk>
</gpx>

